[[{"header":{"parameterUnit":"m.s-1","parameterCategory":1,"la1":31.0,"la2":29.5877,"lo1":-88.7671,"lo2":-86.6584,"dx":0.0162,"dy":0.0185,"nx":115,"ny":88,"refTime":"2022-12-15T06:00:00:Z","depth":0,"parameterNumber":2,"parameterNumberName":"U-component_of_WINDS"},"data":[0.0,0.0,0.0,0.0,0.0,0.0,0.0,0.0,0.0,0.0,0.0,0.0,0.0,0.0,0.0,0.0,0.0,0.0,0.0,0.0,0.0,0.0,0.0,0.0,0.0,0.0,0.0,0.0,0.0,0.0,0.0,0.0,0.0,0.0,0.0,0.0,0.0,0.0,0.0,0.0,0.0,0.0,0.0,0.0,0.0,0.0,0.0,0.0,0.0,0.0,0.0,0.0,0.0,0.0,0.0,0.0,0.0,0.0,0.0,0.0,0.0,0.0,0.0,0.0,0.0,0.0,0.0,0.0,0.0,0.0,0.0,0.0,0.0,0.0,0.0,0.0,0.0,0.0,0.0,0.0,0.0,0.0,0.0,0.0,0.0,0.0,0.0,0.0,0.0,0.0,0.0,0.0,0.0,0.0,0.0,0.0,0.0,0.0,0.0,0.0,0.0,0.0,0.0,0.0,0.0,0.0,0.0,0.0,0.0,0.0,0.0,0.0,0.0,0.0,0.0,0.0,0.0,0.0,0.0,0.0,0.0,0.0,0.0,0.0,0.0,0.0,0.0,0.0,0.0,0.0,0.0,0.0,0.0,0.0,0.0,0.0,0.0,0.0,0.0,0.0,0.0,0.0,0.0,0.0,0.0,0.0,0.0,0.0,0.0,0.0,0.0,0.0,0.0,0.0,0.0,0.0,0.0,0.0,0.0,0.0,0.0,0.0,0.0,0.0,0.0,0.0,0.0,0.0,0.0,0.0,0.0,0.0,0.0,0.0,0.0,0.0,0.0,0.0,0.0,0.0,0.0,0.0,0.0,0.0,0.0,0.0,0.0,0.0,0.0,0.0,0.0,0.0,0.0,0.0,0.0,0.0,0.0,0.0,0.0,0.0,0.0,0.0,0.0,0.0,0.0,0.0,0.0,0.0,0.0,0.0,0.0,0.0,0.0,0.0,0.0,0.0,0.0,0.0,0.0,0.0,0.0,0.0,0.0,0.0,0.0,0.0,0.0,0.0,0.0,0.0,0.0,0.0,0.0,0.0,0.0,0.0,0.0,0.0,0.0,0.0,0.0,0.0,0.0,0.0,0.0,0.0,0.0,0.0,0.0,0.0,0.0,0.0,0.0,0.0,0.0,0.0,0.0,0.0,0.0,0.0,0.0,0.0,0.0,0.0,0.0,0.0,0.0,0.0,0.0,0.0,0.0,0.0,0.0,0.0,0.0,0.0,0.0,0.0,0.0,0.0,0.0,0.0,0.0,0.0,0.0,0.0,0.0,0.0,0.0,0.0,0.0,0.0,0.0,0.0,0.0,0.0,0.0,0.0,0.0,0.0,0.0,0.0,0.0,0.0,0.0,0.0,0.0,0.0,0.0,0.0,0.0,0.0,0.0,0.0,0.0,0.0,0.0,0.0,0.0,0.0,0.0,0.0,0.0,0.0,0.0,0.0,0.0,0.0,0.0,0.0,0.0,0.0,0.0,0.0,0.0,0.0,0.0,0.0,0.0,0.0,0.0,0.0,0.0,0.0,0.0,0.0,0.0,0.0,0.0,0.0,0.0,0.0,0.0,0.0,0.0,0.0,0.0,0.0,0.0,0.0,0.0,0.0,0.0,0.0,0.0,0.0,0.0,0.0,0.0,0.0,0.0,0.0,0.0,0.0,0.0,0.0,0.0,0.0,0.0,0.0,0.0,0.0,0.0,0.0,0.0,0.0,0.0,0.0,0.0,0.0,0.0,0.0,0.0,0.0,0.0,0.0,0.0,0.0,0.0,0.0,0.0,0.0,0.0,0.0,0.0,0.0,0.0,0.0,0.0,0.0,0.0,0.0,0.0,0.0,0.0,0.0,0.0,0.0,0.0,0.0,0.0,0.0,0.0,0.0,0.0,0.0,0.0,0.0,0.0,0.0,0.0,0.0,0.0,0.0,0.0,0.0,0.0,0.0,0.0,0.0,0.0,0.0,0.0,0.0,0.0,0.0,0.0,0.0,0.0,0.0,0.0,0.0,0.0,0.0,0.0,0.0,0.0,0.0,0.0,0.0,0.0,0.0,0.0,0.0,0.0,0.0,0.0,0.0,0.0,0.0,0.0,0.0,0.0,0.0,0.0,0.0,0.0,0.0,0.0,0.0,0.0,0.0,0.0,0.0,0.0,0.0,0.0,0.0,0.0,0.0,0.0,0.0,0.0,0.0,0.0,0.0,0.0,0.0,0.0,0.0,0.0,0.0,0.0,0.0,0.0,0.0,0.0,0.0,0.0,0.0,0.0,0.0,0.0,0.0,0.0,0.0,0.0,0.0,0.0,0.0,0.0,0.0,0.0,0.0,0.0,0.0,0.0,0.0,0.0,0.0,0.0,0.0,0.0,0.0,0.0,0.0,0.0,0.0,0.0,0.0,0.0,0.0,0.0,0.0,0.0,0.0,0.0,0.0,0.0,0.0,0.0,0.0,0.0,0.0,0.0,0.0,0.0,0.0,0.0,0.0,0.0,0.0,0.0,0.0,0.0,0.0,0.0,0.0,0.0,0.0,0.0,0.0,0.0,0.0,0.0,0.0,0.0,0.0,0.0,0.0,0.0,0.0,0.0,0.0,0.0,0.0,0.0,0.0,0.0,0.0,0.0,0.0,0.0,0.0,0.0,0.0,0.0,0.0,0.0,0.0,0.0,0.0,0.0,0.0,0.0,0.0,0.0,0.0,0.0,0.0,0.0,0.0,0.0,0.0,0.0,0.0,0.0,0.0,0.0,0.0,0.0,0.0,0.0,0.0,0.0,0.0,0.0,0.0,0.0,0.0,0.0,0.0,0.0,0.0,0.0,0.0,0.0,0.0,0.0,0.0,0.0,0.0,0.0,0.0,0.0,0.0,0.0,0.0,0.0,0.0,0.0,0.0,0.0,0.0,0.0,0.0,0.0,0.0,0.0,0.0,0.0,0.0,0.0,0.0,0.0,0.0,0.0,0.0,0.0,0.0,0.0,0.0,0.0,0.0,0.0,0.0,0.0,0.0,0.0,0.0,0.0,0.0,0.0,0.0,0.0,0.0,0.0,0.0,0.0,0.0,0.0,0.0,0.0,0.0,0.0,0.0,0.0,0.0,0.0,0.0,0.0,0.0,0.0,0.0,0.0,0.0,0.0,0.0,0.0,0.0,0.0,0.0,0.0,0.0,0.0,0.0,0.0,0.0,0.0,0.0,0.0,0.0,0.0,0.0,0.0,0.0,0.0,0.0,0.0,0.0,0.0,0.0,0.0,0.0,0.0,0.0,0.0,0.0,0.0,0.0,0.0,0.0,0.0,0.0,0.0,0.0,0.0,0.0,0.0,0.0,0.0,0.0,0.0,0.0,0.0,0.0,0.0,0.0,0.0,0.0,0.0,0.0,0.0,0.0,0.0,0.0,0.0,0.0,0.0,0.0,0.0,0.0,0.0,0.0,0.0,0.0,0.0,0.0,0.0,0.0,0.0,0.0,0.0,0.0,0.0,0.0,0.0,0.0,0.0,0.0,0.0,0.0,0.0,0.0,0.0,0.0,0.0,0.0,0.0,0.0,0.0,0.0,0.0,0.0,0.0,0.0,0.0,0.0,0.0,0.0,0.0,0.0,0.0,0.0,0.0,0.0,0.0,0.0,0.0,0.0,0.0,0.0,0.0,0.0,0.0,0.0,0.0,0.0,0.0,0.0,0.0,0.0,0.0,0.0,0.0,0.0,0.0,0.0,0.0,0.0,0.0,0.0,0.0,0.0,0.0,0.0,0.0,0.0,0.0,0.0,0.0,0.0,0.0,0.0,0.0,0.0,0.0,0.0,0.0,0.0,0.0,0.0,0.0,0.0,0.0,0.0,0.0,0.0,0.0,0.0,0.0,0.0,0.0,0.0,0.0,0.0,0.0,0.0,0.0,0.0,0.0,0.0,0.0,0.0,0.0,0.0,0.0,0.0,0.0,0.0,0.0,0.0,0.0,0.0,0.0,0.0,0.0,0.0,0.0,0.0,0.0,0.0,0.0,0.0,0.0,0.0,0.0,0.0,0.0,0.0,0.0,0.0,0.0,0.0,0.0,0.0,0.0,0.0,0.0,0.0,0.0,0.0,0.0,0.0,0.0,0.0,0.0,0.0,0.0,0.0,0.0,0.0,0.0,0.0,0.0,0.0,0.0,0.0,0.0,0.0,0.0,0.0,0.0,0.0,0.0,0.0,0.0,0.0,0.0,0.0,0.0,0.0,0.0,0.0,0.0,0.0,0.0,0.0,0.0,0.0,0.0,0.0,1.5395,0.0,0.0,0.0,1.2252,0.0,0.0,0.0,0.0,0.0,0.0,0.0,0.0,0.0,0.0,0.0,0.0,0.0,0.0,0.0,0.0,0.0,0.0,0.0,0.0,0.0,0.0,0.0,0.0,0.0,0.0,0.0,0.0,0.0,0.0,0.0,0.0,0.0,0.0,0.0,0.0,0.0,0.0,0.0,0.0,0.0,0.0,0.0,0.0,0.0,0.0,0.0,0.0,0.0,0.0,0.0,0.0,0.0,0.0,0.0,0.0,0.0,0.0,0.0,0.0,0.0,0.0,0.0,0.0,0.0,0.0,0.0,0.0,0.0,0.0,0.0,0.0,0.0,0.0,0.0,0.0,0.0,0.0,0.0,0.0,0.0,0.0,0.0,0.0,0.0,0.0,0.0,0.0,0.0,0.0,0.0,0.0,0.0,0.0,0.0,0.0,0.0,0.0,0.0,0.0,0.0,0.0,0.0,0.0,0.0,0.0,0.0,0.0,0.0,0.0,1.5773,1.4583,1.5693,1.5093,1.2486,0.0,0.0,0.0,0.0,0.0,0.0,0.0,0.0,0.0,0.0,0.0,0.0,0.0,0.0,0.0,0.0,0.0,0.0,0.0,0.0,0.0,0.0,0.0,0.0,0.0,0.0,0.0,0.0,0.0,0.0,0.0,0.0,0.0,0.0,0.0,0.0,0.0,0.0,0.0,0.0,0.0,0.0,0.0,0.0,0.0,0.0,0.0,0.0,0.0,0.0,0.0,0.0,0.0,0.0,0.0,0.0,0.0,0.0,0.0,0.0,0.0,0.0,0.0,0.0,0.0,0.0,0.0,0.0,0.0,0.0,0.0,0.0,0.0,0.0,0.0,0.0,0.0,0.0,0.0,0.0,0.0,0.0,0.0,0.0,0.0,0.0,0.0,0.0,0.0,0.0,0.0,0.0,0.0,0.0,0.0,0.0,0.0,0.0,0.0,0.0,0.0,0.0,0.0,0.0,0.0,0.0,0.0,0.0,0.0,0.0,0.0,0.0,1.699,1.6387,1.3747,0.0,0.0,0.0,0.0,0.0,0.0,0.0,0.0,0.0,0.0,0.0,0.0,0.0,0.0,0.0,0.0,0.0,0.0,0.0,0.0,0.0,0.0,0.0,0.0,0.0,0.0,0.0,0.0,0.0,0.0,0.0,0.0,0.0,0.0,0.0,0.0,0.0,0.0,0.0,0.0,0.0,0.0,0.0,0.0,0.0,0.0,0.0,0.0,0.0,0.0,0.0,0.0,0.0,0.0,0.0,0.0,0.0,0.0,0.0,0.0,0.0,0.0,0.0,0.0,0.0,0.0,0.0,0.0,0.0,0.0,0.0,0.0,0.0,0.0,0.0,0.0,0.0,0.0,0.0,0.0,0.0,0.0,0.0,0.0,0.0,0.0,0.0,0.0,0.0,0.0,0.0,0.0,0.0,0.0,0.0,0.0,0.0,0.0,0.0,0.0,0.0,0.0,0.0,0.0,0.0,0.0,0.0,0.0,0.0,0.0,1.6019,1.7526,1.768,0.0,1.698,0.0,0.0,0.0,0.0,0.0,0.0,0.0,0.0,0.0,0.0,0.0,0.0,0.0,0.0,0.0,0.0,0.0,0.0,0.0,0.0,0.0,0.0,0.0,0.0,0.0,0.0,0.0,0.0,0.0,0.0,0.0,0.0,0.0,0.0,0.0,0.0,0.0,0.0,0.0,0.0,0.0,0.0,0.0,0.0,0.0,0.0,0.0,0.0,0.0,0.0,0.0,0.0,0.0,0.0,0.0,0.0,0.0,0.0,0.0,0.0,0.0,0.0,0.0,0.0,0.0,0.0,0.0,0.0,0.0,0.0,0.0,0.0,0.0,0.0,0.0,0.0,0.0,0.0,0.0,0.0,0.0,0.0,0.0,0.0,0.0,0.0,0.0,0.0,0.0,0.0,0.0,0.0,0.0,0.0,0.0,0.0,0.0,0.0,0.0,0.0,0.0,0.0,0.0,0.0,0.0,0.0,0.0,0.0,0.0,0.0,1.7132,1.7834,1.6866,1.6457,0.0,0.0,0.0,0.0,0.0,0.0,0.0,0.0,0.0,0.0,0.0,0.0,0.0,0.0,0.0,0.0,0.0,0.0,0.0,0.0,0.0,0.0,0.0,0.0,0.0,0.0,0.0,0.0,0.0,0.0,0.0,0.0,0.0,0.0,0.0,0.0,0.0,0.0,0.0,0.0,0.0,0.0,0.0,0.0,0.0,0.0,0.0,0.0,0.0,0.0,0.0,0.0,0.0,0.0,0.0,0.0,0.0,0.0,0.0,0.0,0.0,0.0,0.0,0.0,0.0,0.0,0.0,0.0,0.0,0.0,0.0,0.0,0.0,0.0,0.0,0.0,0.0,0.0,0.0,0.0,0.0,0.0,0.0,0.0,0.0,0.0,0.0,0.0,0.0,0.0,0.0,0.0,0.0,0.0,0.0,0.0,0.0,0.0,0.0,0.0,0.0,0.0,0.0,0.0,0.0,0.0,0.0,0.0,0.0,0.0,1.7783,1.844,1.8857,1.7486,1.6559,1.6315,0.0,0.0,0.0,0.0,0.0,0.0,0.0,0.0,0.0,0.0,0.0,0.0,0.0,0.0,0.0,0.0,0.0,0.0,0.0,0.0,0.0,0.0,0.0,0.0,0.0,0.0,0.0,0.0,0.0,0.0,0.0,0.0,0.0,0.0,0.0,0.0,0.0,0.0,0.0,0.0,0.0,0.0,0.0,0.0,0.0,0.0,0.0,0.0,0.0,0.0,0.0,0.0,0.0,0.0,0.0,0.0,0.0,0.0,0.0,0.0,0.0,0.0,0.0,0.0,0.0,0.0,0.0,0.0,0.0,0.0,0.0,0.0,0.0,0.0,0.0,0.0,0.0,0.0,0.0,0.0,0.0,0.0,0.0,0.0,0.0,0.0,0.0,0.0,0.0,0.0,0.0,0.0,0.0,0.0,0.0,0.0,0.0,0.0,0.0,0.0,0.0,0.0,0.0,0.0,0.0,0.0,0.0,0.0,2.0927,1.9684,1.9761,2.1423,2.0572,1.8883,0.0,0.0,0.0,0.0,0.0,0.0,0.0,0.0,0.0,0.0,0.0,0.0,0.0,0.0,0.0,0.0,0.0,0.0,0.0,0.0,0.0,0.0,0.0,0.0,0.0,0.0,0.0,0.0,0.0,0.0,0.0,0.0,0.0,0.0,0.0,0.0,0.0,0.0,0.0,0.0,0.0,0.0,0.0,0.0,0.0,0.0,0.0,0.0,0.0,0.0,0.0,0.0,0.0,0.0,0.0,0.0,0.0,0.0,0.0,0.0,0.0,0.0,0.0,0.0,0.0,0.0,0.0,0.0,0.0,0.0,0.0,0.0,0.0,0.0,0.0,0.0,0.0,0.0,0.0,0.0,0.0,0.0,0.0,0.0,0.0,0.0,0.0,0.0,0.0,0.0,0.0,0.0,0.0,0.0,0.0,0.0,0.0,0.0,0.0,0.0,0.0,0.0,0.0,0.0,0.0,0.0,0.0,0.0,0.0,1.6559,1.717,1.9361,2.3015,1.8828,1.6851,0.0,0.0,0.0,0.0,0.0,0.0,0.0,0.0,0.0,0.0,0.0,0.0,0.0,0.0,0.0,0.0,0.0,0.0,0.0,0.0,0.0,0.0,0.0,0.0,0.0,0.0,0.0,0.0,0.0,0.0,0.0,0.0,0.0,0.0,0.0,0.0,0.0,0.0,0.0,0.0,0.0,0.0,0.0,0.0,0.0,0.0,0.0,0.0,0.0,0.0,0.0,0.0,0.0,0.0,0.0,0.0,0.0,0.0,0.0,0.0,0.0,0.0,0.0,0.0,0.0,0.0,0.0,0.0,0.0,0.0,0.0,0.0,0.0,0.0,0.0,0.0,0.0,0.0,0.0,0.0,0.0,0.0,0.0,0.0,0.0,0.0,0.0,0.0,0.0,0.0,0.0,0.0,0.0,0.0,0.0,0.0,0.0,0.0,0.0,0.0,0.0,0.0,0.0,0.0,0.0,0.0,0.0,0.0,0.0,1.6305,1.8664,2.1175,2.3494,1.8885,1.6421,0.0,0.0,0.0,0.0,0.0,0.0,0.0,0.0,0.0,0.0,0.0,0.0,0.0,0.0,0.0,0.0,0.0,0.0,0.0,0.0,0.0,0.0,0.0,0.0,0.0,0.0,0.0,0.0,0.0,0.0,0.0,0.0,0.0,0.0,0.0,0.0,0.0,0.0,0.0,0.0,0.0,0.0,0.0,0.0,0.0,0.0,0.0,0.0,0.0,0.0,0.0,0.0,0.0,0.0,0.0,0.0,0.0,0.0,0.0,0.0,0.0,0.0,0.0,0.0,0.0,0.0,0.0,0.0,0.0,0.0,0.0,0.0,0.0,0.0,0.0,0.0,0.0,0.0,0.0,0.0,0.0,0.0,0.0,0.0,0.0,0.0,0.0,0.0,0.0,0.0,0.0,0.0,0.0,0.0,0.0,0.0,0.0,0.0,0.0,0.0,0.0,0.0,0.0,0.0,0.0,0.0,0.0,0.0,1.5567,2.1158,2.4567,2.5089,2.3023,2.1162,1.7963,0.0,0.0,0.0,0.0,0.0,0.0,0.0,0.0,0.0,0.0,0.0,0.0,0.0,0.0,0.0,0.0,0.0,0.0,0.0,0.0,0.0,0.0,0.0,0.0,0.0,0.0,0.0,0.0,0.0,0.0,0.0,0.0,0.0,0.0,0.0,0.0,0.0,0.0,0.0,0.0,0.0,0.0,0.0,0.0,0.0,0.0,0.0,0.0,0.0,0.0,0.0,0.0,0.0,0.0,0.0,0.0,0.0,0.0,0.0,0.0,0.0,0.0,0.0,0.0,0.0,0.0,0.0,0.0,0.0,0.0,0.0,0.0,0.0,0.0,0.0,0.0,0.0,0.0,0.0,0.0,0.0,0.0,0.0,0.0,0.0,0.0,0.0,0.0,0.0,0.0,0.0,0.0,0.0,0.0,0.0,0.0,0.0,0.0,0.0,0.0,0.0,0.0,0.0,0.0,0.0,0.0,0.0,0.0,0.0,1.8725,2.1567,2.3898,2.5255,2.0546,1.8197,0.0,0.0,0.0,0.0,0.0,0.0,0.0,0.0,0.0,0.0,0.0,0.0,0.0,0.0,0.0,0.0,0.0,0.0,0.0,0.0,0.0,0.0,0.0,0.0,0.0,0.0,0.0,0.0,0.0,0.0,0.0,0.0,0.0,0.0,0.0,0.0,0.0,0.0,0.0,0.0,0.0,0.0,0.0,0.0,0.0,0.0,0.0,0.0,0.0,0.0,0.0,0.0,0.0,0.0,0.0,0.0,0.0,0.0,0.0,0.0,0.0,0.0,0.0,0.0,0.0,0.0,0.0,0.0,0.0,0.0,0.0,0.0,0.0,0.0,0.0,0.0,0.0,0.0,0.0,0.0,0.0,0.0,0.0,0.0,0.0,0.0,0.0,0.0,0.0,0.0,0.0,0.0,0.0,0.0,0.0,0.0,0.0,0.0,0.0,0.0,0.0,0.0,0.0,0.0,0.0,0.0,0.0,0.0,0.0,2.1957,2.4536,2.6598,2.7942,2.2666,2.0075,2.0463,0.0,0.0,0.0,0.0,0.0,0.0,0.0,0.0,0.0,0.0,0.0,0.0,0.0,0.0,0.0,0.0,0.0,0.0,0.0,0.0,0.0,0.0,0.0,0.0,0.0,0.0,0.0,0.0,0.0,0.0,0.0,0.0,0.0,0.0,0.0,0.0,0.0,0.0,0.0,0.0,0.0,0.0,0.0,0.0,0.0,0.0,0.0,0.0,0.0,0.0,0.0,0.0,0.0,0.0,0.0,0.0,0.0,0.0,0.0,0.0,0.0,0.0,0.0,0.0,0.0,0.0,0.0,0.0,0.0,0.0,0.0,0.0,0.0,0.0,0.0,0.0,0.0,0.0,0.0,0.0,0.0,0.0,0.0,0.0,0.0,0.0,0.0,0.0,0.0,0.0,0.0,0.0,0.0,0.0,0.0,0.0,0.0,0.0,0.0,0.0,0.0,0.0,0.0,0.0,0.0,0.0,0.0,0.0,2.9385,3.2315,3.2703,3.0462,2.7075,2.3448,0.0,0.0,0.0,0.0,0.0,0.0,0.0,0.0,0.0,0.0,0.0,0.0,0.0,0.0,0.0,0.0,0.0,0.0,0.0,0.0,0.0,0.0,0.0,0.0,0.0,0.0,0.0,0.0,0.0,0.0,0.0,0.0,0.0,0.0,0.0,0.0,0.0,0.0,0.0,0.0,0.0,0.0,0.0,0.0,0.0,0.0,0.0,0.0,0.0,0.0,0.0,0.0,0.0,0.0,0.0,0.0,0.0,0.0,0.0,0.0,0.0,0.0,0.0,0.0,0.0,0.0,0.0,0.0,0.0,0.0,0.0,0.0,0.0,0.0,0.0,0.0,0.0,0.0,0.0,0.0,0.0,0.0,0.0,0.0,0.0,0.0,0.0,0.0,0.0,0.0,0.0,0.0,0.0,0.0,0.0,0.0,0.0,0.0,0.0,0.0,0.0,0.0,0.0,0.0,0.0,0.0,0.0,0.0,0.0,3.246,3.6057,3.6824,3.4472,3.0161,2.6725,0.0,0.0,0.0,0.0,0.0,0.0,0.0,0.0,0.0,0.0,0.0,0.0,0.0,0.0,0.0,0.0,0.0,0.0,0.0,0.0,0.0,0.0,0.0,0.0,0.0,0.0,0.0,0.0,0.0,0.0,0.0,0.0,0.0,0.0,0.0,0.0,0.0,0.0,0.0,0.0,0.0,0.0,0.0,0.0,0.0,0.0,0.0,0.0,0.0,0.0,0.0,0.0,0.0,0.0,0.0,0.0,0.0,0.0,0.0,0.0,0.0,0.0,0.0,0.0,0.0,0.0,0.0,0.0,0.0,0.0,0.0,0.0,0.0,0.0,0.0,0.0,0.0,0.0,0.0,0.0,0.0,0.0,0.0,0.0,0.0,0.0,0.0,0.0,0.0,0.0,0.0,0.0,0.0,0.0,0.0,0.0,0.0,0.0,0.0,0.0,0.0,0.0,0.0,0.0,0.0,0.0,0.0,0.0,3.1038,3.5307,3.8722,3.9895,3.8548,3.3787,3.014,0.0,0.0,0.0,0.0,0.0,0.0,0.0,0.0,0.0,0.0,0.0,0.0,0.0,0.0,0.0,0.0,0.0,0.0,0.0,0.0,0.0,0.0,0.0,0.0,0.0,0.0,0.0,0.0,0.0,0.0,0.0,0.0,0.0,0.0,0.0,0.0,0.0,0.0,0.0,0.0,0.0,0.0,0.0,0.0,0.0,0.0,0.0,0.0,0.0,0.0,0.0,0.0,0.0,0.0,0.0,0.0,0.0,0.0,0.0,0.0,0.0,0.0,0.0,0.0,0.0,0.0,0.0,0.0,0.0,0.0,0.0,0.0,0.0,0.0,0.0,0.0,0.0,0.0,0.0,0.0,0.0,0.0,0.0,0.0,0.0,0.0,0.0,0.0,0.0,0.0,0.0,0.0,0.0,0.0,0.0,0.0,0.0,0.0,0.0,0.0,0.0,0.0,0.0,0.0,0.0,0.0,0.0,0.0,3.3904,3.7918,4.0763,4.2249,4.2207,3.7575,3.3445,0.0,0.0,0.0,0.0,0.0,0.0,0.0,0.0,0.0,0.0,0.0,0.0,0.0,0.0,0.0,0.0,0.0,0.0,0.0,0.0,0.0,0.0,0.0,0.0,0.0,0.0,0.0,0.0,0.0,0.0,0.0,0.0,0.0,0.0,0.0,0.0,0.0,0.0,0.0,0.0,0.0,0.0,0.0,0.0,0.0,0.0,0.0,0.0,0.0,0.0,0.0,0.0,0.0,0.0,0.0,0.0,0.0,0.0,0.0,0.0,0.0,0.0,0.0,0.0,0.0,0.0,0.0,0.0,0.0,0.0,0.0,0.0,0.0,0.0,0.0,0.0,0.0,0.0,0.0,0.0,0.0,0.0,0.0,0.0,0.0,0.0,0.0,0.0,0.0,0.0,0.0,0.0,0.0,0.0,0.0,0.0,0.0,0.0,0.0,0.0,0.0,0.0,0.0,0.0,0.0,0.0,0.0,0.0,3.589,3.9979,4.2696,4.4303,4.471,4.0001,3.5502,0.0,0.0,0.0,0.0,0.0,0.0,0.0,0.0,0.0,0.0,0.0,0.0,0.0,0.0,0.0,0.0,0.0,0.0,0.0,0.0,0.0,0.0,0.0,0.0,0.0,0.0,0.0,0.0,0.0,0.0,0.0,0.0,0.0,0.0,0.0,0.0,0.0,0.0,0.0,0.0,0.0,0.0,0.0,0.0,0.0,0.0,0.0,0.0,1.6496,0.0,0.0,0.0,0.0,0.0,0.0,0.0,0.0,0.0,0.0,0.0,0.0,0.0,0.0,0.0,0.0,0.0,0.0,0.0,0.0,0.0,0.0,0.0,0.0,0.0,0.0,0.0,0.0,0.0,0.0,0.0,0.0,0.0,0.0,0.0,0.0,0.0,0.0,0.0,0.0,0.0,0.0,0.0,0.0,0.0,0.0,0.0,0.0,0.0,0.0,0.0,0.0,0.0,0.0,0.0,0.0,0.0,0.0,0.0,3.7514,4.1332,4.3563,4.4861,4.5034,4.277,3.9189,0.0,0.0,0.0,0.0,0.0,0.0,0.0,0.0,0.0,0.0,0.0,0.0,0.0,0.0,0.0,0.0,0.0,0.0,0.0,0.0,0.0,0.0,0.0,0.0,0.0,0.0,0.0,0.0,0.0,0.0,0.0,0.0,0.0,0.0,0.0,0.0,0.0,0.0,0.0,0.0,0.0,0.0,0.0,0.0,0.0,0.0,0.0,0.0,0.0,0.0,0.0,0.0,0.0,0.0,0.0,0.0,0.0,0.0,0.0,0.0,0.0,0.0,0.0,0.0,0.0,0.0,0.0,0.0,0.0,0.0,0.0,0.0,0.0,0.0,0.0,0.0,0.0,0.0,0.0,0.0,0.0,0.0,0.0,0.0,0.0,0.0,0.0,0.0,0.0,0.0,0.0,0.0,0.0,0.0,0.0,0.0,0.0,0.0,0.0,0.0,0.0,0.0,0.0,0.0,0.0,0.0,0.0,3.4497,3.8885,4.2641,4.4195,4.4986,4.5122,4.526,4.2693,3.7025,0.0,0.0,0.0,0.0,0.0,0.0,0.0,0.0,0.0,0.0,0.0,0.0,0.0,0.0,0.0,0.0,0.0,0.0,0.0,0.0,0.0,0.0,0.0,0.0,0.0,0.0,0.0,0.0,0.0,0.0,0.0,0.0,0.0,0.0,0.0,0.0,0.0,0.0,1.5467,1.9695,0.0,0.0,0.0,0.0,0.0,0.0,0.0,0.0,1.8616,0.0,0.0,0.0,0.0,0.0,0.0,0.0,0.0,0.0,0.0,0.0,0.0,0.0,0.0,0.0,0.0,0.0,0.0,0.0,0.0,0.0,0.0,0.0,0.0,0.0,0.0,0.0,0.0,0.0,0.0,0.0,0.0,0.0,0.0,0.0,0.0,0.0,0.0,0.0,0.0,0.0,0.0,0.0,0.0,0.0,0.0,0.0,0.0,0.0,0.0,0.0,0.0,0.0,0.0,0.0,0.0,3.2494,3.6041,4.0123,4.4751,4.558,4.6287,4.6901,4.6114,4.3118,3.7856,0.0,0.0,0.0,0.0,0.0,0.0,0.0,0.0,0.0,0.0,0.0,0.0,0.0,0.0,0.0,0.0,0.0,0.0,0.0,0.0,0.0,0.0,0.0,0.0,0.0,0.0,0.0,0.0,0.0,0.0,0.0,0.0,0.0,0.0,0.0,0.0,0.0,0.0,0.0,2.3515,2.4752,0.0,0.0,0.0,0.0,0.0,0.0,0.0,0.0,1.8531,0.0,0.0,0.0,0.0,0.0,0.0,0.0,0.0,0.0,0.0,0.0,0.0,0.0,0.0,0.0,0.0,0.0,0.0,0.0,0.0,0.0,0.0,0.0,0.0,0.0,0.0,0.0,0.0,0.0,0.0,0.0,0.0,0.0,0.0,0.0,0.0,0.0,0.0,0.0,0.0,0.0,0.0,0.0,0.0,0.0,0.0,0.0,0.0,0.0,0.0,0.0,0.0,0.0,0.0,0.0,3.3139,3.7884,4.2103,4.5872,4.6866,4.7521,4.7869,4.7155,4.4122,0.0,0.0,0.0,0.0,0.0,0.0,0.0,0.0,0.0,0.0,0.0,0.0,0.0,0.0,0.0,0.0,0.0,0.0,0.0,0.0,0.0,0.0,0.0,0.0,0.0,0.0,0.0,0.0,0.0,0.0,0.0,0.0,0.0,0.0,0.0,0.0,0.0,0.0,0.0,0.0,2.6113,2.7716,2.8763,0.0,0.0,0.0,0.0,0.0,0.0,2.2086,2.0452,0.0,0.0,0.0,0.0,0.0,0.0,0.0,0.0,0.0,0.0,0.0,0.0,0.0,0.0,0.0,0.0,0.0,0.0,0.0,0.0,0.0,0.0,0.0,0.0,0.0,0.0,0.0,0.0,0.0,0.0,0.0,0.0,0.0,0.0,0.0,0.0,0.0,0.0,0.0,0.0,0.0,0.0,0.0,0.0,0.0,0.0,0.0,0.0,0.0,0.0,0.0,0.0,0.0,0.0,0.0,3.326,3.9065,4.3605,4.6665,4.7746,4.8316,4.847,4.7903,4.4786,0.0,0.0,0.0,0.0,0.0,0.0,0.0,0.0,0.0,0.0,0.0,0.0,0.0,0.0,0.0,0.0,0.0,0.0,0.0,0.0,0.0,0.0,0.0,0.0,0.0,0.0,0.0,0.0,0.0,0.0,0.0,0.0,0.0,0.0,0.0,0.0,0.0,0.0,0.0,0.0,0.0,3.0712,3.2001,2.9585,0.0,0.0,0.0,0.0,2.6424,2.5473,0.0,0.0,0.0,0.0,0.0,0.0,0.0,0.0,0.0,0.0,0.0,0.0,0.0,0.0,0.0,0.0,0.0,0.0,0.0,0.0,0.0,0.0,0.0,0.0,0.0,0.0,0.0,0.0,0.0,0.0,0.0,0.0,0.0,0.0,0.0,0.0,0.0,0.0,0.0,0.0,0.0,0.0,0.0,0.0,0.0,0.0,0.0,0.0,0.0,0.0,0.0,0.0,0.0,0.0,0.0,0.0,3.3244,3.8553,4.3321,4.7286,4.7706,4.8123,4.8687,4.7779,4.4444,0.0,0.0,0.0,0.0,0.0,0.0,0.0,0.0,0.0,0.0,0.0,0.0,0.0,0.0,0.0,0.0,0.0,0.0,0.0,0.0,0.0,0.0,0.0,0.0,0.0,0.0,0.0,0.0,0.0,0.0,0.0,0.0,0.0,0.0,0.0,0.0,0.0,0.0,0.0,0.0,0.0,3.3205,3.2971,3.1225,3.016,0.0,0.0,2.9773,3.2496,3.2474,0.0,0.0,0.0,0.0,0.0,0.0,0.0,0.0,0.0,0.0,0.0,0.0,0.0,0.0,0.0,0.0,0.0,0.0,0.0,0.0,0.0,0.0,0.0,0.0,0.0,0.0,0.0,0.0,0.0,0.0,0.0,0.0,0.0,0.0,0.0,0.0,0.0,0.0,0.0,0.0,0.0,0.0,0.0,0.0,0.0,0.0,0.0,0.0,0.0,0.0,0.0,0.0,0.0,0.0,0.0,2.8526,3.4554,4.0074,4.4668,4.8165,4.8753,4.9131,4.9493,4.8261,4.4866,0.0,0.0,0.0,0.0,0.0,0.0,0.0,0.0,0.0,0.0,0.0,0.0,0.0,0.0,0.0,0.0,0.0,0.0,0.0,0.0,0.0,0.0,0.0,0.0,0.0,0.0,0.0,0.0,0.0,0.0,0.0,0.0,0.0,0.0,0.0,0.0,0.0,0.0,0.0,0.0,0.0,0.0,3.5405,3.3979,0.0,0.0,0.0,3.2925,3.5228,0.0,0.0,0.0,0.0,0.0,0.0,0.0,0.0,0.0,0.0,0.0,0.0,0.0,0.0,0.0,0.0,0.0,0.0,0.0,0.0,0.0,0.0,0.0,0.0,0.0,0.0,0.0,0.0,0.0,0.0,0.0,0.0,0.0,0.0,0.0,0.0,0.0,0.0,0.0,0.0,0.0,0.0,0.0,0.0,0.0,0.0,0.0,0.0,0.0,0.0,0.0,0.0,0.0,0.0,0.0,0.0,0.0,3.5584,4.152,4.5943,4.87,4.9597,5.0011,4.9959,4.9078,0.0,0.0,0.0,0.0,0.0,0.0,0.0,0.0,0.0,0.0,0.0,0.0,0.0,0.0,0.0,0.0,0.0,0.0,0.0,0.0,0.0,0.0,0.0,0.0,0.0,0.0,0.0,1.0458,0.0,0.0,0.0,0.0,0.0,0.0,0.0,0.0,0.0,0.0,0.0,0.0,0.0,0.0,3.4377,3.7975,3.723,3.7018,0.0,0.0,3.6702,3.8888,3.9752,3.9029,0.0,0.0,0.0,0.0,0.0,0.0,0.0,0.0,0.0,0.0,0.0,0.0,0.0,0.0,0.0,0.0,0.0,0.0,0.0,0.0,0.0,0.0,0.0,0.0,0.0,0.0,0.0,0.0,0.9976,0.0,0.0,0.0,0.0,0.0,0.0,0.0,0.0,0.0,0.0,0.0,0.0,0.0,0.0,0.0,0.0,0.0,0.0,0.0,0.0,0.0,0.0,0.0,0.0,0.0,3.0888,3.5632,4.1998,4.6441,4.8752,4.9597,5.0011,4.9993,5.0204,4.6999,0.0,0.0,0.0,0.0,0.0,0.0,0.0,0.0,0.0,0.0,0.0,0.0,0.0,0.0,0.0,0.0,0.0,0.0,0.0,0.0,0.0,0.0,0.0,0.0,0.0,0.0,0.0,0.0,0.0,0.0,0.0,0.0,0.0,0.0,0.0,0.0,0.0,0.0,0.0,0.0,0.0,3.6148,4.0279,4.0951,4.1985,0.0,4.2777,4.215,4.5326,4.5617,4.3563,3.769,0.0,0.0,0.0,0.0,0.0,0.0,0.0,0.0,0.0,0.0,0.0,0.0,0.0,0.0,0.0,0.0,0.0,0.0,0.0,0.0,0.0,0.0,0.0,0.0,0.0,1.001,1.0039,0.0,1.0066,0.0,0.0,0.0,0.0,0.0,0.0,0.0,0.0,0.0,0.0,0.0,0.0,0.0,0.0,0.0,0.0,0.0,0.0,0.0,0.0,0.0,0.0,0.0,0.0,3.19,3.6998,4.3048,4.7257,4.9441,4.9855,5.0011,4.9993,5.031,4.811,0.0,0.0,0.0,0.0,0.0,0.0,0.0,0.0,0.0,0.0,0.0,0.0,0.0,0.0,0.0,0.0,0.0,0.0,0.0,0.0,0.0,0.0,0.0,0.0,0.0,0.0,0.0,0.0,1.929,1.9672,1.8503,0.0,0.0,0.0,0.0,0.0,0.0,0.0,0.0,0.0,0.0,3.7983,4.1938,4.3006,0.0,0.0,4.4724,4.4226,4.6636,4.5852,4.3687,4.0125,3.7145,0.0,0.0,0.0,0.0,0.0,0.0,0.0,0.0,0.0,0.0,0.0,0.0,0.0,0.0,0.0,0.0,0.0,0.0,0.0,0.0,0.0,0.0,0.0,0.0,0.0,0.0,1.0455,1.0468,0.0,0.0,0.0,0.0,0.0,0.0,0.0,0.0,0.0,0.0,0.0,0.0,0.0,0.0,0.0,0.0,0.0,0.0,0.0,0.0,0.0,0.0,0.0,0.0,3.2702,3.7853,4.3617,4.7726,4.9959,5.0011,5.0011,4.9976,5.0435,4.8775,0.0,0.0,0.0,0.0,0.0,0.0,0.0,0.0,0.0,0.0,0.0,0.0,0.0,0.0,0.0,0.0,0.0,0.0,0.0,0.0,0.0,0.0,0.0,0.0,0.0,0.0,0.0,0.0,2.2442,2.2282,1.9505,0.0,0.0,0.0,0.0,0.0,0.0,0.0,0.0,0.0,0.0,3.9759,4.3941,4.507,4.5871,4.7195,4.6164,4.569,4.7068,4.6073,4.4322,4.2074,0.0,0.0,0.0,0.0,0.0,0.0,0.0,0.0,0.0,0.0,0.0,0.0,0.0,0.0,0.0,0.0,0.0,0.0,0.0,0.0,0.0,0.0,0.0,0.0,0.0,0.0,0.0,1.1334,0.0,0.0,1.0086,0.0,0.0,0.0,0.0,0.0,0.0,0.0,0.0,0.0,0.0,0.0,0.0,0.0,0.0,0.0,0.0,0.0,0.0,0.0,0.0,0.0,0.0,3.3295,3.7906,4.3669,4.7726,4.9907,5.0011,5.0011,4.9993,5.057,4.8954,4.4797,0.0,0.0,0.0,0.0,0.0,0.0,0.0,0.0,0.0,0.0,0.0,0.0,0.0,0.0,0.0,0.0,0.0,0.0,0.0,0.0,0.0,0.0,0.0,0.0,0.0,0.0,1.9158,2.1729,2.2407,0.0,0.0,0.0,0.0,0.0,0.0,0.0,0.0,0.0,3.4703,3.7914,4.1445,4.6405,4.7206,4.7522,4.8346,4.7389,4.6782,4.7277,4.7224,4.6239,0.0,0.0,0.0,0.0,0.0,0.0,0.0,0.0,0.0,0.0,0.0,0.0,0.0,0.0,0.0,0.0,0.0,0.0,0.0,0.0,0.0,0.0,0.0,0.0,0.0,0.0,0.0,1.7736,1.642,0.0,0.0,0.0,0.0,0.0,0.0,0.0,0.0,0.0,0.0,0.0,3.1663,3.3345,0.0,0.0,0.0,0.0,0.0,0.0,0.0,0.0,0.0,0.0,0.0,0.0,3.4995,3.8761,4.4696,4.8501,4.9942,5.0011,5.0011,5.0011,5.0605,4.8656,4.3868,0.0,0.0,0.0,0.0,0.0,0.0,0.0,0.0,0.0,0.0,0.0,0.0,0.0,0.0,0.0,0.0,0.0,0.0,0.0,0.0,0.0,0.0,0.0,0.0,0.0,2.1464,0.0,0.0,0.0,0.0,0.0,0.0,0.0,0.0,0.0,0.0,2.9018,3.3317,3.8152,4.1051,4.3787,4.6856,4.824,4.9083,0.0,0.0,0.0,0.0,0.0,0.0,0.0,0.0,0.0,0.0,0.0,0.0,0.0,3.8239,3.7665,3.1678,2.8961,2.7718,2.7982,0.0,0.0,0.0,0.0,0.0,0.0,0.0,0.0,0.0,0.0,0.0,0.0,0.0,0.0,2.2951,2.1636,2.1043,0.0,0.0,0.0,0.0,0.0,0.0,0.0,0.0,3.3784,3.6712,3.8339,3.9989,3.9867,3.8208,3.6737,3.3408,0.0,0.0,0.0,0.0,0.0,0.0,0.0,0.0,3.6949,4.128,4.6217,4.9357,5.0575,5.0679,5.0718,5.0769,5.0812,4.9372,4.6259,4.3304,4.0337,0.0,0.0,0.0,0.0,0.0,0.0,0.0,0.0,0.0,0.0,0.0,0.0,0.0,0.0,0.0,0.0,0.0,0.0,0.0,0.0,0.0,0.0,0.0,2.5434,0.0,0.0,0.0,0.0,0.0,0.0,0.0,0.0,0.0,2.9479,3.3424,3.7667,4.1428,4.3816,4.5796,4.7603,0.0,0.0,0.0,0.0,0.0,0.0,0.0,4.5103,4.5302,4.3291,4.1586,4.1392,4.3073,4.4192,4.3581,0.0,0.0,3.8002,3.5095,3.3829,3.4102,3.4809,3.5258,3.4922,3.6805,3.85,0.0,0.0,0.0,0.0,2.5535,0.0,0.0,0.0,2.8366,2.7893,0.0,2.6968,0.0,0.0,0.0,0.0,2.3917,2.8313,0.0,0.0,4.1872,4.4705,4.6335,4.6413,4.6416,4.6218,4.4785,4.2909,4.0271,3.3515,2.8671,0.0,0.0,0.0,0.0,0.0,3.9101,4.5083,4.8063,5.0268,5.1871,5.1921,5.2019,5.2132,5.1315,5.1121,5.1556,4.6463,4.3011,4.1797,3.4562,0.0,0.0,0.0,0.0,0.0,0.0,0.0,0.0,0.0,0.0,0.0,0.0,0.0,0.0,0.0,0.0,0.0,0.0,0.0,0.0,2.7651,0.0,0.0,0.0,0.0,0.0,0.0,0.0,0.0,0.0,3.5183,3.3283,3.6745,4.0806,4.4506,0.0,0.0,0.0,0.0,4.9661,4.9457,4.8823,4.8182,4.7469,4.8227,4.8864,4.8644,0.0,0.0,4.7082,4.9224,5.0232,4.7205,4.8802,4.9943,4.7269,4.3545,4.1078,4.0923,4.053,4.0477,4.1762,4.4008,4.6698,3.8584,0.0,0.0,0.0,0.0,3.2314,3.4218,3.6892,3.6887,3.6078,3.4699,3.4063,0.0,0.0,0.0,0.0,0.0,0.0,3.7368,4.2118,4.4278,4.6488,4.866,4.9286,4.9211,4.8622,4.8274,4.7163,4.5397,4.3373,3.7389,2.8009,0.0,0.0,0.0,0.0,4.2592,4.5983,4.9148,5.1592,5.3371,5.2984,5.2568,5.2235,5.1949,5.2046,5.2615,5.0505,4.8105,4.5424,4.1469,0.0,0.0,0.0,0.0,0.0,0.0,0.0,0.0,0.0,0.0,0.0,0.0,0.0,0.0,0.0,0.0,0.0,0.0,0.0,2.591,3.0516,3.1689,0.0,0.0,0.0,0.0,0.0,0.0,0.0,0.0,0.0,4.0455,4.237,4.4286,0.0,0.0,4.7992,4.8318,4.9773,5.0876,5.1087,5.188,0.0,5.192,5.1345,5.1347,5.2341,5.2827,5.2345,5.039,5.1115,5.1645,5.0684,5.1176,5.1668,5.1471,4.9298,4.7561,4.7681,4.7658,4.7506,4.7682,4.8679,4.9713,4.6146,4.0739,3.7194,3.6492,3.777,3.8285,4.0239,4.3028,4.303,4.2384,4.1297,4.0785,3.8327,3.4472,3.294,0.0,0.0,0.0,4.1662,4.6687,4.7481,4.9005,5.1029,5.1518,5.1499,5.1004,5.0401,4.9818,4.9251,4.8769,4.4191,3.596,0.0,3.7371,3.6192,4.125,4.536,4.8206,5.0563,5.2539,5.4227,5.408,5.3783,5.3272,5.2839,5.2927,5.3508,5.2718,5.1308,4.9172,4.6494,4.2972,0.0,0.0,0.0,0.0,0.0,0.0,0.0,0.0,0.0,0.0,0.0,1.8501,1.4227,0.0,0.0,0.0,2.7163,2.9898,3.2155,3.5459,0.0,0.0,0.0,0.0,0.0,0.0,0.0,3.9469,4.1833,4.3933,4.6262,4.7181,4.7756,4.8063,4.8919,4.9639,5.011,0.0,5.247,5.3186,5.408,5.4636,5.4493,5.3934,5.3875,5.4992,5.5095,5.4693,5.3844,5.3877,5.4029,5.4029,5.4046,5.4184,5.4667,5.3598,5.2382,5.1871,5.1795,5.1726,5.1778,5.2275,5.281,5.1674,5.1041,4.5112,4.3006,4.3542,4.3573,4.4895,4.7108,4.7185,4.7007,4.6682,4.6658,4.4289,4.0141,3.7679,0.0,4.3446,4.3208,4.6022,5.1268,5.1069,5.1761,5.3166,5.3248,5.328,5.3151,5.1756,5.143,5.1992,5.0842,4.9132,4.6917,4.4743,4.4015,4.4608,4.5473,4.7746,5.1417,5.2186,5.331,5.4858,5.5291,5.5301,5.4869,5.4025,5.39,5.446,5.3684,5.3081,5.2659,5.0015,4.6952,4.3633,0.0,0.0,0.0,0.0,0.0,0.0,0.0,0.0,0.0,0.0,0.0,0.0,0.0,0.0,3.0607,3.6699,0.0,4.0891,4.1148,0.0,0.0,0.0,3.5098,3.6036,3.7627,4.0088,4.3833,0.0,0.0,5.0764,5.1045,5.1022,5.0915,5.1315,5.1986,5.3059,5.3602,5.4338,5.5207,5.5546,5.5574,5.5689,5.5976,5.6333,5.6764,5.6891,5.6753,5.6598,5.6598,5.6736,5.6598,5.6771,5.6771,5.6857,5.6684,5.6271,5.4356,5.3822,5.3873,5.446,5.5029,5.5731,5.327,5.1995,5.0449,4.8966,4.7593,4.7544,4.8113,4.9144,4.9765,4.9663,4.9003,4.8996,4.7586,4.5162,4.4976,4.6182,4.8423,4.8879,5.0176,5.2042,5.2467,5.2509,5.2385,5.3518,5.3812,5.3261,5.3445,5.3028,5.214,5.1893,5.1269,5.0333,4.9784,4.8458,4.6484,4.8996,5.1286,5.32,5.3949,5.5064,5.6458,5.6647,5.6295,5.5443,5.5209,5.523,5.5597,5.5335,5.4735,5.3823,5.2438,5.053,4.8003,4.0962,0.0,0.0,0.0,0.0,0.0,0.0,0.0,0.0,0.0,2.8255,2.1807,0.0,3.1278,0.0,4.1738,4.3736,3.968,4.1479,0.0,0.0,3.9926,4.04,4.3162,4.405,4.5434,4.7925,4.9063,5.054,5.2782,5.306,5.3661,5.5,5.3791,5.3002,5.383,5.4869,5.5653,5.5966,5.6744,5.7278,5.7396,5.7852,5.8131,5.7702,5.7667,5.7443,5.6909,5.6805,5.6805,5.6805,5.6805,5.7012,5.7581,5.7633,5.7978,5.8271,5.7219,5.6029,5.6236,5.6443,5.6909,5.3497,5.2607,5.2015,5.0975,4.9676,4.9408,4.9724,5.041,5.0837,5.0724,5.0126,4.9619,4.8827,4.7834,4.8133,4.8962,5.0082,5.0805,5.1562,5.2238,5.2904,5.2986,5.2582,5.3463,5.3647,5.3243,5.3665,5.3432,5.2674,5.2776,5.2712,5.2475,5.2939,5.2335,5.0754,5.186,5.2566,5.2863,5.4589,5.582,5.6527,5.6903,5.6235,5.449,5.5074,5.4955,5.4029,5.5009,5.46,5.2533,5.2363,5.1293,4.8934,4.4348,4.1551,0.0,0.0,0.0,0.0,0.0,0.0,0.0,0.0,0.0,0.0,0.0,3.6268,3.8615,4.4538,4.6783,4.3296,4.5571,4.7058,4.6544,4.6227,4.6667,4.8325,4.844,4.9152,5.1063,5.157,5.2597,5.4814,5.5161,5.5669,5.7064,5.6079,5.5409,5.5765,5.6455,5.7136,5.7846,5.8509,5.9064,5.934,5.9754,5.9909,5.9513,5.9409,5.9271,5.8875,5.8806,5.8806,5.8806,5.8806,5.8926,5.934,5.9409,5.9737,6.0202,5.9702,5.8892,5.8806,5.8806,5.9116,5.318,5.2977,5.1802,5.1108,5.0717,5.0241,5.038,5.0989,5.1216,5.1145,5.0828,4.9713,4.9259,4.9224,4.9241,4.9616,5.0343,5.0952,5.1577,5.2121,5.2863,5.3151,5.3078,5.3371,5.3463,5.3371,5.3573,5.3634,5.3589,5.3732,5.3853,5.4028,5.493,5.5361,5.5286,5.4171,5.323,5.2495,5.4686,5.5809,5.5837,5.6545,5.5713,5.3372,5.4613,5.4349,5.2172,5.4261,5.4018,5.099,5.1641,5.111,4.8827,4.7916,4.6036,0.0,4.1973,0.0,0.0,0.0,0.0,0.0,0.0,0.0,0.0,4.1231,4.2316,4.1121,4.6434,4.9627,4.9003,5.0875,5.2472,5.3243,5.3024,5.2633,5.218,5.1933,5.226,5.3688,5.3877,5.4758,5.6546,5.6943,5.7219,5.8047,5.815,5.8131,5.8288,5.8236,5.8685,6.0151,6.034,6.0444,6.0961,6.1203,6.1203,6.1237,6.1134,6.1272,6.0978,6.0978,6.103,6.0892,6.0685,6.0806,6.0996,6.0909,6.0961,6.0996,6.1013,6.1047,6.1082,6.103,6.1341,5.3479,5.2933,5.2669,5.2164,5.1476,5.1395,5.0949,5.0381,5.1756,5.2442,5.2404,5.1551,5.1092,5.102,5.102,5.1342,5.1972,5.2042,5.2093,5.2121,5.2863,5.2858,5.2362,5.4216,5.4785,5.4289,5.55,5.5776,5.5177,5.5373,5.554,5.5742,5.6106,5.5996,5.558,0.0,0.0,0.0,5.5436,5.5135,5.5623,5.5788,5.5477,5.4683,5.612,0.0,5.4878,5.5926,5.5686,5.3676,5.3811,0.0,0.0,0.0,0.0,0.0,0.0,0.0,0.0,0.0,0.0,0.0,4.3992,4.397,4.2529,4.6643,4.8767,4.715,4.9743,5.1738,5.2234,5.2692,5.3298,5.4087,5.4642,5.5021,5.5166,5.6154,5.6671,5.6052,5.6484,5.7084,5.7628,5.7702,5.8236,5.9478,5.9771,6.003,6.0565,6.0064,6.0099,6.0927,6.1116,6.1168,6.1289,6.1358,6.1375,6.1306,6.1306,6.1082,6.0616,6.0461,6.0185,5.972,5.9444,5.953,5.953,5.9444,5.9875,6.0306,6.0892,6.1306,6.1306,6.1306,6.1479,5.3681,5.3278,5.2503,5.1929,0.0,5.1542,5.1228,5.0803,5.1711,5.2119,5.2155,5.1726,5.1504,5.1452,5.1452,5.1565,5.1785,5.2135,5.2423,5.2684,5.345,5.3775,5.3794,5.5005,5.539,5.5023,5.5812,5.6059,5.5717,5.5834,5.6002,5.6166,5.6737,5.6872,5.6556,5.7302,5.7655,5.7558,5.6496,5.6264,5.6793,5.7171,5.6713,5.5396,5.6857,0.0,0.0,0.0,0.0,0.0,0.0,0.0,0.0,5.0293,0.0,4.8716,4.708,4.5859,4.5306,4.564,4.6542,4.8077,4.9615,4.9749,4.8021,5.1026,5.258,5.1664,5.2923,5.4252,5.5445,5.5923,5.6492,5.7262,5.7721,5.7938,5.7901,5.8471,5.8718,5.8348,5.8597,5.8997,5.9394,5.9217,5.9478,6.0513,6.0409,6.0599,6.1565,6.1237,6.103,6.1772,6.2237,6.2444,6.2393,6.2082,6.1875,6.1858,6.1565,6.1185,6.0823,6.0737,6.0599,6.0202,6.0151,6.0151,6.0151,6.0393,6.0787,6.117,6.1789,6.2217,6.227,6.2318,6.253,5.4071,5.3931,5.2472,5.1862,5.1898,5.1862,5.1955,5.2084,5.1822,0.0,0.0,5.1861,5.1861,5.1862,5.1992,5.1992,5.1859,5.2615,5.3216,5.3689,5.4289,5.4968,5.5574,5.5739,5.5812,5.5812,5.5959,5.6077,5.6183,5.6276,5.6362,5.6561,5.7342,5.7757,5.7769,5.8531,5.8568,5.7881,5.7542,5.7518,5.7822,5.8584,5.8052,5.6051,5.7574,5.7428,5.5354,5.6135,5.5662,5.3572,5.3697,5.353,5.2924,5.2253,5.2435,5.3566,5.315,5.2756,5.2545,5.251,5.2536,5.26,5.3849,5.4261,5.3386,5.4346,5.505,5.5238,5.5625,5.65,5.8052,5.8786,5.9593,6.0511,6.075,6.0664,6.0456,6.0516,6.0756,6.0615,6.0605,6.0723,6.116,6.0688,6.0634,6.112,6.0825,6.0791,6.1912,6.1806,6.1651,6.2082,6.2461,6.3031,6.3048,6.2599,6.2306,6.2117,6.1668,6.1289,6.1134,6.1099,6.1065,6.0668,6.0892,6.0771,6.0911,6.1204,6.1866,6.1884,6.2503,6.2995,6.3057,6.3246,6.3377,5.5043,5.5003,5.4112,5.372,5.372,5.3702,5.4112,5.4615,5.3199,5.2994,5.3719,5.3721,5.3702,5.3684,5.4409,5.4653,5.4498,5.5235,5.5558,5.5526,5.5441,5.5482,5.5629,5.6308,5.6638,5.6693,5.7317,5.7666,5.7712,5.7784,5.7954,5.8104,5.8264,5.8447,5.8605,5.9413,5.9808,5.9515,5.7987,5.7186,5.7122,5.7804,5.8015,5.7758,5.9226,5.9612,5.8602,5.8903,5.8442,5.684,5.6985,5.6743,5.5939,5.5844,5.5602,5.5025,5.5157,5.4882,5.3915,5.4687,5.5385,5.5753,5.6571,5.6699,5.58,5.5949,5.651,5.7523,5.7203,5.7408,5.8804,5.9226,5.9942,6.1245,6.2053,6.2682,6.32,6.3789,6.3909,6.3436,6.305,6.2364,6.1996,6.1351,6.1096,6.1681,6.1453,6.1131,6.1413,6.1979,6.2013,6.1616,6.1548,6.1634,6.1754,6.1582,6.1479,6.1461,6.1341,6.0944,6.0427,6.034,6.0133,5.9495,5.9513,5.9461,5.9426,5.9896,6.0411,6.061,6.1512,6.2331,6.2409,6.2817,6.3041,5.5405,5.579,5.5024,5.5006,5.5473,5.5454,5.566,5.594,5.5175,5.5044,5.5436,5.5435,5.5435,5.5436,5.5828,5.5864,5.5609,5.5958,5.6201,5.6374,5.6297,5.6492,5.6914,5.7281,5.7446,5.7483,5.7813,5.7978,5.7978,5.8197,5.8615,5.9171,5.9794,6.0143,6.0222,6.0659,6.0826,6.0766,5.9783,5.9194,5.9061,5.9632,5.9942,5.996,6.0694,6.0896,6.0511,6.0212,5.9852,5.9399,5.9547,5.9278,5.867,5.8202,5.7509,5.6571,5.6239,5.5828,5.5342,5.5791,5.6594,5.7713,5.814,5.8607,5.907,5.8452,5.8314,5.8913,5.9246,5.9751,6.0456,6.0896,6.1465,6.2181,6.2603,6.297,6.3337,6.3686,6.3823,6.3507,6.3221,6.2944,6.2659,6.2027,6.186,6.2452,6.2128,6.1544,6.0843,6.0996,6.1289,6.1289,6.1306,6.1306,6.1272,6.0927,6.0737,6.0685,6.0323,5.9978,5.9599,5.9564,5.9409,5.9099,5.9012,5.9012,5.9012,5.9856,6.0326,6.0608,6.1573,6.2349,6.2531,6.2562,6.2409,5.5881,5.6639,5.5864,5.594,5.6594,5.6612,5.6687,5.6912,5.6893,5.7005,5.7136,5.6762,5.6556,5.6574,5.6724,5.6683,5.6503,5.6589,5.6847,5.7158,5.7124,5.7409,5.7941,5.7978,5.8107,5.8253,5.8272,5.8364,5.8557,5.8795,5.9331,6.016,6.1065,6.1487,6.1487,6.1715,6.1808,6.1786,6.1658,6.1437,6.1153,6.1592,6.1851,6.1869,6.1869,6.1869,6.1832,6.1282,6.1051,6.1233,6.1304,6.1124,6.0572,5.9958,5.9225,5.8569,5.7893,5.7518,5.7518,5.7518,5.8138,5.9433,5.9545,6.0046,6.1185,6.0717,6.01,6.0037,6.0682,6.133,6.1539,6.2053,6.2603,6.2768,6.2989,6.3172,6.3135,6.3392,6.3558,6.3452,6.3472,6.3475,6.3221,6.2687,6.2418,6.2648,6.2542,6.1741,6.066,6.0354,6.0632,6.0826,6.0912,6.0703,6.0754,6.0323,5.9961,5.9926,5.9478,5.9202,5.9064,5.903,5.9012,5.9012,5.9012,5.9012,5.9064,6.0012,6.0718,6.0915,6.186,6.2741,6.2727,6.2741,6.2272,5.6806,5.7502,5.6799,5.65,5.6669,5.665,5.7155,5.781,5.7754,5.8184,5.8652,5.7155,5.6462,5.6535,5.7206,5.7484,5.7478,5.8021,5.8246,5.8258,5.8005,5.7923,5.8033,5.8015,5.8382,5.9006,5.9116,5.9446,6.0063,6.0407,6.077,6.1148,6.1409,6.1562,6.1618,6.2376,6.2791,6.2791,6.3184,6.2936,6.2132,6.2487,6.2695,6.2713,6.2695,6.2713,6.2658,6.2622,6.2285,6.1835,6.1976,6.1786,6.1156,6.1158,6.1266,6.1235,6.116,6.1179,6.1141,6.1197,6.1082,6.1244,6.1125,6.1158,6.1437,6.1719,6.1577,6.096,6.0729,6.1084,6.1484,6.1741,6.2126,6.2787,6.3411,6.398,6.3998,6.5283,6.5888,6.5154,6.4684,6.4775,6.3881,6.3137,6.2526,6.2203,6.2107,6.1709,6.0978,6.0785,6.0636,6.0218,5.9711,5.9374,5.934,5.9219,5.9219,5.9185,5.9099,5.9012,5.9012,5.9012,5.9012,5.9012,5.9012,5.9012,5.9299,6.0012,6.0838,6.1167,6.1951,6.286,6.2915,6.3346,6.3348,5.7003,5.7882,5.7567,5.7753,5.8166,5.8203,5.8391,5.869,5.8634,5.8784,5.9006,5.8215,5.7915,5.7954,5.8303,5.8353,5.8275,5.8405,5.8425,5.8294,5.8088,5.8253,5.8676,5.8731,5.9134,5.9869,5.9924,6.0184,6.072,6.1526,6.201,6.2313,6.2847,6.3169,6.3169,6.3447,6.3597,6.3615,6.3612,6.3389,6.2947,6.2836,6.2823,6.2823,6.2823,6.2823,6.2823,6.2823,6.2757,6.2656,6.2873,6.2684,6.1961,6.2155,6.2074,6.1662,6.1587,6.1587,6.1587,6.1569,6.1752,6.216,6.2155,6.23,6.2785,6.2959,6.2798,6.2447,6.2122,6.2126,6.2236,6.231,6.2456,6.2805,6.3135,6.3337,6.3356,6.3925,6.4145,6.387,6.3833,6.3759,6.3392,6.3044,6.2552,6.2059,6.1897,6.1658,6.1091,6.0915,6.0796,6.0572,6.0264,5.9774,5.9249,5.9012,5.9012,5.9012,5.9012,5.9012,5.9012,5.9012,5.9012,5.9012,5.9012,5.9199,5.9565,6.0202,6.0974,6.1544,6.2604,6.3686,6.4182,6.4567,6.4398,5.7398,5.8241,5.8353,5.8709,5.9253,5.929,5.9253,5.9214,5.9328,5.9289,5.9001,5.9119,5.9082,5.8921,5.8911,5.8828,5.8675,5.8572,5.8573,5.8607,5.8555,5.8888,5.9577,5.9632,6.0008,6.0621,6.0731,6.1003,6.1569,6.247,6.3079,6.3275,6.3903,6.4244,6.4203,6.4102,6.4102,6.4,6.3717,6.3557,6.3336,6.3051,6.2855,6.2805,6.2823,6.2823,6.2823,6.2823,6.2873,6.3051,6.3354,6.3278,6.2861,6.3038,6.2919,6.2336,6.2261,6.2242,6.2242,6.2242,6.2444,6.2986,6.3056,6.3238,6.3699,6.3691,6.3511,6.3299,6.3165,6.2947,6.2805,6.2823,6.2823,6.2823,6.2823,6.2823,6.2842,6.297,6.3172,6.2879,6.3227,6.3044,6.2879,6.2823,6.2636,6.2308,6.2184,6.2005,6.1566,6.1436,6.1436,6.1207,6.1149,6.0736,5.9774,5.9596,5.9547,5.9499,5.9482,5.9317,5.9199,5.9199,5.9012,5.9012,5.9132,5.9383,5.9873,6.0511,6.1649,6.2477,6.3539,6.4567,6.4971,6.5393,6.5613,5.8297,5.9084,5.9215,5.9178,5.9192,5.9176,5.9157,5.9154,5.9717,5.9619,5.9141,5.9622,5.9469,5.8869,5.8902,5.8754,5.8735,5.8627,5.9017,5.9751,5.9721,6.0078,6.0701,6.0757,6.1024,6.1532,6.1557,6.2082,6.3141,6.3593,6.3841,6.3859,6.4125,6.4143,6.3977,6.4061,6.4,6.3891,6.3673,6.3538,6.34,6.3147,6.2953,6.2805,6.2823,6.2823,6.2823,6.2823,6.2823,6.2823,6.3117,6.3336,6.3527,6.3693,6.3892,6.4037,6.4115,6.4134,6.4019,6.39,6.3896,6.3948,6.3742,6.3767,6.3805,6.3691,6.3511,6.326,6.3213,6.3051,6.2873,6.2805,6.2823,6.2823,6.2823,6.2823,6.2823,6.3392,6.3558,6.3117,6.3392,6.3466,6.2897,6.2823,6.2805,6.2705,6.2705,6.2636,6.2585,6.2585,6.236,6.2005,6.1824,6.1602,6.0974,6.0555,6.0615,6.0476,6.0058,5.9937,5.9696,5.9516,5.9249,5.9199,5.9613,5.9984,6.0237,6.1123,6.2604,6.3667,6.4574,6.539,6.6022,6.6179,6.6452,5.8704,5.9065,5.9083,5.91,5.9098,5.9061,5.9302,5.9726,5.9958,6.0214,6.0399,6.0635,6.0555,6.0295,6.0314,6.0041,5.9599,5.9459,5.9887,6.0678,6.0667,6.1088,6.1741,6.1661,6.1929,6.2516,6.2481,6.2708,6.3345,6.383,6.4,6.3915,6.3977,6.4019,6.3934,6.3891,6.3867,6.3823,6.3691,6.3557,6.34,6.3213,6.3069,6.2953,6.2855,6.2823,6.2823,6.2823,6.2823,6.2823,6.3069,6.326,6.3492,6.3742,6.4019,6.4244,6.4225,6.4143,6.4162,6.4143,6.4166,6.419,6.3958,6.3867,6.3958,6.3805,6.3511,6.3354,6.326,6.3117,6.2972,6.2855,6.2823,6.2823,6.2823,6.2823,6.286,6.3099,6.3135,6.2934,6.3135,6.3099,6.2952,6.2823,6.2823,6.2823,6.2823,6.2823,6.2823,6.2823,6.2705,6.2534,6.2482,6.2412,6.22,6.1304,6.0879,6.0766,6.0587,6.0519,6.0414,6.0326,6.0139,6.0392,6.0653,6.1241,6.1717,6.309,6.4387,6.522,6.6128,6.6542,6.7228,6.7243,6.7479,5.8918,5.8968,5.8982,5.8998,5.8998,5.9222,5.9611,6.0106,6.0603,6.099,6.1224,6.1459,6.144,6.1243,6.1187,6.1162,6.0874,6.0548,6.0869,6.174,6.1632,6.2036,6.2724,6.2613,6.2771,6.3168,6.3213,6.326,6.3492,6.3891,6.3977,6.3805,6.3873,6.3873,6.3805,6.378,6.3798,6.3754,6.3647,6.3557,6.34,6.327,6.3128,6.2984,6.2855,6.2823,6.2823,6.2823,6.2823,6.2805,6.2953,6.3147,6.3382,6.3724,6.3958,6.4143,6.4203,6.4102,6.4061,6.4061,6.4087,6.4272,6.3981,6.3848,6.4128,6.383,6.3538,6.34,6.326,6.3165,6.3051,6.2904,6.2823,6.2823,6.2823,6.2823,6.2823,6.2823,6.2842,6.2823,6.2842,6.2842,6.2823,6.2823,6.2823,6.2823,6.2823,6.2823,6.2823,6.2823,6.2823,6.2823,6.2755,6.2755,6.2636,6.2041,6.2112,6.2057,6.213,6.1875,6.1579,6.1431,6.1331,6.1658,6.2126,6.2705,6.3748,6.5114,6.6099,6.6877,6.7278,6.7586,6.7969,6.8192,6.8192,5.8962,5.8981,5.9018,5.8944,5.8981,5.9678,5.999,6.0282,6.1627,6.1887,6.1651,6.2083,6.2072,6.1484,6.1484,6.1794,6.2228,6.1658,6.1861,6.2766,6.2654,6.3027,6.3742,6.3543,6.34,6.3382,6.3647,6.3691,6.3602,6.3891,6.3934,6.3691,6.3786,6.3861,6.3639,6.3822,6.3847,6.3851,6.3825,6.3649,6.34,6.3317,6.3168,6.3032,6.2904,6.2805,6.2823,6.2805,6.2823,6.2823,6.2805,6.3002,6.3382,6.3698,6.3897,6.3958,6.4162,6.4143,6.3977,6.3915,6.4004,6.4214,6.3878,6.3873,6.423,6.3939,6.3628,6.3519,6.3354,6.3213,6.3165,6.2972,6.2823,6.2805,6.2805,6.2823,6.2823,6.2823,6.2823,6.2823,6.2823,6.2823,6.2823,6.2823,6.2823,6.2823,6.2823,6.2823,6.2823,6.2823,6.2823,6.2823,6.2823,6.2823,6.2823,6.2828,6.336,6.3786,6.3966,6.3909,6.3615,6.3375,6.3189,6.3387,6.389,6.4476,6.4995,6.626,6.6864,6.7566,6.8023,6.835,6.849,6.8631,6.8565,5.8902,5.8832,5.8918,5.8877,5.8907,5.9734,6.0324,6.0871,6.198,6.2575,6.2859,6.3111,6.3055,6.2914,6.2859,6.3033,6.3389,6.3015,6.3121,6.3486,6.3481,6.3593,6.3835,6.3691,6.3465,6.3354,6.3647,6.3691,6.3583,6.3786,6.3848,6.3647,6.3647,6.3944,6.4363,6.4502,6.4725,6.5218,6.4707,6.441,6.4318,6.3696,6.3326,6.3289,6.3051,6.2953,6.2935,6.2855,6.2805,6.2823,6.2823,6.3002,6.3336,6.3583,6.3742,6.3873,6.3958,6.3977,6.3867,6.3867,6.4046,6.435,6.4193,6.4368,6.4791,6.435,6.4004,6.3878,6.3591,6.3354,6.3289,6.3099,6.2953,6.2953,6.2855,6.2823,6.2823,6.2823,6.2823,6.2823,6.2823,6.2823,6.2823,6.2823,6.2823,6.2823,6.2823,6.2823,6.2823,6.2823,6.2823,6.2823,6.2823,6.2823,6.2842,6.3117,6.3723,6.442,6.4927,6.535,6.5241,6.5204,6.5039,6.5076,6.5605,6.6035,6.6579,6.7105,6.7707,6.8138,6.8549,6.8744,6.8937,6.8911,6.88,5.8888,5.8784,5.8945,5.911,5.932,6.0222,6.0855,6.1403,6.2482,6.3033,6.3193,6.3527,6.3639,6.362,6.3602,6.3647,6.371,6.3647,6.3691,6.3761,6.3805,6.383,6.3891,6.3717,6.3602,6.3492,6.3691,6.3691,6.3602,6.3761,6.378,6.3602,6.3602,6.3825,6.4382,6.4679,6.5125,6.5515,6.5422,6.5264,6.5181,6.4633,6.4309,6.4271,6.3804,6.3726,6.3898,6.3321,6.2855,6.2823,6.2873,6.3002,6.3307,6.3511,6.3628,6.3761,6.3848,6.3848,6.3736,6.378,6.4,6.4369,6.433,6.4426,6.4875,6.4593,6.4388,6.415,6.3878,6.361,6.3447,6.3242,6.3099,6.3051,6.2904,6.2823,6.2823,6.2823,6.2823,6.2805,6.2855,6.2855,6.2855,6.2873,6.2873,6.2873,6.2823,6.2823,6.2823,6.2823,6.2823,6.2823,6.2823,6.2823,6.2842,6.3337,6.4016,6.4842,6.5668,6.6095,6.6298,6.6462,6.6445,6.6427,6.6735,6.7053,6.7524,6.7937,6.8426,6.8763,6.8964,6.9009,6.9072,6.9072,6.8983,5.8955,5.8928,5.8984,5.9409,6.0133,6.1035,6.1405,6.1693,6.3096,6.3368,6.2896,6.3461,6.374,6.362,6.3602,6.3647,6.3602,6.3602,6.3602,6.3602,6.3647,6.3717,6.3805,6.378,6.3691,6.3754,6.378,6.3798,6.3754,6.3798,6.3754,6.3602,6.3602,6.3676,6.3992,6.4493,6.4902,6.5199,6.5691,6.5988,6.6017,6.5877,6.5774,6.5764,6.4972,6.4746,6.4949,6.3836,6.2953,6.2855,6.2923,6.3051,6.3194,6.3447,6.3602,6.3647,6.3805,6.378,6.371,6.371,6.3934,6.419,6.423,6.4368,6.4718,6.4753,6.4593,6.4407,6.4153,6.3944,6.3698,6.3428,6.3289,6.3165,6.2972,6.2823,6.2823,6.2823,6.2855,6.2855,6.2904,6.2984,6.2984,6.3002,6.3002,6.3002,6.2904,6.2855,6.2823,6.2805,6.2823,6.2823,6.2823,6.2823,6.2842,6.2934,6.3631,6.453,6.5555,6.6345,6.6935,6.7228,6.7375,6.7447,6.7571,6.7959,6.8284,6.8546,6.88,6.8983,6.9116,6.916,6.916,6.9116,6.9116,5.9065,5.899,5.9092,5.9592,6.0326,6.1151,6.1842,6.2417,6.3413,6.3724,6.3519,6.3712,6.3798,6.3602,6.3691,6.371,6.362,6.3602,6.3602,6.3602,6.3602,6.3583,6.3691,6.3647,6.3665,6.3647,6.3754,6.3754,6.3665,6.3754,6.371,6.3602,6.362,6.3899,6.4475,6.4679,6.5162,6.5654,6.5912,6.6108,6.6081,6.606,6.6042,6.6025,6.5623,6.5242,6.489,6.3767,6.3002,6.2805,6.2904,6.3069,6.3213,6.3447,6.3602,6.3602,6.3736,6.378,6.3647,6.3647,6.3848,6.4169,6.4209,6.4464,6.5093,6.4856,6.4822,6.4841,6.4718,6.4407,6.4109,6.3859,6.3617,6.3242,6.2953,6.2823,6.2805,6.2904,6.2953,6.2953,6.3069,6.3099,6.3147,6.3099,6.3099,6.3099,6.3002,6.2953,6.2904,6.2855,6.2823,6.2823,6.2823,6.2823,6.2823,6.2823,6.3246,6.4108,6.5099,6.6127,6.6843,6.7467,6.7577,6.7614,6.7856,6.8185,6.8498,6.8754,6.8983,6.916,6.916,6.9203,6.9203,6.916,6.916,5.9178,5.899,5.9132,5.9595,6.0308,6.121,6.1827,6.2384,6.3551,6.3747,6.3518,6.3779,6.3867,6.3691,6.3754,6.371,6.3602,6.3602,6.3602,6.3602,6.3602,6.3602,6.3602,6.3602,6.3602,6.3602,6.3691,6.3647,6.3602,6.3691,6.3647,6.3602,6.3602,6.3862,6.4215,6.4698,6.5013,6.5487,6.5885,6.6089,6.6128,6.6108,6.6108,6.597,6.5681,6.5004,6.4178,6.3862,6.3582,6.3161,6.3099,6.3194,6.3307,6.3447,6.3602,6.3602,6.3665,6.3665,6.362,6.3602,6.3717,6.3939,6.4106,6.4407,6.4756,6.4822,6.5073,6.4957,6.4976,6.4788,6.4445,6.4153,6.3774,6.3382,6.3099,6.2953,6.2904,6.3002,6.3002,6.3002,6.3051,6.3213,6.3213,6.3147,6.3194,6.3194,6.3051,6.3002,6.2953,6.2873,6.2823,6.2805,6.2823,6.2823,6.2823,6.2823,6.3172,6.3998,6.4563,6.5647,6.6694,6.7447,6.7592,6.7715,6.8047,6.842,6.8641,6.8828,6.8964,6.9097,6.916,6.9203,6.9203,6.9203,6.9203,5.9178,5.9024,5.9156,5.9545,6.023,6.1139,6.1609,6.2058,6.3439,6.3777,6.3394,6.39,6.4125,6.3867,6.3915,6.378,6.3647,6.362,6.3647,6.3691,6.3691,6.3628,6.3854,6.3628,6.3691,6.3717,6.3691,6.3761,6.3811,6.3811,6.3717,6.3761,6.3717,6.3647,6.3825,6.4308,6.4642,6.4828,6.5459,6.5794,6.5849,6.5979,6.6091,6.6017,6.5311,6.4633,6.4114,6.4123,6.415,6.3279,6.3354,6.3336,6.34,6.3511,6.3602,6.3602,6.362,6.362,6.3602,6.3602,6.3602,6.3673,6.3939,6.415,6.433,6.4701,6.4923,6.4803,6.5093,6.5041,6.4788,6.4369,6.3967,6.3617,6.341,6.3223,6.3099,6.3147,6.3099,6.2904,6.3117,6.3213,6.3213,6.3165,6.3165,6.3354,6.3194,6.3099,6.3051,6.3002,6.2904,6.2855,6.2855,6.2823,6.2823,6.2823,6.3319,6.3957,6.4209,6.5087,6.6305,6.7003,6.7347,6.7668,6.8111,6.845,6.8717,6.8855,6.899,6.9053,6.916,6.9203,6.9203,6.9203,6.9203,5.9103,5.9159,5.9098,5.9542,6.0252,6.0457,6.1387,6.2862,6.3312,6.382,6.4325,6.4742,6.4609,6.4212,6.4172,6.4046,6.3823,6.3717,6.3761,6.4023,6.3717,6.3986,6.4193,6.3902,6.3786,6.3981,6.4046,6.4172,6.4331,6.4253,6.4292,6.4046,6.3939,6.3915,6.3721,6.3806,6.388,6.401,6.4688,6.5059,6.5199,6.5663,6.5942,6.5868,6.5181,6.4753,6.4577,6.467,6.4355,6.3734,6.3447,6.3447,6.3447,6.3557,6.362,6.3602,6.3602,6.3602,6.3602,6.3602,6.3602,6.3602,6.3717,6.3873,6.4209,6.433,6.4538,6.4664,6.5041,6.5188,6.5073,6.4769,6.4389,6.4072,6.3967,6.3774,6.3428,6.3354,6.3307,6.3289,6.3354,6.3511,6.353,6.3354,6.3354,6.3511,6.3354,6.3194,6.3147,6.3099,6.3002,6.2904,6.2953,6.2972,6.2923,6.2978,6.3382,6.3781,6.4064,6.4617,6.5856,6.6463,6.6731,6.7418,6.8216,6.8546,6.8855,6.9009,6.9097,6.916,6.9203,6.9203,6.9203,6.9203,6.9203,5.9028,5.9046,5.8986,5.9185,5.9629,6.0002,6.0823,6.2051,6.2989,6.3712,6.4386,6.4863,6.4894,6.4593,6.4557,6.4426,6.4232,6.4153,6.4232,6.4369,6.4232,6.435,6.4556,6.4331,6.4212,6.423,6.4209,6.4251,6.4193,6.4232,6.4027,6.392,6.3939,6.3786,6.3647,6.3602,6.3639,6.3676,6.4,6.4242,6.4326,6.4632,6.4919,6.4883,6.4493,6.4252,6.4196,6.4233,6.401,6.3713,6.3602,6.3557,6.3492,6.3538,6.3602,6.3602,6.3602,6.3602,6.3602,6.3602,6.3602,6.3602,6.3602,6.3717,6.3939,6.4046,6.4251,6.4483,6.4753,6.499,6.5041,6.5073,6.4788,6.4538,6.4445,6.4232,6.3878,6.361,6.3465,6.3354,6.34,6.3447,6.3447,6.34,6.3465,6.3511,6.326,6.3099,6.3147,6.3099,6.3051,6.3002,6.3051,6.3069,6.3021,6.3149,6.3474,6.3707,6.3841,6.4512,6.5496,6.5859,6.6106,6.6975,6.7881,6.8651,6.8964,6.9097,6.9103,6.9203,6.9203,6.9203,6.9203,6.9203,6.9203,5.9045,5.8964,5.893,5.8849,5.8869,5.9611,6.0283,6.0974,6.2503,6.3528,6.4081,6.4821,6.5192,6.5009,6.4962,6.4875,6.4699,6.4664,6.4628,6.4788,6.4628,6.4769,6.489,6.4822,6.4666,6.4368,6.4445,6.433,6.4212,6.3981,6.4311,6.3963,6.3939,6.3986,6.3835,6.3717,6.3761,6.378,6.3702,6.3713,6.3695,6.3769,6.3806,6.3806,6.3788,6.3732,6.3788,6.3862,6.3788,6.3639,6.391,6.3891,6.3736,6.3647,6.3647,6.3647,6.3647,6.3647,6.3691,6.3691,6.3717,6.3647,6.3691,6.3647,6.3717,6.3854,6.4004,6.4193,6.4426,6.4803,6.4803,6.5188,6.5156,6.4923,6.4803,6.4611,6.4311,6.3963,6.3749,6.3354,6.34,6.3492,6.3447,6.34,6.3465,6.3465,6.3213,6.3099,6.3147,6.3165,6.3147,6.3099,6.3117,6.3165,6.3117,6.3136,6.3479,6.3611,6.3659,6.4195,6.4979,6.5327,6.5652,6.6601,6.7477,6.8137,6.8615,6.8622,6.8722,6.901,6.9203,6.9203,6.9203,6.9203,6.9203,5.9309,5.9305,5.9014,5.8899,5.8911,5.9231,5.9963,6.1046,6.2323,6.3493,6.4461,6.5359,6.5589,6.5416,6.5268,6.5041,6.4856,6.4856,6.4976,6.5105,6.499,6.5041,6.5456,6.528,6.5156,6.5124,6.5112,6.5144,6.5268,6.5485,6.4976,6.4995,6.4875,6.4753,6.4389,6.4272,6.4069,6.4023,6.3823,6.3657,6.3647,6.3602,6.3602,6.3602,6.3602,6.3602,6.3769,6.4196,6.4308,6.3814,6.4612,6.4631,6.4256,6.3939,6.3897,6.3897,6.3873,6.383,6.3891,6.3981,6.3897,6.3786,6.3897,6.3897,6.3742,6.3698,6.3878,6.4027,6.4407,6.4856,6.5188,6.5504,6.5561,6.5348,6.5188,6.5041,6.4718,6.4501,6.4214,6.3749,6.3654,6.3583,6.3565,6.3519,6.3492,6.3492,6.3354,6.3307,6.3354,6.3354,6.3307,6.3213,6.3213,6.3213,6.3165,6.3213,6.3371,6.3484,6.353,6.353,6.4225,6.4679,6.5291,6.5822,6.6463,6.7048,6.7509,6.7922,6.8403,6.8647,6.8897,6.9103,6.9203,6.9203,6.9203,5.9589,5.9566,5.944,5.9365,5.9384,5.9472,5.9947,6.0784,6.2165,6.3215,6.4129,6.5243,6.5846,6.5728,6.5655,6.5485,6.5359,6.5329,6.5437,6.5513,6.5456,6.5466,6.5897,6.5663,6.5616,6.5589,6.5608,6.5456,6.528,6.5219,6.5219,6.5041,6.499,6.4871,6.4734,6.4519,6.4464,6.435,6.4112,6.3929,6.3891,6.3761,6.3602,6.3602,6.3602,6.3602,6.3695,6.397,6.4101,6.391,6.4503,6.4648,6.4519,6.4464,6.4426,6.4331,6.4253,6.4232,6.4291,6.4407,6.4369,6.4253,6.4369,6.4369,6.4214,6.4232,6.4113,6.4292,6.4575,6.5073,6.5268,6.5682,6.5755,6.5663,6.5589,6.5407,6.5156,6.5022,6.4682,6.4251,6.4069,6.4004,6.3897,6.3767,6.3583,6.3492,6.3492,6.3492,6.3538,6.3447,6.3354,6.3354,6.3307,6.3354,6.3354,6.3354,6.3373,6.3447,6.3492,6.3492,6.3585,6.4167,6.4316,6.4549,6.5217,6.6071,6.6616,6.7086,6.7698,6.821,6.8341,6.8553,6.8972,6.9203,6.9203,5.99,5.991,5.9815,5.9798,5.9809,5.9899,6.0042,6.0571,6.1964,6.2885,6.3507,6.4859,6.5686,6.584,6.5878,6.5853,6.5878,6.5853,6.5853,6.5853,6.5827,6.5878,6.5878,6.5878,6.5853,6.5808,6.5808,6.5561,6.5268,6.5137,6.499,6.5073,6.499,6.4957,6.5009,6.4923,6.4837,6.4704,6.448,6.4319,6.423,6.4009,6.3811,6.3811,6.3792,6.3835,6.3939,6.3947,6.4033,6.4106,6.4386,6.4632,6.4723,6.5052,6.5163,6.4976,6.4837,6.4734,6.4734,6.4803,6.4788,6.4592,6.4753,6.4769,6.4664,6.4592,6.4628,6.4769,6.5041,6.5268,6.5348,6.5682,6.5853,6.5878,6.5853,6.5781,6.5561,6.5407,6.5299,6.4962,6.4612,6.4388,6.4311,6.4193,6.4031,6.3854,6.3811,6.3565,6.361,6.3447,6.34,6.34,6.3465,6.3511,6.3511,6.3511,6.3511,6.3511,6.3557,6.3557,6.3557,6.3713,6.3806,6.3973,6.4491,6.5307,6.5769,6.6187,6.6687,6.7123,6.7542,6.796,6.8422,6.8935,6.9203,6.0233,6.0201,5.9945,5.9791,5.9862,6.0122,6.0246,6.0502,6.1691,6.2622,6.3358,6.4339,6.5224,6.5763,6.5878,6.5878,6.5878,6.5878,6.5878,6.5878,6.5878,6.5878,6.5878,6.5878,6.5878,6.5878,6.5878,6.5853,6.5635,6.5616,6.569,6.5663,6.5616,6.5709,6.5561,6.5348,6.5238,6.5168,6.4856,6.4643,6.459,6.4533,6.45,6.4482,6.4482,6.4445,6.4389,6.4272,6.4291,6.4538,6.4647,6.4875,6.5207,6.558,6.5755,6.5608,6.5288,6.4894,6.4981,6.5124,6.5105,6.499,6.5073,6.499,6.4923,6.4837,6.4837,6.4734,6.5073,6.5348,6.5407,6.5663,6.5808,6.5878,6.5878,6.5878,6.5781,6.5663,6.5589,6.5532,6.5194,6.4962,6.4753,6.4647,6.4501,6.4272,6.4087,6.3878,6.3698,6.3565,6.3447,6.3447,6.3511,6.3557,6.3557,6.3602,6.3602,6.3602,6.3602,6.3602,6.3602,6.3602,6.3602,6.3825,6.4268,6.4491,6.4953,6.5352,6.5695,6.615,6.6705,6.7254,6.7848,6.836,6.8803,6.0589,6.0569,6.0435,6.0359,6.0367,6.0533,6.0572,6.0789,6.1656,6.2551,6.3358,6.4224,6.5089,6.5763,6.5878,6.5878,6.5878,6.5878,6.5878,6.5878,6.5878,6.5878,6.5878,6.5878,6.5878,6.5878,6.5878,6.5878,6.5878,6.5878,6.5878,6.5878,6.5878,6.5853,6.5878,6.5755,6.5663,6.5522,6.5263,6.4908,6.4756,6.4704,6.4699,6.4699,6.4734,6.4734,6.4699,6.4666,6.4649,6.4841,6.4976,6.5207,6.5427,6.5682,6.5878,6.5872,6.5635,6.5504,6.5504,6.5561,6.5485,6.5456,6.5513,6.5542,6.5388,6.5329,6.5359,6.5407,6.5299,6.5407,6.5513,6.5561,6.5709,6.5801,6.5878,6.5878,6.5878,6.5878,6.5808,6.5781,6.5755,6.5456,6.5188,6.4957,6.4769,6.4611,6.4426,6.4272,6.3986,6.3698,6.3583,6.3492,6.3557,6.3557,6.3557,6.3602,6.3602,6.3602,6.3602,6.3602,6.3602,6.3602,6.3602,6.3602,6.3806,6.4056,6.4268,6.4417,6.4722,6.5296,6.5907,6.64,6.6874,6.7105,6.7542,6.08,6.08,6.08,6.08,6.08,6.08,6.0781,6.0877,6.1454,6.2224,6.3128,6.4109,6.5089,6.5743,6.5878,6.5878,6.5878,6.5878,6.5878,6.5878,6.5878,6.5878,6.5878,6.5878,6.5878,6.5878,6.5878,6.5878,6.5878,6.5878,6.5878,6.5878,6.5878,6.5878,6.5878,6.5853,6.5853,6.5808,6.5569,6.5322,6.5119,6.5042,6.5035,6.5022,6.5009,6.499,6.499,6.4942,6.4995,6.5207,6.5257,6.5427,6.5627,6.5781,6.5878,6.5897,6.5781,6.5808,6.5781,6.5808,6.5878,6.5878,6.5878,6.5808,6.5833,6.5878,6.5878,6.5781,6.5635,6.5682,6.5755,6.5616,6.5709,6.5827,6.5878,6.5878,6.5878,6.5878,6.5878,6.5853,6.5827,6.5853,6.5561,6.528,6.5073,6.4923,6.4788,6.4647,6.4369,6.4027,6.3986,6.3925,6.3811,6.3811,6.3786,6.3742,6.3717,6.3647,6.3647,6.3602,6.3647,6.3602,6.3602,6.3602,6.3602,6.3695,6.3944,6.3825,6.3788,6.4435,6.5046,6.5426,6.5807,6.6056,6.6612,6.08,6.08,6.08,6.08,6.08,6.08,6.08,6.08,6.0877,6.1454,6.2474,6.3853,6.5064,6.5667,6.584,6.5878,6.5878,6.5878,6.5878,6.5878,6.5878,6.5878,6.5878,6.5878,6.5878,6.5878,6.5878,6.5878,6.5878,6.5878,6.5878,6.5878,6.5878,6.5878,6.5878,6.5878,6.5878,6.5878,6.5781,6.5781,6.5678,6.569,6.569,6.5736,6.5762,6.5808,6.5781,6.5456,6.5378,6.5663,6.5532,6.5532,6.5755,6.5853,6.5878,6.5878,6.5878,6.5878,6.5878,6.5878,6.5878,6.5878,6.5878,6.5878,6.5878,6.5878,6.5878,6.5878,6.5709,6.5781,6.5853,6.5872,6.5755,6.5853,6.5878,6.5878,6.5878,6.5878,6.5878,6.5878,6.5878,6.5878,6.5878,6.5589,6.5437,6.5299,6.5073,6.4976,6.4769,6.4501,6.4501,6.4464,6.4232,6.4172,6.4109,6.4069,6.3986,6.3878,6.3854,6.3742,6.3673,6.3628,6.3602,6.3691,6.3736,6.3647,6.3602,6.3684,6.3758,6.3888,6.4231,6.4685,6.5184,6.5583,6.6231,6.08,6.08,6.08,6.08,6.08,6.08,6.08,6.08,6.08,6.1281,6.2204,6.3795,6.4776,6.5147,6.5724,6.5878,6.5878,6.5878,6.5878,6.5878,6.5878,6.5878,6.5878,6.5878,6.5878,6.5878,6.5878,6.5878,6.5878,6.5878,6.5878,6.5878,6.5878,6.5878,6.5878,6.5878,6.5878,6.5878,6.5878,6.5878,6.5878,6.5878,6.5878,6.5878,6.5878,6.5878,6.5853,6.5736,6.5781,6.5808,6.5709,6.5781,6.5853,6.5878,6.5878,6.5878,6.5878,6.5878,6.5878,6.5878,6.5878,6.5878,6.5878,6.5878,6.5878,6.5878,6.5878,6.5853,6.5709,6.5709,6.5872,6.5709,6.5561,6.5781,6.5917,6.5974,6.5994,6.6051,6.6051,6.6128,6.5994,6.5878,6.5878,6.5853,6.5762,6.5663,6.5456,6.5268,6.5105,6.4938,6.4923,6.4856,6.4666,6.4557,6.4483,6.4369,6.4272,6.4209,6.4162,6.4135,6.4126,6.3647,6.3647,6.3736,6.383,6.3854,6.3811,6.3717,6.3684,6.3777,6.3851,6.3981,6.4473,6.5009,6.5564,6.08,6.08,6.08,6.08,6.08,6.08,6.08,6.08,6.08,6.1281,6.2166,6.3397,6.4032,6.4378,6.5089,6.5455,6.5532,6.5705,6.5859,6.5878,6.5878,6.5878,6.5878,6.5878,6.5878,6.5878,6.5878,6.5878,6.5878,6.5878,6.5878,6.5878,6.5878,6.5878,6.5878,6.5878,6.5878,6.5878,6.5878,6.5878,6.5878,6.5878,6.5878,6.5878,6.5878,6.5878,6.5878,6.5853,6.5853,6.5878,6.5853,6.5878,6.5878,6.5878,6.5878,6.5878,6.5878,6.5878,6.5878,6.5878,6.5878,6.5878,6.5878,6.5878,6.5878,6.5878,6.5878,6.5897,6.5663,6.5589,6.5897,6.5728,6.5635,6.5897,6.6359,6.6455,6.6436,6.6474,6.6417,6.6417,6.6167,6.5878,6.5878,6.5878,6.5853,6.5808,6.5709,6.5561,6.5532,6.5378,6.5268,6.5188,6.5041,6.4942,6.489,6.4967,6.5105,6.5106,6.5048,6.4935,6.474,6.4248,6.3939,6.4172,6.4232,6.4131,6.4131,6.4153,6.392,6.3647,6.3721,6.375,6.387,6.4324,6.4536,6.08,6.08,6.08,6.08,6.08,6.08,6.08,6.08,6.08,6.1243,6.1916,6.2305,6.2748,6.3416,6.4238,6.4686,6.4974,6.5474,6.582,6.5859,6.5878,6.5878,6.5878,6.5878,6.5878,6.5878,6.5878,6.5878,6.5878,6.5878,6.5878,6.5878,6.5878,6.5878,6.5878,6.5878,6.5878,6.5878,6.5878,6.5878,6.5878,6.5878,6.5878,6.5878,6.5878,6.5878,6.5878,6.5878,6.5878,6.5878,6.5878,6.5878,6.5878,6.5878,6.5878,6.5878,6.5878,6.5878,6.5878,6.5878,6.5878,6.5878,6.5878,6.5878,6.5878,6.5878,6.5878,6.5897,6.5808,6.5808,6.5897,6.5897,6.5872,6.5987,6.6436,6.6744,6.6705,6.6513,6.6397,6.6513,6.6205,6.5878,6.5878,6.5878,6.5878,6.5878,6.5878,6.5853,6.5801,6.5709,6.5561,6.5513,6.5378,6.5329,6.5352,6.5756,6.5942,6.5983,6.5872,6.5684,6.5383,6.4879,6.4708,6.472,6.4611,6.4426,6.4538,6.4682,6.4331,6.3986,6.3673,6.3639,6.3639,6.3769,6.4149,6.08,6.08,6.08,6.08,6.08,6.08,6.08,6.08,6.0819,6.0973,6.132,6.1786,6.219,6.2704,6.3339,6.4012,6.457,6.4743,6.5186,6.584,6.582,6.5878,6.5878,6.5878,6.5878,6.5878,6.5878,6.5878,6.5878,6.5878,6.5878,6.5878,6.5878,6.5878,6.5878,6.5878,6.5878,6.5878,6.5878,6.5878,6.5878,6.5878,6.5878,6.5878,6.5878,6.5878,6.5878,6.5878,6.5878,6.5878,6.5878,6.5878,6.5878,6.5878,6.5878,6.5878,6.5878,6.5878,6.5878,6.5878,6.5878,6.5878,6.5878,6.5878,6.5878,6.5878,6.5878,6.5878,6.5878,6.5878,6.5897,6.5897,6.5897,6.5897,6.6224,6.659,6.6609,6.632,6.6186,6.6494,6.6417,6.6051,6.5917,6.5897,6.5878,6.5878,6.5878,6.5878,6.5853,6.5853,6.5781,6.5781,6.5736,6.5709,6.5857,6.6602,6.6942,6.6992,6.6688,6.6306,6.5917,6.5584,6.5185,6.5079,6.4909,6.4769,6.4923,6.4976,6.4682,6.4369,6.405,6.3923,6.3991,6.4089,6.4289,6.08,6.08,6.08,6.08,6.08,6.08,6.08,6.08,6.08,6.08,6.0935,6.142,6.1651,6.1901,6.2517,6.3075,6.3762,6.407,6.4628,6.5359,6.5436,6.559,6.5782,6.5859,6.5878,6.5878,6.5878,6.5878,6.5878,6.5878,6.5878,6.5878,6.5878,6.5878,6.5878,6.5878,6.5878,6.5878,6.5878,6.5878,6.5878,6.5878,6.5878,6.5878,6.5878,6.5878,6.5878,6.5878,6.5878,6.5878,6.5878,6.5878,6.5878,6.5878,6.5878,6.5878,6.5878,6.5878,6.5878,6.5878,6.5878,6.5878,6.5878,6.5878,6.5878,6.5878,6.5878,6.5878,6.5878,6.5878,6.5878,6.5878,6.5897,6.5897,6.6244,6.6609,6.7186,6.6936,6.6917,6.7148,6.6801,6.6417,6.5936,6.5917,6.5878,6.5878,6.5878,6.5878,6.5878,6.5878,6.6032,6.6205,6.6359,6.6506,6.6961,6.776,6.8029,6.8006,6.7667,6.7265,6.6921,6.6651,6.6039,6.5465,6.5367,6.5299,6.5329,6.5268,6.5009,6.4753,6.4445,6.4383,6.4383,6.4599,6.4793,6.08,6.08,6.08,6.08,6.08,6.08,6.08,6.08,6.08,6.08,6.0819,6.0858,6.0954,6.1031,6.1728,6.217,6.2435,6.3012,6.3762,6.4359,6.4551,6.5013,6.5397,6.5628,6.559,6.5743,6.5859,6.5878,6.5878,6.5878,6.5878,6.5878,6.5878,6.5878,6.5878,6.5878,6.5878,6.5878,6.5878,6.5878,6.5878,6.5878,6.5878,6.5878,6.5878,6.5878,6.5878,6.5878,6.5878,6.5878,6.5878,6.5878,6.5878,6.5878,6.5878,6.5878,6.5878,6.5878,6.5878,6.5878,6.5878,6.5878,6.5878,6.5878,6.5878,6.5878,6.5878,6.5878,6.5878,6.5878,6.5878,6.5878,6.5878,6.6147,6.6474,6.7128,6.7955,6.8109,6.8129,6.7936,6.7359,6.6821,6.607,6.5878,6.5878,6.5878,6.5878,6.5878,6.5878,6.5878,6.6147,6.6782,6.6994,6.734,6.7917,6.8417,6.859,6.8417,6.8686,6.8424,6.8087,6.7453,6.6554,6.5978,6.5904,6.5827,6.5663,6.5532,6.5378,6.5124,6.4942,6.4779,6.4804,6.5294,6.5596,6.08,6.08,6.08,6.08,6.08,6.08,6.08,6.08,6.08,6.08,6.08,6.08,6.08,6.0839,6.1069,6.1555,6.1954,6.2397,6.2954,6.3397,6.3685,6.3858,6.4224,6.4686,6.4897,6.5186,6.5436,6.5667,6.5801,6.582,6.584,6.5878,6.5878,6.5878,6.5878,6.5878,6.5878,6.5878,6.5878,6.5878,6.5878,6.5878,6.5878,6.5878,6.5878,6.5878,6.5878,6.5878,6.5878,6.5878,6.5878,6.5878,6.5878,6.5878,6.5878,6.5878,6.5878,6.5878,6.5878,6.5878,6.5878,6.5878,6.5878,6.5878,6.5878,6.5878,6.5878,6.5878,6.5878,6.5878,6.5878,6.5878,6.5878,6.607,6.6397,6.6917,6.7686,6.8109,6.8186,6.8648,6.8071,6.6859,6.6147,6.5878,6.5878,6.5878,6.5878,6.5878,6.5878,6.5878,6.6244,6.6898,6.7417,6.7686,6.809,6.8571,6.8744,6.8879,6.9186,6.9263,6.8698,6.7948,6.6955,6.6359,6.609,6.5955,6.5853,6.5736,6.5589,6.5709,6.5561,6.5321,6.5266,6.5779,6.6011,6.08,6.08,6.08,6.08,6.08,6.0823,6.0823,6.08,6.08,6.08,6.08,6.08,6.08,6.08,6.0858,6.1089,6.1512,6.1589,6.2031,6.2666,6.282,6.3147,6.3455,6.3762,6.4012,6.4339,6.4512,6.4666,6.4993,6.534,6.5436,6.5878,6.5878,6.5878,6.5878,6.5878,6.5878,6.5878,6.5878,6.5878,6.5878,6.5878,6.5878,6.5878,6.5878,6.5878,6.5878,6.5878,6.5878,6.5878,6.5878,6.5878,6.5878,6.5878,6.5878,6.5878,6.5878,6.5878,6.5878,6.5878,6.5878,6.5878,6.5878,6.5878,6.5878,6.5878,6.5878,6.5878,6.5878,6.5878,6.5878,6.5878,6.5878,6.5897,6.6205,6.6513,6.7071,6.7628,6.8282,6.9033,6.834,6.7013,6.632,6.6051,6.5878,6.5878,6.5878,6.5878,6.5878,6.5878,6.632,6.6936,6.7494,6.7955,6.8379,6.8917,6.9398,6.9687,6.9917,6.9821,6.9263,6.8494,6.7552,6.6782,6.6147,6.6013,6.5878,6.5878,6.5808,6.5878,6.5878,6.5693,6.5714,6.6192,6.6227,6.08,6.0781,6.0823,6.085,6.085,6.0916,6.0916,6.0846,6.0866,6.0819,6.08,6.08,6.08,6.0823,6.0823,6.0843,6.1058,6.1097,6.1385,6.2016,6.2016,6.2267,6.2666,6.3185,6.3224,6.3224,6.3435,6.3858,6.3705,6.4128,6.4897,6.5724,6.5686,6.5686,6.5859,6.5878,6.5878,6.5878,6.5878,6.5878,6.5878,6.5878,6.5878,6.5878,6.5878,6.5878,6.5878,6.5878,6.5878,6.5878,6.5878,6.5878,6.5878,6.5878,6.5878,6.5878,6.5878,6.5878,6.5878,6.5878,6.5878,6.5878,6.5878,6.5878,6.5878,6.5878,6.5878,6.5878,6.5878,6.5878,6.5878,6.5878,6.5878,6.5878,6.6051,6.6474,6.7032,6.7763,6.8667,6.9129,6.8667,6.7378,6.6417,6.6167,6.6128,6.6013,6.5878,6.5878,6.5878,6.5878,6.632,6.6936,6.7648,6.8244,6.8879,6.9475,7.0244,7.0591,7.0494,7.011,6.9321,6.8725,6.8193,6.709,6.6032,6.5974,6.5878,6.5878,6.5878,6.5878,6.5878,6.5878,6.6096,6.6389,6.6362,6.08,6.0804,6.0918,6.1022,6.1111,6.1128,6.1126,6.1106,6.1111,6.0977,6.0839,6.0823,6.0846,6.0872,6.085,6.0891,6.0933,6.0911,6.1026,6.1216,6.127,6.1439,6.1608,6.2166,6.2339,6.2608,6.2878,6.3128,6.3267,6.357,6.4032,6.4801,6.4941,6.5134,6.5653,6.5692,6.5743,6.5749,6.5878,6.5878,6.5878,6.5878,6.5878,6.5878,6.5878,6.5878,6.5878,6.5878,6.5878,6.5878,6.5878,6.5878,6.5878,6.5878,6.5878,6.5878,6.5878,6.5878,6.5878,6.5878,6.5878,6.5878,6.5878,6.5878,6.5878,6.5878,6.5878,6.5878,6.5878,6.5878,6.5878,6.5878,6.5878,6.5878,6.5917,6.6455,6.6994,6.7936,6.8936,6.8956,6.8706,6.7898,6.6859,6.6417,6.6359,6.6205,6.5974,6.5878,6.5878,6.5917,6.6224,6.6859,6.7821,6.8513,6.9129,6.986,7.0533,7.0417,7.0129,6.9744,6.9321,6.8436,6.7552,6.6686,6.5897,6.5878,6.5878,6.5878,6.5878,6.5878,6.5878,6.5878,6.5878,6.6096,6.6122,6.0904,6.0897,6.1041,6.1137,6.1203,6.1244,6.125,6.124,6.1254,6.1155,6.1021,6.0955,6.0888,6.0938,6.0894,6.0914,6.0933,6.0891,6.0908,6.0866,6.0891,6.092,6.1131,6.1408,6.1501,6.1809,6.2044,6.2294,6.2756,6.2891,6.3242,6.395,6.4143,6.4374,6.4951,6.512,6.537,6.5351,6.5634,6.5807,6.5826,6.5859,6.5878,6.5878,6.5878,6.5878,6.5878,6.5878,6.5878,6.5878,6.5878,6.5878,6.5878,6.5878,6.5878,6.5878,6.5878,6.5878,6.5878,6.5878,6.5878,6.5878,6.5878,6.5878,6.5878,6.5878,6.5878,6.5878,6.5878,6.5878,6.5878,6.5878,6.5878,6.5878,6.5974,6.6301,6.6821,6.7513,6.8571,6.936,6.8975,6.834,6.7455,6.6936,6.6763,6.6109,6.5917,6.5878,6.5878,6.5878,6.6205,6.6686,6.759,6.8263,6.8706,6.9629,7.0667,7.036,6.9879,6.936,6.8879,6.7859,6.6898,6.634,6.5974,6.5878,6.5878,6.5878,6.5878,6.5878,6.5878,6.5878,6.5878,6.5878,6.5936,6.1111,6.1079,6.1195,6.1249,6.1261,6.1322,6.1362,6.1357,6.1345,6.1341,6.1324,6.1154,6.1061,6.1001,6.0939,6.0894,6.0938,6.1002,6.0941,6.0938,6.092,6.0962,6.1,6.1055,6.1213,6.125,6.1364,6.169,6.2095,6.2152,6.2442,6.3158,6.337,6.3425,6.3695,6.4119,6.4559,6.4733,6.5018,6.5438,6.562,6.582,6.5859,6.5878,6.5878,6.5878,6.5878,6.5878,6.5878,6.5878,6.5878,6.5878,6.5878,6.5878,6.5878,6.5878,6.5878,6.5878,6.5878,6.5878,6.5878,6.5878,6.5878,6.5878,6.5878,6.5878,6.5878,6.5878,6.5878,6.5878,6.5878,6.5878,6.5878,6.5897,6.6013,6.6205,6.6705,6.7167,6.8186,6.9321,6.9109,6.8532,6.809,6.7552,6.7013,6.634,6.5936,6.5897,6.5878,6.5878,6.6032,6.6494,6.7167,6.7763,6.8167,6.934,7.0494,7.0514,7.0014,6.9263,6.8494,6.7686,6.6994,6.6455,6.6147,6.5974,6.5897,6.5878,6.5878,6.5878,6.5878,6.5878,6.5878,6.5878,6.5878,6.1311,6.1406,6.1419,6.1486,6.1584,6.1621,6.1621,6.1618,6.1602,6.1609,6.1556,6.1471,6.1362,6.1266,6.125,6.1194,6.1169,6.1197,6.1217,6.1223,6.1148,6.1158,6.1178,6.1184,6.1206,6.1229,6.1234,6.1367,6.166,6.1544,6.1754,6.2565,6.2504,6.2811,6.3522,6.3778,6.3864,6.4018,6.4134,6.4444,6.4659,6.5057,6.5826,6.5878,6.5878,6.5878,6.5878,6.5878,6.5878,6.5878,6.5903,6.5928,6.5933,6.5933,6.5933,6.5933,6.5909,6.5903,6.5903,6.5878,6.5878,6.5878,6.5878,6.5878,6.5878,6.5878,6.5878,6.5878,6.5878,6.5878,6.5878,6.5878,6.5878,6.5878,6.5955,6.632,6.6744,6.709,6.7667,6.8571,6.9052,6.8674,6.8385,6.7962,6.7674,6.6981,6.625,6.6153,6.5897,6.5878,6.5878,6.632,6.6821,6.7051,6.7417,6.8975,7.0033,7.0187,7.0264,6.9725,6.8936,6.7802,6.7128,6.6705,6.6282,6.6032,6.5974,6.5878,6.5878,6.5878,6.5878,6.5878,6.5878,6.5878,6.5878]},{"header":{"parameterUnit":"m.s-1","parameterCategory":1,"la1":31.0,"la2":29.5877,"lo1":-88.7671,"lo2":-86.6584,"dx":0.0162,"dy":0.0185,"nx":115,"ny":88,"refTime":"2022-12-15T06:00:00:Z","depth":0,"parameterNumber":3,"parameterNumberName":"V-component_of_WINDS"},"data":[0.0,0.0,0.0,0.0,0.0,0.0,0.0,0.0,0.0,0.0,0.0,0.0,0.0,0.0,0.0,0.0,0.0,0.0,0.0,0.0,0.0,0.0,0.0,0.0,0.0,0.0,0.0,0.0,0.0,0.0,0.0,0.0,0.0,0.0,0.0,0.0,0.0,0.0,0.0,0.0,0.0,0.0,0.0,0.0,0.0,0.0,0.0,0.0,0.0,0.0,0.0,0.0,0.0,0.0,0.0,0.0,0.0,0.0,0.0,0.0,0.0,0.0,0.0,0.0,0.0,0.0,0.0,0.0,0.0,0.0,0.0,0.0,0.0,0.0,0.0,0.0,0.0,0.0,0.0,0.0,0.0,0.0,0.0,0.0,0.0,0.0,0.0,0.0,0.0,0.0,0.0,0.0,0.0,0.0,0.0,0.0,0.0,0.0,0.0,0.0,0.0,0.0,0.0,0.0,0.0,0.0,0.0,0.0,0.0,0.0,0.0,0.0,0.0,0.0,0.0,0.0,0.0,0.0,0.0,0.0,0.0,0.0,0.0,0.0,0.0,0.0,0.0,0.0,0.0,0.0,0.0,0.0,0.0,0.0,0.0,0.0,0.0,0.0,0.0,0.0,0.0,0.0,0.0,0.0,0.0,0.0,0.0,0.0,0.0,0.0,0.0,0.0,0.0,0.0,0.0,0.0,0.0,0.0,0.0,0.0,0.0,0.0,0.0,0.0,0.0,0.0,0.0,0.0,0.0,0.0,0.0,0.0,0.0,0.0,0.0,0.0,0.0,0.0,0.0,0.0,0.0,0.0,0.0,0.0,0.0,0.0,0.0,0.0,0.0,0.0,0.0,0.0,0.0,0.0,0.0,0.0,0.0,0.0,0.0,0.0,0.0,0.0,0.0,0.0,0.0,0.0,0.0,0.0,0.0,0.0,0.0,0.0,0.0,0.0,0.0,0.0,0.0,0.0,0.0,0.0,0.0,0.0,0.0,0.0,0.0,0.0,0.0,0.0,0.0,0.0,0.0,0.0,0.0,0.0,0.0,0.0,0.0,0.0,0.0,0.0,0.0,0.0,0.0,0.0,0.0,0.0,0.0,0.0,0.0,0.0,0.0,0.0,0.0,0.0,0.0,0.0,0.0,0.0,0.0,0.0,0.0,0.0,0.0,0.0,0.0,0.0,0.0,0.0,0.0,0.0,0.0,0.0,0.0,0.0,0.0,0.0,0.0,0.0,0.0,0.0,0.0,0.0,0.0,0.0,0.0,0.0,0.0,0.0,0.0,0.0,0.0,0.0,0.0,0.0,0.0,0.0,0.0,0.0,0.0,0.0,0.0,0.0,0.0,0.0,0.0,0.0,0.0,0.0,0.0,0.0,0.0,0.0,0.0,0.0,0.0,0.0,0.0,0.0,0.0,0.0,0.0,0.0,0.0,0.0,0.0,0.0,0.0,0.0,0.0,0.0,0.0,0.0,0.0,0.0,0.0,0.0,0.0,0.0,0.0,0.0,0.0,0.0,0.0,0.0,0.0,0.0,0.0,0.0,0.0,0.0,0.0,0.0,0.0,0.0,0.0,0.0,0.0,0.0,0.0,0.0,0.0,0.0,0.0,0.0,0.0,0.0,0.0,0.0,0.0,0.0,0.0,0.0,0.0,0.0,0.0,0.0,0.0,0.0,0.0,0.0,0.0,0.0,0.0,0.0,0.0,0.0,0.0,0.0,0.0,0.0,0.0,0.0,0.0,0.0,0.0,0.0,0.0,0.0,0.0,0.0,0.0,0.0,0.0,0.0,0.0,0.0,0.0,0.0,0.0,0.0,0.0,0.0,0.0,0.0,0.0,0.0,0.0,0.0,0.0,0.0,0.0,0.0,0.0,0.0,0.0,0.0,0.0,0.0,0.0,0.0,0.0,0.0,0.0,0.0,0.0,0.0,0.0,0.0,0.0,0.0,0.0,0.0,0.0,0.0,0.0,0.0,0.0,0.0,0.0,0.0,0.0,0.0,0.0,0.0,0.0,0.0,0.0,0.0,0.0,0.0,0.0,0.0,0.0,0.0,0.0,0.0,0.0,0.0,0.0,0.0,0.0,0.0,0.0,0.0,0.0,0.0,0.0,0.0,0.0,0.0,0.0,0.0,0.0,0.0,0.0,0.0,0.0,0.0,0.0,0.0,0.0,0.0,0.0,0.0,0.0,0.0,0.0,0.0,0.0,0.0,0.0,0.0,0.0,0.0,0.0,0.0,0.0,0.0,0.0,0.0,0.0,0.0,0.0,0.0,0.0,0.0,0.0,0.0,0.0,0.0,0.0,0.0,0.0,0.0,0.0,0.0,0.0,0.0,0.0,0.0,0.0,0.0,0.0,0.0,0.0,0.0,0.0,0.0,0.0,0.0,0.0,0.0,0.0,0.0,0.0,0.0,0.0,0.0,0.0,0.0,0.0,0.0,0.0,0.0,0.0,0.0,0.0,0.0,0.0,0.0,0.0,0.0,0.0,0.0,0.0,0.0,0.0,0.0,0.0,0.0,0.0,0.0,0.0,0.0,0.0,0.0,0.0,0.0,0.0,0.0,0.0,0.0,0.0,0.0,0.0,0.0,0.0,0.0,0.0,0.0,0.0,0.0,0.0,0.0,0.0,0.0,0.0,0.0,0.0,0.0,0.0,0.0,0.0,0.0,0.0,0.0,0.0,0.0,0.0,0.0,0.0,0.0,0.0,0.0,0.0,0.0,0.0,0.0,0.0,0.0,0.0,0.0,0.0,0.0,0.0,0.0,0.0,0.0,0.0,0.0,0.0,0.0,0.0,0.0,0.0,0.0,0.0,0.0,0.0,0.0,0.0,0.0,0.0,0.0,0.0,0.0,0.0,0.0,0.0,0.0,0.0,0.0,0.0,0.0,0.0,0.0,0.0,0.0,0.0,0.0,0.0,0.0,0.0,0.0,0.0,0.0,0.0,0.0,0.0,0.0,0.0,0.0,0.0,0.0,0.0,0.0,0.0,0.0,0.0,0.0,0.0,0.0,0.0,0.0,0.0,0.0,0.0,0.0,0.0,0.0,0.0,0.0,0.0,0.0,0.0,0.0,0.0,0.0,0.0,0.0,0.0,0.0,0.0,0.0,0.0,0.0,0.0,0.0,0.0,0.0,0.0,0.0,0.0,0.0,0.0,0.0,0.0,0.0,0.0,0.0,0.0,0.0,0.0,0.0,0.0,0.0,0.0,0.0,0.0,0.0,0.0,0.0,0.0,0.0,0.0,0.0,0.0,0.0,0.0,0.0,0.0,0.0,0.0,0.0,0.0,0.0,0.0,0.0,0.0,0.0,0.0,0.0,0.0,0.0,0.0,0.0,0.0,0.0,0.0,0.0,0.0,0.0,0.0,0.0,0.0,0.0,0.0,0.0,0.0,0.0,0.0,0.0,0.0,0.0,0.0,0.0,0.0,0.0,0.0,0.0,0.0,0.0,0.0,0.0,0.0,0.0,0.0,0.0,0.0,0.0,0.0,0.0,0.0,0.0,0.0,0.0,0.0,0.0,0.0,0.0,0.0,0.0,0.0,0.0,0.0,0.0,0.0,0.0,0.0,0.0,0.0,0.0,0.0,0.0,0.0,0.0,0.0,0.0,0.0,0.0,0.0,0.0,0.0,0.0,0.0,0.0,0.0,0.0,0.0,0.0,0.0,0.0,0.0,0.0,0.0,0.0,0.0,0.0,0.0,0.0,0.0,0.0,0.0,0.0,0.0,0.0,0.0,0.0,0.0,0.0,0.0,0.0,0.0,0.0,0.0,0.0,0.0,0.0,0.0,0.0,0.0,0.0,0.0,0.0,0.0,0.0,0.0,0.0,0.0,0.0,0.0,0.0,0.0,0.0,0.0,0.0,0.0,0.0,0.0,0.0,0.0,0.0,0.0,0.0,0.0,0.0,0.0,0.0,0.0,0.0,0.0,0.0,0.0,0.0,0.0,0.0,0.0,0.0,0.0,0.0,0.0,0.0,0.0,0.0,0.0,0.0,0.0,0.0,0.0,0.0,0.0,0.0,0.0,0.0,0.0,0.0,0.0,0.0,0.0,0.0,0.0,0.0,0.0,0.0,0.0,0.0,0.0,0.0,0.0,0.0,0.0,0.0,0.0,0.0,0.0,0.0,0.0,0.0,0.0,0.0,0.0,0.0,0.0,0.0,0.0,0.0,0.0,0.0,0.0,0.0,0.0,0.0,0.0,0.0,0.0,0.0,0.0,0.0,0.0,0.0,0.0,0.0,-0.2301,0.0,0.0,0.0,-0.407,0.0,0.0,0.0,0.0,0.0,0.0,0.0,0.0,0.0,0.0,0.0,0.0,0.0,0.0,0.0,0.0,0.0,0.0,0.0,0.0,0.0,0.0,0.0,0.0,0.0,0.0,0.0,0.0,0.0,0.0,0.0,0.0,0.0,0.0,0.0,0.0,0.0,0.0,0.0,0.0,0.0,0.0,0.0,0.0,0.0,0.0,0.0,0.0,0.0,0.0,0.0,0.0,0.0,0.0,0.0,0.0,0.0,0.0,0.0,0.0,0.0,0.0,0.0,0.0,0.0,0.0,0.0,0.0,0.0,0.0,0.0,0.0,0.0,0.0,0.0,0.0,0.0,0.0,0.0,0.0,0.0,0.0,0.0,0.0,0.0,0.0,0.0,0.0,0.0,0.0,0.0,0.0,0.0,0.0,0.0,0.0,0.0,0.0,0.0,0.0,0.0,0.0,0.0,0.0,0.0,0.0,0.0,0.0,0.0,0.0,-0.2147,-0.2769,-0.3479,-0.3728,-0.3433,0.0,0.0,0.0,0.0,0.0,0.0,0.0,0.0,0.0,0.0,0.0,0.0,0.0,0.0,0.0,0.0,0.0,0.0,0.0,0.0,0.0,0.0,0.0,0.0,0.0,0.0,0.0,0.0,0.0,0.0,0.0,0.0,0.0,0.0,0.0,0.0,0.0,0.0,0.0,0.0,0.0,0.0,0.0,0.0,0.0,0.0,0.0,0.0,0.0,0.0,0.0,0.0,0.0,0.0,0.0,0.0,0.0,0.0,0.0,0.0,0.0,0.0,0.0,0.0,0.0,0.0,0.0,0.0,0.0,0.0,0.0,0.0,0.0,0.0,0.0,0.0,0.0,0.0,0.0,0.0,0.0,0.0,0.0,0.0,0.0,0.0,0.0,0.0,0.0,0.0,0.0,0.0,0.0,0.0,0.0,0.0,0.0,0.0,0.0,0.0,0.0,0.0,0.0,0.0,0.0,0.0,0.0,0.0,0.0,0.0,0.0,0.0,-0.3072,-0.3409,-0.3396,0.0,0.0,0.0,0.0,0.0,0.0,0.0,0.0,0.0,0.0,0.0,0.0,0.0,0.0,0.0,0.0,0.0,0.0,0.0,0.0,0.0,0.0,0.0,0.0,0.0,0.0,0.0,0.0,0.0,0.0,0.0,0.0,0.0,0.0,0.0,0.0,0.0,0.0,0.0,0.0,0.0,0.0,0.0,0.0,0.0,0.0,0.0,0.0,0.0,0.0,0.0,0.0,0.0,0.0,0.0,0.0,0.0,0.0,0.0,0.0,0.0,0.0,0.0,0.0,0.0,0.0,0.0,0.0,0.0,0.0,0.0,0.0,0.0,0.0,0.0,0.0,0.0,0.0,0.0,0.0,0.0,0.0,0.0,0.0,0.0,0.0,0.0,0.0,0.0,0.0,0.0,0.0,0.0,0.0,0.0,0.0,0.0,0.0,0.0,0.0,0.0,0.0,0.0,0.0,0.0,0.0,0.0,0.0,0.0,0.0,-0.2073,-0.258,-0.2603,0.0,-0.4312,0.0,0.0,0.0,0.0,0.0,0.0,0.0,0.0,0.0,0.0,0.0,0.0,0.0,0.0,0.0,0.0,0.0,0.0,0.0,0.0,0.0,0.0,0.0,0.0,0.0,0.0,0.0,0.0,0.0,0.0,0.0,0.0,0.0,0.0,0.0,0.0,0.0,0.0,0.0,0.0,0.0,0.0,0.0,0.0,0.0,0.0,0.0,0.0,0.0,0.0,0.0,0.0,0.0,0.0,0.0,0.0,0.0,0.0,0.0,0.0,0.0,0.0,0.0,0.0,0.0,0.0,0.0,0.0,0.0,0.0,0.0,0.0,0.0,0.0,0.0,0.0,0.0,0.0,0.0,0.0,0.0,0.0,0.0,0.0,0.0,0.0,0.0,0.0,0.0,0.0,0.0,0.0,0.0,0.0,0.0,0.0,0.0,0.0,0.0,0.0,0.0,0.0,0.0,0.0,0.0,0.0,0.0,0.0,0.0,0.0,-0.2142,-0.2348,-0.222,-0.2717,0.0,0.0,0.0,0.0,0.0,0.0,0.0,0.0,0.0,0.0,0.0,0.0,0.0,0.0,0.0,0.0,0.0,0.0,0.0,0.0,0.0,0.0,0.0,0.0,0.0,0.0,0.0,0.0,0.0,0.0,0.0,0.0,0.0,0.0,0.0,0.0,0.0,0.0,0.0,0.0,0.0,0.0,0.0,0.0,0.0,0.0,0.0,0.0,0.0,0.0,0.0,0.0,0.0,0.0,0.0,0.0,0.0,0.0,0.0,0.0,0.0,0.0,0.0,0.0,0.0,0.0,0.0,0.0,0.0,0.0,0.0,0.0,0.0,0.0,0.0,0.0,0.0,0.0,0.0,0.0,0.0,0.0,0.0,0.0,0.0,0.0,0.0,0.0,0.0,0.0,0.0,0.0,0.0,0.0,0.0,0.0,0.0,0.0,0.0,0.0,0.0,0.0,0.0,0.0,0.0,0.0,0.0,0.0,0.0,0.0,-0.2578,-0.2387,-0.2357,-0.2302,-0.2697,-0.3468,0.0,0.0,0.0,0.0,0.0,0.0,0.0,0.0,0.0,0.0,0.0,0.0,0.0,0.0,0.0,0.0,0.0,0.0,0.0,0.0,0.0,0.0,0.0,0.0,0.0,0.0,0.0,0.0,0.0,0.0,0.0,0.0,0.0,0.0,0.0,0.0,0.0,0.0,0.0,0.0,0.0,0.0,0.0,0.0,0.0,0.0,0.0,0.0,0.0,0.0,0.0,0.0,0.0,0.0,0.0,0.0,0.0,0.0,0.0,0.0,0.0,0.0,0.0,0.0,0.0,0.0,0.0,0.0,0.0,0.0,0.0,0.0,0.0,0.0,0.0,0.0,0.0,0.0,0.0,0.0,0.0,0.0,0.0,0.0,0.0,0.0,0.0,0.0,0.0,0.0,0.0,0.0,0.0,0.0,0.0,0.0,0.0,0.0,0.0,0.0,0.0,0.0,0.0,0.0,0.0,0.0,0.0,0.0,-0.3081,-0.2942,-0.2821,-0.2773,-0.3075,-0.3245,0.0,0.0,0.0,0.0,0.0,0.0,0.0,0.0,0.0,0.0,0.0,0.0,0.0,0.0,0.0,0.0,0.0,0.0,0.0,0.0,0.0,0.0,0.0,0.0,0.0,0.0,0.0,0.0,0.0,0.0,0.0,0.0,0.0,0.0,0.0,0.0,0.0,0.0,0.0,0.0,0.0,0.0,0.0,0.0,0.0,0.0,0.0,0.0,0.0,0.0,0.0,0.0,0.0,0.0,0.0,0.0,0.0,0.0,0.0,0.0,0.0,0.0,0.0,0.0,0.0,0.0,0.0,0.0,0.0,0.0,0.0,0.0,0.0,0.0,0.0,0.0,0.0,0.0,0.0,0.0,0.0,0.0,0.0,0.0,0.0,0.0,0.0,0.0,0.0,0.0,0.0,0.0,0.0,0.0,0.0,0.0,0.0,0.0,0.0,0.0,0.0,0.0,0.0,0.0,0.0,0.0,0.0,0.0,0.0,-0.2697,-0.2451,-0.242,-0.2622,-0.227,-0.2331,0.0,0.0,0.0,0.0,0.0,0.0,0.0,0.0,0.0,0.0,0.0,0.0,0.0,0.0,0.0,0.0,0.0,0.0,0.0,0.0,0.0,0.0,0.0,0.0,0.0,0.0,0.0,0.0,0.0,0.0,0.0,0.0,0.0,0.0,0.0,0.0,0.0,0.0,0.0,0.0,0.0,0.0,0.0,0.0,0.0,0.0,0.0,0.0,0.0,0.0,0.0,0.0,0.0,0.0,0.0,0.0,0.0,0.0,0.0,0.0,0.0,0.0,0.0,0.0,0.0,0.0,0.0,0.0,0.0,0.0,0.0,0.0,0.0,0.0,0.0,0.0,0.0,0.0,0.0,0.0,0.0,0.0,0.0,0.0,0.0,0.0,0.0,0.0,0.0,0.0,0.0,0.0,0.0,0.0,0.0,0.0,0.0,0.0,0.0,0.0,0.0,0.0,0.0,0.0,0.0,0.0,0.0,0.0,0.0,-0.2912,-0.2623,-0.2553,-0.2729,-0.1943,-0.1835,0.0,0.0,0.0,0.0,0.0,0.0,0.0,0.0,0.0,0.0,0.0,0.0,0.0,0.0,0.0,0.0,0.0,0.0,0.0,0.0,0.0,0.0,0.0,0.0,0.0,0.0,0.0,0.0,0.0,0.0,0.0,0.0,0.0,0.0,0.0,0.0,0.0,0.0,0.0,0.0,0.0,0.0,0.0,0.0,0.0,0.0,0.0,0.0,0.0,0.0,0.0,0.0,0.0,0.0,0.0,0.0,0.0,0.0,0.0,0.0,0.0,0.0,0.0,0.0,0.0,0.0,0.0,0.0,0.0,0.0,0.0,0.0,0.0,0.0,0.0,0.0,0.0,0.0,0.0,0.0,0.0,0.0,0.0,0.0,0.0,0.0,0.0,0.0,0.0,0.0,0.0,0.0,0.0,0.0,0.0,0.0,0.0,0.0,0.0,0.0,0.0,0.0,0.0,0.0,0.0,0.0,0.0,0.0,-0.3132,-0.3731,-0.3562,-0.3359,-0.3184,-0.2318,-0.1928,0.0,0.0,0.0,0.0,0.0,0.0,0.0,0.0,0.0,0.0,0.0,0.0,0.0,0.0,0.0,0.0,0.0,0.0,0.0,0.0,0.0,0.0,0.0,0.0,0.0,0.0,0.0,0.0,0.0,0.0,0.0,0.0,0.0,0.0,0.0,0.0,0.0,0.0,0.0,0.0,0.0,0.0,0.0,0.0,0.0,0.0,0.0,0.0,0.0,0.0,0.0,0.0,0.0,0.0,0.0,0.0,0.0,0.0,0.0,0.0,0.0,0.0,0.0,0.0,0.0,0.0,0.0,0.0,0.0,0.0,0.0,0.0,0.0,0.0,0.0,0.0,0.0,0.0,0.0,0.0,0.0,0.0,0.0,0.0,0.0,0.0,0.0,0.0,0.0,0.0,0.0,0.0,0.0,0.0,0.0,0.0,0.0,0.0,0.0,0.0,0.0,0.0,0.0,0.0,0.0,0.0,0.0,0.0,0.0,-0.4151,-0.3657,-0.3412,-0.3437,-0.2205,-0.1752,0.0,0.0,0.0,0.0,0.0,0.0,0.0,0.0,0.0,0.0,0.0,0.0,0.0,0.0,0.0,0.0,0.0,0.0,0.0,0.0,0.0,0.0,0.0,0.0,0.0,0.0,0.0,0.0,0.0,0.0,0.0,0.0,0.0,0.0,0.0,0.0,0.0,0.0,0.0,0.0,0.0,0.0,0.0,0.0,0.0,0.0,0.0,0.0,0.0,0.0,0.0,0.0,0.0,0.0,0.0,0.0,0.0,0.0,0.0,0.0,0.0,0.0,0.0,0.0,0.0,0.0,0.0,0.0,0.0,0.0,0.0,0.0,0.0,0.0,0.0,0.0,0.0,0.0,0.0,0.0,0.0,0.0,0.0,0.0,0.0,0.0,0.0,0.0,0.0,0.0,0.0,0.0,0.0,0.0,0.0,0.0,0.0,0.0,0.0,0.0,0.0,0.0,0.0,0.0,0.0,0.0,0.0,0.0,0.0,-0.64,-0.5552,-0.493,-0.4613,-0.3337,-0.2687,-0.2876,0.0,0.0,0.0,0.0,0.0,0.0,0.0,0.0,0.0,0.0,0.0,0.0,0.0,0.0,0.0,0.0,0.0,0.0,0.0,0.0,0.0,0.0,0.0,0.0,0.0,0.0,0.0,0.0,0.0,0.0,0.0,0.0,0.0,0.0,0.0,0.0,0.0,0.0,0.0,0.0,0.0,0.0,0.0,0.0,0.0,0.0,0.0,0.0,0.0,0.0,0.0,0.0,0.0,0.0,0.0,0.0,0.0,0.0,0.0,0.0,0.0,0.0,0.0,0.0,0.0,0.0,0.0,0.0,0.0,0.0,0.0,0.0,0.0,0.0,0.0,0.0,0.0,0.0,0.0,0.0,0.0,0.0,0.0,0.0,0.0,0.0,0.0,0.0,0.0,0.0,0.0,0.0,0.0,0.0,0.0,0.0,0.0,0.0,0.0,0.0,0.0,0.0,0.0,0.0,0.0,0.0,0.0,0.0,-1.0046,-0.9038,-0.7851,-0.6614,-0.5447,-0.4452,0.0,0.0,0.0,0.0,0.0,0.0,0.0,0.0,0.0,0.0,0.0,0.0,0.0,0.0,0.0,0.0,0.0,0.0,0.0,0.0,0.0,0.0,0.0,0.0,0.0,0.0,0.0,0.0,0.0,0.0,0.0,0.0,0.0,0.0,0.0,0.0,0.0,0.0,0.0,0.0,0.0,0.0,0.0,0.0,0.0,0.0,0.0,0.0,0.0,0.0,0.0,0.0,0.0,0.0,0.0,0.0,0.0,0.0,0.0,0.0,0.0,0.0,0.0,0.0,0.0,0.0,0.0,0.0,0.0,0.0,0.0,0.0,0.0,0.0,0.0,0.0,0.0,0.0,0.0,0.0,0.0,0.0,0.0,0.0,0.0,0.0,0.0,0.0,0.0,0.0,0.0,0.0,0.0,0.0,0.0,0.0,0.0,0.0,0.0,0.0,0.0,0.0,0.0,0.0,0.0,0.0,0.0,0.0,0.0,-1.1895,-1.2857,-1.1876,-0.8595,-0.6618,-0.5498,0.0,0.0,0.0,0.0,0.0,0.0,0.0,0.0,0.0,0.0,0.0,0.0,0.0,0.0,0.0,0.0,0.0,0.0,0.0,0.0,0.0,0.0,0.0,0.0,0.0,0.0,0.0,0.0,0.0,0.0,0.0,0.0,0.0,0.0,0.0,0.0,0.0,0.0,0.0,0.0,0.0,0.0,0.0,0.0,0.0,0.0,0.0,0.0,0.0,0.0,0.0,0.0,0.0,0.0,0.0,0.0,0.0,0.0,0.0,0.0,0.0,0.0,0.0,0.0,0.0,0.0,0.0,0.0,0.0,0.0,0.0,0.0,0.0,0.0,0.0,0.0,0.0,0.0,0.0,0.0,0.0,0.0,0.0,0.0,0.0,0.0,0.0,0.0,0.0,0.0,0.0,0.0,0.0,0.0,0.0,0.0,0.0,0.0,0.0,0.0,0.0,0.0,0.0,0.0,0.0,0.0,0.0,0.0,-1.3255,-1.4176,-1.5155,-1.4422,-1.2062,-0.9132,-0.7236,0.0,0.0,0.0,0.0,0.0,0.0,0.0,0.0,0.0,0.0,0.0,0.0,0.0,0.0,0.0,0.0,0.0,0.0,0.0,0.0,0.0,0.0,0.0,0.0,0.0,0.0,0.0,0.0,0.0,0.0,0.0,0.0,0.0,0.0,0.0,0.0,0.0,0.0,0.0,0.0,0.0,0.0,0.0,0.0,0.0,0.0,0.0,0.0,0.0,0.0,0.0,0.0,0.0,0.0,0.0,0.0,0.0,0.0,0.0,0.0,0.0,0.0,0.0,0.0,0.0,0.0,0.0,0.0,0.0,0.0,0.0,0.0,0.0,0.0,0.0,0.0,0.0,0.0,0.0,0.0,0.0,0.0,0.0,0.0,0.0,0.0,0.0,0.0,0.0,0.0,0.0,0.0,0.0,0.0,0.0,0.0,0.0,0.0,0.0,0.0,0.0,0.0,0.0,0.0,0.0,0.0,0.0,0.0,-1.5184,-1.6586,-1.6469,-1.6324,-1.5886,-1.2028,-0.9275,0.0,0.0,0.0,0.0,0.0,0.0,0.0,0.0,0.0,0.0,0.0,0.0,0.0,0.0,0.0,0.0,0.0,0.0,0.0,0.0,0.0,0.0,0.0,0.0,0.0,0.0,0.0,0.0,0.0,0.0,0.0,0.0,0.0,0.0,0.0,0.0,0.0,0.0,0.0,0.0,0.0,0.0,0.0,0.0,0.0,0.0,0.0,0.0,0.0,0.0,0.0,0.0,0.0,0.0,0.0,0.0,0.0,0.0,0.0,0.0,0.0,0.0,0.0,0.0,0.0,0.0,0.0,0.0,0.0,0.0,0.0,0.0,0.0,0.0,0.0,0.0,0.0,0.0,0.0,0.0,0.0,0.0,0.0,0.0,0.0,0.0,0.0,0.0,0.0,0.0,0.0,0.0,0.0,0.0,0.0,0.0,0.0,0.0,0.0,0.0,0.0,0.0,0.0,0.0,0.0,0.0,0.0,0.0,-1.7215,-1.8431,-1.8675,-1.8238,-1.7162,-1.3094,-1.06,0.0,0.0,0.0,0.0,0.0,0.0,0.0,0.0,0.0,0.0,0.0,0.0,0.0,0.0,0.0,0.0,0.0,0.0,0.0,0.0,0.0,0.0,0.0,0.0,0.0,0.0,0.0,0.0,0.0,0.0,0.0,0.0,0.0,0.0,0.0,0.0,0.0,0.0,0.0,0.0,0.0,0.0,0.0,0.0,0.0,0.0,0.0,0.0,-0.2835,0.0,0.0,0.0,0.0,0.0,0.0,0.0,0.0,0.0,0.0,0.0,0.0,0.0,0.0,0.0,0.0,0.0,0.0,0.0,0.0,0.0,0.0,0.0,0.0,0.0,0.0,0.0,0.0,0.0,0.0,0.0,0.0,0.0,0.0,0.0,0.0,0.0,0.0,0.0,0.0,0.0,0.0,0.0,0.0,0.0,0.0,0.0,0.0,0.0,0.0,0.0,0.0,0.0,0.0,0.0,0.0,0.0,0.0,0.0,-1.7893,-2.0271,-2.0314,-1.9623,-1.8309,-1.4727,-1.2169,0.0,0.0,0.0,0.0,0.0,0.0,0.0,0.0,0.0,0.0,0.0,0.0,0.0,0.0,0.0,0.0,0.0,0.0,0.0,0.0,0.0,0.0,0.0,0.0,0.0,0.0,0.0,0.0,0.0,0.0,0.0,0.0,0.0,0.0,0.0,0.0,0.0,0.0,0.0,0.0,0.0,0.0,0.0,0.0,0.0,0.0,0.0,0.0,0.0,0.0,0.0,0.0,0.0,0.0,0.0,0.0,0.0,0.0,0.0,0.0,0.0,0.0,0.0,0.0,0.0,0.0,0.0,0.0,0.0,0.0,0.0,0.0,0.0,0.0,0.0,0.0,0.0,0.0,0.0,0.0,0.0,0.0,0.0,0.0,0.0,0.0,0.0,0.0,0.0,0.0,0.0,0.0,0.0,0.0,0.0,0.0,0.0,0.0,0.0,0.0,0.0,0.0,0.0,0.0,0.0,0.0,0.0,-1.5721,-1.8236,-2.1844,-2.1795,-2.1097,-1.9854,-1.6585,-1.3975,-1.2388,0.0,0.0,0.0,0.0,0.0,0.0,0.0,0.0,0.0,0.0,0.0,0.0,0.0,0.0,0.0,0.0,0.0,0.0,0.0,0.0,0.0,0.0,0.0,0.0,0.0,0.0,0.0,0.0,0.0,0.0,0.0,0.0,0.0,0.0,0.0,0.0,0.0,0.0,-0.8795,-1.0089,0.0,0.0,0.0,0.0,0.0,0.0,0.0,0.0,-0.3915,0.0,0.0,0.0,0.0,0.0,0.0,0.0,0.0,0.0,0.0,0.0,0.0,0.0,0.0,0.0,0.0,0.0,0.0,0.0,0.0,0.0,0.0,0.0,0.0,0.0,0.0,0.0,0.0,0.0,0.0,0.0,0.0,0.0,0.0,0.0,0.0,0.0,0.0,0.0,0.0,0.0,0.0,0.0,0.0,0.0,0.0,0.0,0.0,0.0,0.0,0.0,0.0,0.0,0.0,0.0,0.0,-1.6201,-1.6711,-1.9138,-2.3669,-2.3728,-2.3204,-2.212,-1.8398,-1.6014,-1.5007,0.0,0.0,0.0,0.0,0.0,0.0,0.0,0.0,0.0,0.0,0.0,0.0,0.0,0.0,0.0,0.0,0.0,0.0,0.0,0.0,0.0,0.0,0.0,0.0,0.0,0.0,0.0,0.0,0.0,0.0,0.0,0.0,0.0,0.0,0.0,0.0,0.0,0.0,0.0,-1.2437,-1.2206,0.0,0.0,0.0,0.0,0.0,0.0,0.0,0.0,-0.4792,0.0,0.0,0.0,0.0,0.0,0.0,0.0,0.0,0.0,0.0,0.0,0.0,0.0,0.0,0.0,0.0,0.0,0.0,0.0,0.0,0.0,0.0,0.0,0.0,0.0,0.0,0.0,0.0,0.0,0.0,0.0,0.0,0.0,0.0,0.0,0.0,0.0,0.0,0.0,0.0,0.0,0.0,0.0,0.0,0.0,0.0,0.0,0.0,0.0,0.0,0.0,0.0,0.0,0.0,0.0,-1.6613,-1.807,-2.0649,-2.439,-2.5182,-2.4738,-2.3218,-1.9774,-1.738,0.0,0.0,0.0,0.0,0.0,0.0,0.0,0.0,0.0,0.0,0.0,0.0,0.0,0.0,0.0,0.0,0.0,0.0,0.0,0.0,0.0,0.0,0.0,0.0,0.0,0.0,0.0,0.0,0.0,0.0,0.0,0.0,0.0,0.0,0.0,0.0,0.0,0.0,0.0,0.0,-1.4326,-1.4351,-1.4184,0.0,0.0,0.0,0.0,0.0,0.0,-0.5866,-0.5624,0.0,0.0,0.0,0.0,0.0,0.0,0.0,0.0,0.0,0.0,0.0,0.0,0.0,0.0,0.0,0.0,0.0,0.0,0.0,0.0,0.0,0.0,0.0,0.0,0.0,0.0,0.0,0.0,0.0,0.0,0.0,0.0,0.0,0.0,0.0,0.0,0.0,0.0,0.0,0.0,0.0,0.0,0.0,0.0,0.0,0.0,0.0,0.0,0.0,0.0,0.0,0.0,0.0,0.0,0.0,-1.6764,-1.8948,-2.1622,-2.4812,-2.6059,-2.5825,-2.4166,-2.0953,-1.8551,0.0,0.0,0.0,0.0,0.0,0.0,0.0,0.0,0.0,0.0,0.0,0.0,0.0,0.0,0.0,0.0,0.0,0.0,0.0,0.0,0.0,0.0,0.0,0.0,0.0,0.0,0.0,0.0,0.0,0.0,0.0,0.0,0.0,0.0,0.0,0.0,0.0,0.0,0.0,0.0,0.0,-1.6416,-1.6482,-1.4191,0.0,0.0,0.0,0.0,-0.7827,-0.7666,0.0,0.0,0.0,0.0,0.0,0.0,0.0,0.0,0.0,0.0,0.0,0.0,0.0,0.0,0.0,0.0,0.0,0.0,0.0,0.0,0.0,0.0,0.0,0.0,0.0,0.0,0.0,0.0,0.0,0.0,0.0,0.0,0.0,0.0,0.0,0.0,0.0,0.0,0.0,0.0,0.0,0.0,0.0,0.0,0.0,0.0,0.0,0.0,0.0,0.0,0.0,0.0,0.0,0.0,0.0,0.0,-1.6666,-1.7978,-2.0779,-2.5142,-2.6172,-2.6265,-2.5751,-2.19,-1.921,0.0,0.0,0.0,0.0,0.0,0.0,0.0,0.0,0.0,0.0,0.0,0.0,0.0,0.0,0.0,0.0,0.0,0.0,0.0,0.0,0.0,0.0,0.0,0.0,0.0,0.0,0.0,0.0,0.0,0.0,0.0,0.0,0.0,0.0,0.0,0.0,0.0,0.0,0.0,0.0,0.0,-1.7842,-1.7072,-1.5061,-1.3507,0.0,0.0,-1.1653,-1.1269,-1.174,0.0,0.0,0.0,0.0,0.0,0.0,0.0,0.0,0.0,0.0,0.0,0.0,0.0,0.0,0.0,0.0,0.0,0.0,0.0,0.0,0.0,0.0,0.0,0.0,0.0,0.0,0.0,0.0,0.0,0.0,0.0,0.0,0.0,0.0,0.0,0.0,0.0,0.0,0.0,0.0,0.0,0.0,0.0,0.0,0.0,0.0,0.0,0.0,0.0,0.0,0.0,0.0,0.0,0.0,0.0,-1.4223,-1.7322,-1.9329,-2.2028,-2.561,-2.6333,-2.6537,-2.6316,-2.2761,-2.0093,0.0,0.0,0.0,0.0,0.0,0.0,0.0,0.0,0.0,0.0,0.0,0.0,0.0,0.0,0.0,0.0,0.0,0.0,0.0,0.0,0.0,0.0,0.0,0.0,0.0,0.0,0.0,0.0,0.0,0.0,0.0,0.0,0.0,0.0,0.0,0.0,0.0,0.0,0.0,0.0,0.0,0.0,-1.8529,-1.6942,0.0,0.0,0.0,-1.3807,-1.3523,0.0,0.0,0.0,0.0,0.0,0.0,0.0,0.0,0.0,0.0,0.0,0.0,0.0,0.0,0.0,0.0,0.0,0.0,0.0,0.0,0.0,0.0,0.0,0.0,0.0,0.0,0.0,0.0,0.0,0.0,0.0,0.0,0.0,0.0,0.0,0.0,0.0,0.0,0.0,0.0,0.0,0.0,0.0,0.0,0.0,0.0,0.0,0.0,0.0,0.0,0.0,0.0,0.0,0.0,0.0,0.0,0.0,-1.7838,-2.0814,-2.3536,-2.5894,-2.6371,-2.6591,-2.6564,-2.3409,0.0,0.0,0.0,0.0,0.0,0.0,0.0,0.0,0.0,0.0,0.0,0.0,0.0,0.0,0.0,0.0,0.0,0.0,0.0,0.0,0.0,0.0,0.0,0.0,0.0,0.0,0.0,-0.4793,0.0,0.0,0.0,0.0,0.0,0.0,0.0,0.0,0.0,0.0,0.0,0.0,0.0,0.0,-1.8958,-1.998,-1.8868,-1.8155,0.0,0.0,-1.6437,-1.6507,-1.6669,-1.6067,0.0,0.0,0.0,0.0,0.0,0.0,0.0,0.0,0.0,0.0,0.0,0.0,0.0,0.0,0.0,0.0,0.0,0.0,0.0,0.0,0.0,0.0,0.0,0.0,0.0,0.0,0.0,0.0,-0.2534,0.0,0.0,0.0,0.0,0.0,0.0,0.0,0.0,0.0,0.0,0.0,0.0,0.0,0.0,0.0,0.0,0.0,0.0,0.0,0.0,0.0,0.0,0.0,0.0,0.0,-1.5569,-1.796,-2.198,-2.4693,-2.5922,-2.6371,-2.6591,-2.6582,-2.3678,-2.068,0.0,0.0,0.0,0.0,0.0,0.0,0.0,0.0,0.0,0.0,0.0,0.0,0.0,0.0,0.0,0.0,0.0,0.0,0.0,0.0,0.0,0.0,0.0,0.0,0.0,0.0,0.0,0.0,0.0,0.0,0.0,0.0,0.0,0.0,0.0,0.0,0.0,0.0,0.0,0.0,0.0,-1.9831,-2.0968,-2.0641,-2.0933,0.0,-2.1445,-2.0331,-2.1016,-2.1636,-2.0314,-1.542,0.0,0.0,0.0,0.0,0.0,0.0,0.0,0.0,0.0,0.0,0.0,0.0,0.0,0.0,0.0,0.0,0.0,0.0,0.0,0.0,0.0,0.0,0.0,0.0,0.0,-0.2636,-0.2526,0.0,-0.2417,0.0,0.0,0.0,0.0,0.0,0.0,0.0,0.0,0.0,0.0,0.0,0.0,0.0,0.0,0.0,0.0,0.0,0.0,0.0,0.0,0.0,0.0,0.0,0.0,-1.6079,-1.8547,-2.229,-2.4863,-2.6289,-2.6509,-2.6591,-2.6582,-2.3728,-2.0919,0.0,0.0,0.0,0.0,0.0,0.0,0.0,0.0,0.0,0.0,0.0,0.0,0.0,0.0,0.0,0.0,0.0,0.0,0.0,0.0,0.0,0.0,0.0,0.0,0.0,0.0,0.0,0.0,-0.9098,-0.9017,-0.819,0.0,0.0,0.0,0.0,0.0,0.0,0.0,0.0,0.0,0.0,-2.009,-2.1715,-2.2031,0.0,0.0,-2.2788,-2.2171,-2.2494,-2.187,-2.0371,-1.7239,-1.5102,0.0,0.0,0.0,0.0,0.0,0.0,0.0,0.0,0.0,0.0,0.0,0.0,0.0,0.0,0.0,0.0,0.0,0.0,0.0,0.0,0.0,0.0,0.0,0.0,0.0,0.0,-0.2198,-0.2321,0.0,0.0,0.0,0.0,0.0,0.0,0.0,0.0,0.0,0.0,0.0,0.0,0.0,0.0,0.0,0.0,0.0,0.0,0.0,0.0,0.0,0.0,0.0,0.0,-1.6483,-1.8976,-2.2464,-2.4977,-2.6564,-2.6591,-2.6591,-2.6573,-2.4056,-2.1589,0.0,0.0,0.0,0.0,0.0,0.0,0.0,0.0,0.0,0.0,0.0,0.0,0.0,0.0,0.0,0.0,0.0,0.0,0.0,0.0,0.0,0.0,0.0,0.0,0.0,0.0,0.0,0.0,-1.0287,-0.9979,-0.8532,0.0,0.0,0.0,0.0,0.0,0.0,0.0,0.0,0.0,0.0,-2.0697,-2.2389,-2.2841,-2.3247,-2.3788,-2.3143,-2.278,-2.3211,-2.2223,-2.0903,-1.9063,0.0,0.0,0.0,0.0,0.0,0.0,0.0,0.0,0.0,0.0,0.0,0.0,0.0,0.0,0.0,0.0,0.0,0.0,0.0,0.0,0.0,0.0,0.0,0.0,0.0,0.0,0.0,-0.2383,0.0,0.0,-0.2329,0.0,0.0,0.0,0.0,0.0,0.0,0.0,0.0,0.0,0.0,0.0,0.0,0.0,0.0,0.0,0.0,0.0,0.0,0.0,0.0,0.0,0.0,-1.6782,-1.9003,-2.2491,-2.4977,-2.6536,-2.6591,-2.6591,-2.6582,-2.5075,-2.2568,-1.9131,0.0,0.0,0.0,0.0,0.0,0.0,0.0,0.0,0.0,0.0,0.0,0.0,0.0,0.0,0.0,0.0,0.0,0.0,0.0,0.0,0.0,0.0,0.0,0.0,0.0,0.0,-0.7692,-0.9392,-1.027,0.0,0.0,0.0,0.0,0.0,0.0,0.0,0.0,0.0,-1.702,-1.9632,-2.169,-2.301,-2.3152,-2.3307,-2.3711,-2.273,-2.2189,-2.3186,-2.316,-2.2552,0.0,0.0,0.0,0.0,0.0,0.0,0.0,0.0,0.0,0.0,0.0,0.0,0.0,0.0,0.0,0.0,0.0,0.0,0.0,0.0,0.0,0.0,0.0,0.0,0.0,0.0,0.0,-0.2493,-0.2932,0.0,0.0,0.0,0.0,0.0,0.0,0.0,0.0,0.0,0.0,0.0,-1.0748,-1.1076,0.0,0.0,0.0,0.0,0.0,0.0,0.0,0.0,0.0,0.0,0.0,0.0,-1.6412,-1.9431,-2.3143,-2.5518,-2.6554,-2.6591,-2.6591,-2.6591,-2.5093,-2.2046,-1.728,0.0,0.0,0.0,0.0,0.0,0.0,0.0,0.0,0.0,0.0,0.0,0.0,0.0,0.0,0.0,0.0,0.0,0.0,0.0,0.0,0.0,0.0,0.0,0.0,0.0,-0.9166,0.0,0.0,0.0,0.0,0.0,0.0,0.0,0.0,0.0,0.0,-1.4153,-1.643,-1.8815,-2.0133,-2.1475,-2.298,-2.3528,-2.4205,0.0,0.0,0.0,0.0,0.0,0.0,0.0,0.0,0.0,0.0,0.0,0.0,0.0,-1.6826,-1.5988,-1.1923,-1.1996,-1.2414,-1.1806,0.0,0.0,0.0,0.0,0.0,0.0,0.0,0.0,0.0,0.0,0.0,0.0,0.0,0.0,-0.3277,-0.3718,-0.3474,0.0,0.0,0.0,0.0,0.0,0.0,0.0,0.0,-1.1304,-1.2462,-1.3015,-1.338,-1.3436,-1.3156,-1.2203,-1.0694,0.0,0.0,0.0,0.0,0.0,0.0,0.0,0.0,-1.5875,-1.8921,-2.3169,-2.5694,-2.6188,-2.6664,-2.6967,-2.6995,-2.5334,-2.25,-1.8455,-1.6298,-1.3693,0.0,0.0,0.0,0.0,0.0,0.0,0.0,0.0,0.0,0.0,0.0,0.0,0.0,0.0,0.0,0.0,0.0,0.0,0.0,0.0,0.0,0.0,0.0,-1.0405,0.0,0.0,0.0,0.0,0.0,0.0,0.0,0.0,0.0,-1.414,-1.6212,-1.8473,-2.043,-2.1371,-2.2212,-2.2961,0.0,0.0,0.0,0.0,0.0,0.0,0.0,-2.1032,-2.0646,-1.9501,-1.8624,-1.8864,-1.9743,-2.049,-2.0322,0.0,0.0,-1.5741,-1.5534,-1.5955,-1.5362,-1.5407,-1.579,-1.6657,-1.6967,-1.7343,0.0,0.0,0.0,0.0,-0.5369,0.0,0.0,0.0,-0.4683,-0.4668,0.0,-0.5181,0.0,0.0,0.0,0.0,-0.7541,-0.968,0.0,0.0,-1.4214,-1.5284,-1.5279,-1.5417,-1.5531,-1.5689,-1.4552,-1.3426,-1.2505,-1.0487,-0.8697,0.0,0.0,0.0,0.0,0.0,-1.5205,-1.7872,-2.254,-2.52,-2.5439,-2.7028,-2.7805,-2.7719,-2.5725,-2.3838,-2.215,-1.8419,-1.5337,-1.3379,-0.9261,0.0,0.0,0.0,0.0,0.0,0.0,0.0,0.0,0.0,0.0,0.0,0.0,0.0,0.0,0.0,0.0,0.0,0.0,0.0,0.0,-1.0201,0.0,0.0,0.0,0.0,0.0,0.0,0.0,0.0,0.0,-1.697,-1.5965,-1.7823,-2.0013,-2.1827,0.0,0.0,0.0,0.0,-2.382,-2.2409,-2.1865,-2.1578,-2.1259,-2.2233,-2.3176,-2.3725,0.0,0.0,-2.2331,-2.2823,-2.3157,-2.239,-2.3802,-2.4224,-2.1792,-2.0074,-1.9264,-1.941,-1.9007,-1.8982,-1.992,-2.1109,-2.2274,-0.6457,0.0,0.0,0.0,0.0,-0.5916,-0.6034,-0.6505,-0.6421,-0.628,-0.6118,-0.6236,0.0,0.0,0.0,0.0,0.0,0.0,-1.2776,-1.44,-1.568,-1.6577,-1.7231,-1.7453,-1.7547,-1.7338,-1.6858,-1.6125,-1.519,-1.4407,-1.1968,-0.7899,0.0,0.0,0.0,0.0,-1.5292,-1.8462,-1.9857,-2.1767,-2.4182,-2.7142,-2.8394,-2.7774,-2.7187,-2.5525,-2.2605,-2.1178,-1.8345,-1.3888,-1.2185,0.0,0.0,0.0,0.0,0.0,0.0,0.0,0.0,0.0,0.0,0.0,0.0,0.0,0.0,0.0,0.0,0.0,0.0,0.0,-0.9559,-1.1182,-1.1612,0.0,0.0,0.0,0.0,0.0,0.0,0.0,0.0,0.0,-1.9841,-2.0323,-2.0887,0.0,0.0,-2.1998,-2.1893,-2.3078,-2.413,-2.4504,-2.4884,0.0,-2.5604,-2.5181,-2.5044,-2.5812,-2.6195,-2.6241,-2.5261,-2.5904,-2.6457,-2.6104,-2.6641,-2.6753,-2.6367,-2.5254,-2.4103,-2.3514,-2.3116,-2.3427,-2.4426,-2.4403,-2.4516,-0.8345,-0.7183,-0.723,-0.7259,-0.7342,-0.6923,-0.7095,-0.7587,-0.7684,-0.7855,-0.8027,-0.8298,-0.8497,-0.8675,-0.8672,0.0,0.0,0.0,-1.4345,-1.619,-1.7048,-1.7716,-1.8321,-1.8751,-1.8744,-1.8564,-1.822,-1.7764,-1.7199,-1.6436,-1.4358,-1.0908,0.0,-1.0893,-1.1151,-1.2907,-1.5177,-1.8023,-1.8404,-2.0037,-2.3158,-2.6523,-2.8147,-2.8028,-2.8095,-2.6388,-2.2851,-2.2513,-2.0081,-1.5386,-1.3993,-1.2119,0.0,0.0,0.0,0.0,0.0,0.0,0.0,0.0,0.0,0.0,0.0,-0.6011,-0.4934,0.0,0.0,0.0,-0.9886,-1.0882,-1.1703,-1.2906,0.0,0.0,0.0,0.0,0.0,0.0,0.0,-1.851,-2.0178,-2.1665,-2.2814,-2.2757,-2.2778,-2.3312,-2.3333,-2.3411,-2.3234,0.0,-2.5592,-2.6084,-2.6523,-2.6943,-2.7318,-2.7038,-2.7155,-2.802,-2.8376,-2.8471,-2.803,-2.8346,-2.8728,-2.8728,-2.8737,-2.881,-2.9067,-2.8498,-2.7706,-2.6572,-2.6249,-2.6641,-2.7386,-2.7068,-2.7053,-0.9811,-0.969,-0.8973,-0.875,-0.876,-0.7977,-0.8017,-0.8625,-0.8852,-0.9457,-1.0242,-1.0879,-1.1042,-1.085,-1.1161,0.0,-1.3803,-1.4772,-1.5959,-1.7279,-1.821,-1.8712,-1.8958,-1.9249,-1.9392,-1.9345,-1.8838,-1.8592,-1.8411,-1.7135,-1.5964,-1.5131,-1.4107,-1.3352,-1.3002,-1.3794,-1.5169,-1.683,-1.8096,-1.9932,-2.2303,-2.5197,-2.7272,-2.8259,-2.8274,-2.658,-2.3257,-2.2788,-2.0909,-1.7492,-1.5172,-1.3685,-1.3132,0.0,0.0,0.0,0.0,0.0,0.0,0.0,0.0,0.0,0.0,0.0,0.0,0.0,0.0,-1.0989,-1.3267,0.0,-1.4883,-1.4977,0.0,0.0,0.0,-1.4988,-1.5575,-1.7746,-1.9878,-2.1735,0.0,0.0,-2.5034,-2.5172,-2.5438,-2.6083,-2.6287,-2.6346,-2.6166,-2.6871,-2.7538,-2.7375,-2.7392,-2.7557,-2.7765,-2.8368,-2.9169,-2.9865,-3.025,-3.0176,-3.0094,-3.0094,-3.0167,-3.0094,-3.0185,-3.0185,-3.0231,-3.014,-2.992,-2.8902,-2.8618,-2.8645,-2.8957,-2.9259,-2.9477,-1.1566,-1.0107,-1.2812,-1.3006,-1.1426,-1.0323,-1.0556,-1.1572,-1.1833,-1.1923,-1.1991,-1.2103,-1.2417,-1.2844,-1.3751,-1.4672,-1.5617,-1.6355,-1.7032,-1.7793,-1.8709,-1.9112,-1.8937,-1.9479,-1.9586,-1.9386,-1.9452,-1.917,-1.8464,-1.7868,-1.703,-1.5991,-1.5458,-1.4584,-1.3549,-1.4281,-1.5557,-1.7286,-1.8313,-2.0314,-2.3241,-2.3754,-2.4917,-2.6892,-2.6927,-2.6344,-2.4899,-2.3346,-2.1561,-1.9325,-1.7165,-1.5088,-1.32,-1.088,0.0,0.0,0.0,0.0,0.0,0.0,0.0,0.0,0.0,-0.8035,-0.6356,0.0,-1.0846,0.0,-1.478,-1.5919,-1.4442,-1.5097,0.0,0.0,-1.5127,-1.622,-1.8433,-2.0191,-2.1793,-2.3504,-2.4596,-2.5613,-2.6894,-2.7035,-2.749,-2.8937,-2.7408,-2.6282,-2.6546,-2.7656,-2.8357,-2.8516,-2.9225,-2.9976,-2.9878,-3.0438,-3.0746,-3.0681,-3.0662,-3.0543,-3.0259,-3.0204,-3.0204,-3.0204,-3.0204,-3.0314,-3.0616,-3.0644,-3.0827,-3.0983,-3.0424,-2.9791,-2.9901,-3.0011,-3.0259,-1.4585,-1.3361,-1.5161,-1.5099,-1.3893,-1.2548,-1.2167,-1.2569,-1.2793,-1.3,-1.3431,-1.3877,-1.4232,-1.4624,-1.5176,-1.5791,-1.6514,-1.7123,-1.7628,-1.8242,-1.8995,-1.9285,-1.9138,-1.9459,-1.9526,-1.9379,-1.9533,-1.9316,-1.8653,-1.8301,-1.7765,-1.705,-1.6691,-1.6,-1.5155,-1.4993,-1.5571,-1.6541,-1.8001,-2.0179,-2.3126,-2.3135,-2.3726,-2.4976,-2.5389,-2.4755,-2.3073,-2.2086,-2.055,-1.8345,-1.6762,-1.5194,-1.3571,-1.1676,-1.0071,0.0,0.0,0.0,0.0,0.0,0.0,0.0,0.0,0.0,0.0,0.0,-1.2311,-1.3296,-1.5881,-1.7027,-1.5758,-1.6587,-1.7128,-1.6941,-1.7514,-1.8855,-2.1012,-2.2331,-2.3841,-2.5878,-2.656,-2.738,-2.8535,-2.8715,-2.9134,-3.0341,-2.9193,-2.8232,-2.8567,-2.9232,-2.9743,-3.0113,-3.0783,-3.1405,-3.1552,-3.1772,-3.1854,-3.1643,-3.1588,-3.1515,-3.1304,-3.1267,-3.1267,-3.1267,-3.1267,-3.1332,-3.1552,-3.1588,-3.1763,-3.201,-3.1744,-3.1313,-3.1267,-3.1267,-3.1433,-1.7408,-1.7213,-1.6333,-1.587,-1.5748,-1.4406,-1.3617,-1.3068,-1.3126,-1.3704,-1.4695,-1.5555,-1.5887,-1.5994,-1.5881,-1.6241,-1.6844,-1.742,-1.7885,-1.8457,-1.911,-1.9345,-1.9319,-1.9426,-1.9459,-1.9426,-1.9499,-1.9389,-1.9109,-1.8764,-1.8412,-1.8078,-1.7583,-1.719,-1.6771,-1.579,-1.5389,-1.5674,-1.7768,-2.0037,-2.2277,-2.2559,-2.2793,-2.3069,-2.3888,-2.307,-2.0551,-2.0287,-1.9129,-1.6691,-1.5665,-1.4776,-1.4232,-1.2392,-1.1052,0.0,-0.873,0.0,0.0,0.0,0.0,0.0,0.0,0.0,0.0,-1.3099,-1.4056,-1.4764,-1.6786,-1.8063,-1.7836,-1.8517,-1.9098,-1.9379,-2.0354,-2.1399,-2.2824,-2.3804,-2.5489,-2.7948,-2.8346,-2.881,-3.0066,-3.0277,-3.0424,-3.0864,-3.0919,-3.0746,-3.0992,-3.0965,-3.1203,-3.1983,-3.2084,-3.2139,-3.2414,-3.2542,-3.2542,-3.256,-3.2505,-3.2579,-3.2423,-3.2423,-3.245,-3.2377,-3.2267,-3.2331,-3.2432,-3.2386,-3.2414,-3.2432,-3.2441,-3.2459,-3.2478,-3.245,-3.2615,-1.699,-1.6183,-1.5977,-1.5824,-1.5738,-1.5468,-1.5455,-1.5644,-1.5823,-1.5783,-1.5772,-1.5761,-1.5987,-1.6087,-1.6087,-1.6682,-1.739,-1.7793,-1.8064,-1.8457,-1.911,-1.9239,-1.9058,-1.9733,-1.994,-1.976,-2.0201,-2.0301,-1.9947,-1.9337,-1.8853,-1.8246,-1.7556,-1.6986,-1.6332,0.0,0.0,0.0,-1.8549,-1.966,-2.0659,-2.072,-2.1157,-2.1955,-2.2674,0.0,-2.2871,-2.091,-1.9447,-1.8745,-1.6452,0.0,0.0,0.0,0.0,0.0,0.0,0.0,0.0,0.0,0.0,0.0,-1.2097,-1.2608,-1.2598,-1.4706,-1.6199,-1.6581,-1.7859,-1.8831,-1.9011,-1.9178,-1.9399,-1.9686,-2.0159,-2.0983,-2.2428,-2.326,-2.4788,-2.7338,-2.8008,-2.8773,-3.0319,-3.0681,-3.0965,-3.1625,-3.1781,-3.1918,-3.2203,-3.1937,-3.1955,-3.2395,-3.2496,-3.2524,-3.2588,-3.2625,-3.2634,-3.2597,-3.2597,-3.2478,-3.223,-3.2148,-3.2001,-3.1753,-3.1607,-3.1653,-3.1653,-3.1607,-3.1669,-3.2065,-3.2377,-3.2597,-3.2597,-3.2597,-3.2689,-1.654,-1.5782,-1.6052,-1.6124,0.0,-1.6251,-1.6398,-1.6507,-1.6428,-1.6433,-1.6319,-1.6185,-1.6239,-1.647,-1.647,-1.6879,-1.7579,-1.7824,-1.8307,-1.8915,-1.9322,-1.9573,-1.9579,-2.002,-2.016,-2.0027,-2.0314,-2.0265,-2.0004,-1.9498,-1.901,-1.8521,-1.8025,-1.7659,-1.7426,-1.7656,-1.7902,-1.8148,-1.8766,-1.9511,-2.0531,-2.0808,-2.0922,-2.0988,-2.1541,0.0,0.0,0.0,0.0,0.0,0.0,0.0,0.0,-1.3711,0.0,-1.3625,-1.1957,-1.1116,-1.1717,-1.1909,-1.2471,-1.3446,-1.4461,-1.4973,-1.4681,-1.6579,-1.7849,-1.8168,-1.9001,-1.9746,-2.018,-2.0354,-2.0561,-2.0842,-2.1009,-2.1662,-2.2954,-2.3476,-2.4623,-2.6591,-2.795,-2.9094,-3.0263,-3.0991,-3.1625,-3.2175,-3.212,-3.2221,-3.2735,-3.256,-3.245,-3.2845,-3.3092,-3.3202,-3.3175,-3.301,-3.29,-3.289,-3.2735,-3.2533,-3.234,-3.2294,-3.2221,-3.201,-3.1983,-3.1983,-3.1983,-3.1439,-3.0972,-3.1167,-3.0807,-3.0513,-3.0539,-3.1924,-3.3248,-1.6402,-1.5847,-1.6418,-1.6726,-1.6613,-1.6726,-1.6756,-1.6672,-1.6464,0.0,0.0,-1.6601,-1.6601,-1.6726,-1.6768,-1.7019,-1.7604,-1.7989,-1.8584,-1.9409,-1.976,-2.0007,-2.0227,-2.0287,-2.0314,-2.0314,-2.0368,-2.0272,-2.0034,-1.9653,-1.9407,-1.9063,-1.8632,-1.8488,-1.877,-1.9018,-1.903,-1.8807,-1.8836,-1.9525,-2.0903,-2.1323,-2.1129,-2.0401,-2.0955,-2.0902,-2.0147,-1.9466,-1.8489,-1.7277,-1.6289,-1.5476,-1.4677,-1.4246,-1.4173,-1.4478,-1.3993,-1.3644,-1.3834,-1.4562,-1.5189,-1.5456,-1.6592,-1.7108,-1.6961,-1.8052,-1.8955,-1.9425,-1.9971,-2.0425,-2.1129,-2.1396,-2.169,-2.2024,-2.2111,-2.2681,-2.3662,-2.399,-2.4547,-2.6199,-2.7619,-2.8801,-2.9336,-3.0258,-3.1228,-3.1648,-3.1495,-3.1984,-3.2746,-3.2863,-3.278,-3.301,-3.3211,-3.3514,-3.3523,-3.3285,-3.3129,-3.3028,-3.279,-3.2588,-3.2505,-3.2487,-3.2469,-3.2258,-3.2377,-3.2313,-3.2217,-3.1185,-3.0341,-3.035,-2.9146,-2.8212,-2.8405,-3.0676,-3.2641,-1.7355,-1.6423,-1.7061,-1.7325,-1.7325,-1.7061,-1.6932,-1.6828,-1.6646,-1.6582,-1.6552,-1.7067,-1.719,-1.6926,-1.6764,-1.7101,-1.7839,-1.8348,-1.8859,-1.9255,-1.9905,-2.0194,-2.0247,-2.0494,-2.0615,-2.0635,-2.0862,-2.0989,-2.0863,-2.0604,-2.0239,-1.9865,-1.9636,-1.9273,-1.9042,-1.9018,-1.9001,-1.9338,-1.9543,-1.9831,-2.0368,-2.0896,-2.1116,-2.1022,-2.1557,-2.1697,-2.1329,-2.0426,-1.9413,-1.8469,-1.7558,-1.6943,-1.6836,-1.6542,-1.6602,-1.6823,-1.5686,-1.522,-1.597,-1.5552,-1.5881,-1.7312,-1.7837,-1.8013,-1.8131,-1.8179,-1.8908,-2.0229,-2.0257,-2.0612,-2.1403,-2.1557,-2.1817,-2.2291,-2.2585,-2.2969,-2.3316,-2.3691,-2.4372,-2.563,-2.5955,-2.6633,-2.7765,-2.7959,-2.8327,-2.8599,-2.9807,-3.0812,-3.2311,-3.2955,-3.2973,-3.2762,-3.2725,-3.2771,-3.2835,-3.2744,-3.2689,-3.268,-3.2615,-3.2404,-3.2129,-3.2084,-3.1974,-3.1634,-3.1643,-3.1616,-3.1598,-3.0354,-2.9628,-2.9398,-2.8358,-2.7589,-2.7461,-2.8462,-2.9564,-1.827,-1.7457,-1.7481,-1.7343,-1.7358,-1.7219,-1.715,-1.7103,-1.7,-1.696,-1.6948,-1.7346,-1.7346,-1.7213,-1.7068,-1.748,-1.8337,-1.8588,-1.9214,-1.9963,-2.0352,-2.0561,-2.0715,-2.0848,-2.0909,-2.0922,-2.1042,-2.1102,-2.1102,-2.0609,-2.0183,-1.9942,-1.9428,-1.9107,-1.8988,-1.8835,-1.8887,-1.9014,-1.9713,-2.0238,-2.0625,-2.141,-2.1817,-2.1824,-2.2091,-2.2164,-2.2024,-2.147,-2.0609,-1.9443,-1.8918,-1.8406,-1.7658,-1.7517,-1.7582,-1.7837,-1.7194,-1.7068,-1.7449,-1.7057,-1.7168,-1.7782,-1.8053,-1.8198,-1.8483,-1.9133,-1.9795,-2.0573,-2.098,-2.16,-2.2004,-2.2164,-2.2372,-2.2632,-2.2786,-2.2919,-2.3053,-2.318,-2.3545,-2.4219,-2.5063,-2.5751,-2.6436,-2.697,-2.7542,-2.8133,-2.9302,-3.0685,-3.2011,-3.2432,-3.2588,-3.2588,-3.2597,-3.2597,-3.2579,-3.2395,-3.2294,-3.2267,-3.2074,-3.1891,-3.1689,-3.1671,-3.1588,-3.1423,-3.1377,-3.1377,-3.1377,-2.9518,-2.8452,-2.7941,-2.6295,-2.5349,-2.5106,-2.5754,-2.7461,-1.8697,-1.8267,-1.748,-1.7236,-1.7302,-1.7308,-1.7331,-1.7264,-1.7258,-1.7292,-1.7332,-1.7354,-1.7426,-1.7432,-1.7478,-1.7872,-1.8495,-1.8797,-1.9436,-2.0381,-2.065,-2.0895,-2.1089,-2.1102,-2.1149,-2.1203,-2.1209,-2.1243,-2.1168,-2.0676,-2.014,-1.9692,-1.9107,-1.8799,-1.8799,-1.8721,-1.8749,-1.889,-1.9885,-2.0557,-2.0908,-2.1962,-2.2512,-2.2519,-2.2519,-2.2519,-2.2505,-2.2305,-2.1619,-2.0488,-2.0215,-1.9566,-1.8519,-1.8188,-1.8248,-1.8186,-1.8254,-1.8274,-1.8274,-1.8274,-1.8192,-1.817,-1.8205,-1.8501,-1.8852,-1.9875,-2.0548,-2.0672,-2.1489,-2.2171,-2.2398,-2.2585,-2.2786,-2.2846,-2.2926,-2.2993,-2.2979,-2.3073,-2.3133,-2.3252,-2.4365,-2.5164,-2.5222,-2.5966,-2.6656,-2.7403,-2.8502,-2.9615,-3.0575,-3.0918,-3.106,-3.1664,-3.2047,-3.2276,-3.2304,-3.2074,-3.1882,-3.1863,-3.1625,-3.1478,-3.1405,-3.1387,-3.1377,-3.1377,-3.1377,-3.1377,-3.124,-2.9108,-2.7511,-2.7121,-2.515,-2.3147,-2.3297,-2.3927,-2.5794,-1.8321,-1.813,-1.7365,-1.7139,-1.719,-1.732,-1.7202,-1.7124,-1.7245,-1.7373,-1.7513,-1.7202,-1.7397,-1.769,-1.79,-1.8125,-1.8399,-1.9132,-1.963,-1.9776,-2.0683,-2.1082,-2.1122,-2.1116,-2.1249,-2.1476,-2.1516,-2.1637,-2.1713,-2.1095,-2.0333,-1.9427,-1.8921,-1.8821,-1.8839,-1.8625,-1.86,-1.86,-1.9922,-2.0753,-2.094,-2.2128,-2.2819,-2.2826,-2.2819,-2.2826,-2.2806,-2.2792,-2.2516,-2.1745,-2.1038,-2.0374,-1.9723,-1.9136,-1.8585,-1.8284,-1.8262,-1.8267,-1.8256,-1.8273,-1.8384,-1.8724,-1.898,-1.9136,-1.9224,-2.0203,-2.0753,-2.099,-2.1356,-2.1932,-2.2378,-2.2472,-2.2612,-2.2853,-2.308,-2.3287,-2.3293,-2.3761,-2.3981,-2.3714,-2.3863,-2.3897,-2.3725,-2.3763,-2.4158,-2.5448,-2.5884,-2.6672,-2.7789,-2.8022,-2.8436,-2.9533,-3.0588,-3.1404,-3.1552,-3.1488,-3.1488,-3.1469,-3.1423,-3.1377,-3.1377,-3.1377,-3.1377,-3.1377,-3.1377,-3.1377,-3.0705,-2.9108,-2.7246,-2.6596,-2.4873,-2.2879,-2.2899,-2.337,-2.4794,-1.77,-1.7696,-1.7189,-1.697,-1.7092,-1.7103,-1.7158,-1.7385,-1.7229,-1.7413,-1.7759,-1.8076,-1.8122,-1.7995,-1.8383,-1.8679,-1.8794,-1.94,-1.9833,-2.0214,-2.0856,-2.1203,-2.1356,-2.1376,-2.1523,-2.179,-2.181,-2.1608,-2.1204,-2.0288,-1.9552,-1.8902,-1.8616,-1.8562,-1.8562,-1.8794,-1.8838,-1.8844,-2.0057,-2.0749,-2.1215,-2.2252,-2.2866,-2.2866,-2.2866,-2.2866,-2.2866,-2.2866,-2.2532,-2.1881,-2.119,-2.0519,-1.9834,-1.9151,-1.8682,-1.8558,-1.8536,-1.8536,-1.8536,-1.853,-1.8732,-1.9004,-1.9151,-1.9345,-1.9495,-2.0305,-2.086,-2.1046,-2.1694,-2.2152,-2.2652,-2.2679,-2.2732,-2.2859,-2.2979,-2.3053,-2.306,-2.3267,-2.3347,-2.3247,-2.3233,-2.3207,-2.3073,-2.2946,-2.3543,-2.4602,-2.5008,-2.554,-2.6722,-2.7121,-2.7387,-2.7924,-2.8583,-2.9639,-3.0843,-3.1377,-3.1377,-3.1377,-3.1377,-3.1377,-3.1377,-3.1377,-3.1377,-3.1377,-3.1377,-3.0982,-3.0186,-2.8715,-2.6988,-2.5965,-2.4818,-2.318,-2.336,-2.35,-2.4238,-1.7275,-1.7252,-1.7008,-1.7112,-1.7271,-1.7141,-1.7271,-1.754,-1.7433,-1.7562,-1.8179,-1.8782,-1.877,-1.8437,-1.8857,-1.9114,-1.9206,-1.9456,-1.9883,-2.0323,-2.0592,-2.0998,-2.139,-2.141,-2.1693,-2.2064,-2.2104,-2.1752,-2.09,-1.9847,-1.9135,-1.8893,-1.8626,-1.8573,-1.8714,-1.8988,-1.8988,-1.9262,-2.0243,-2.0804,-2.1346,-2.2173,-2.2722,-2.2859,-2.2866,-2.2866,-2.2866,-2.2866,-2.2729,-2.2173,-2.1352,-2.0713,-1.9971,-1.9273,-1.8787,-1.8761,-1.8738,-1.8733,-1.8733,-1.8733,-1.8942,-1.9107,-1.9278,-1.9485,-1.9779,-2.0388,-2.0943,-2.1333,-2.1904,-2.2291,-2.2859,-2.2866,-2.2866,-2.2866,-2.2866,-2.2866,-2.2873,-2.2919,-2.2993,-2.2886,-2.3013,-2.2946,-2.2886,-2.2866,-2.3263,-2.4074,-2.4338,-2.4738,-2.5659,-2.592,-2.592,-2.6455,-2.6588,-2.7519,-2.9639,-3.0039,-3.0178,-3.0316,-3.0307,-3.0714,-3.0982,-3.0982,-3.1377,-3.1377,-3.1111,-3.0584,-2.9526,-2.8056,-2.6168,-2.4926,-2.3914,-2.35,-2.3647,-2.3801,-2.3881,-1.713,-1.7082,-1.698,-1.7389,-1.7956,-1.7669,-1.7664,-1.7944,-1.7973,-1.8228,-1.8647,-1.8942,-1.9036,-1.8986,-1.9138,-1.909,-1.9084,-1.9474,-1.9604,-1.9559,-1.9838,-2.0248,-2.0901,-2.092,-2.146,-2.2244,-2.2405,-2.1984,-2.1127,-2.0051,-1.9518,-1.9524,-1.8843,-1.8848,-1.9407,-1.9128,-1.9262,-1.9686,-2.0382,-2.0798,-2.1214,-2.1897,-2.2448,-2.2859,-2.2866,-2.2866,-2.2866,-2.2866,-2.2866,-2.2866,-2.2042,-2.1346,-2.0641,-1.993,-1.9077,-1.8514,-1.8385,-1.839,-1.8508,-1.8776,-1.8927,-1.9094,-1.964,-1.9953,-1.9965,-2.0388,-2.0943,-2.1628,-2.1766,-2.2173,-2.2729,-2.2859,-2.2866,-2.2866,-2.2866,-2.2866,-2.2866,-2.3073,-2.3133,-2.2973,-2.3073,-2.31,-2.2893,-2.2866,-2.2859,-2.3133,-2.3133,-2.3263,-2.34,-2.34,-2.3938,-2.4738,-2.5135,-2.5674,-2.6988,-2.7916,-2.7784,-2.804,-2.8969,-2.9395,-2.9926,-3.0325,-3.0843,-3.0982,-3.0048,-2.9256,-2.8732,-2.7374,-2.5135,-2.3963,-2.3823,-2.3638,-2.3379,-2.3924,-2.3859,-1.7948,-1.7076,-1.7501,-1.7787,-1.7927,-1.7916,-1.813,-1.8545,-1.8188,-1.8553,-1.9334,-1.9555,-1.9676,-1.9591,-1.9597,-1.9364,-1.9078,-1.932,-1.9458,-1.9423,-1.9712,-1.9996,-2.0509,-2.0931,-2.1475,-2.1985,-2.2433,-2.2206,-2.1195,-1.982,-1.9262,-1.9541,-1.9407,-1.9267,-1.9547,-1.9686,-1.9831,-1.997,-2.0388,-2.0804,-2.1214,-2.1766,-2.2179,-2.2448,-2.2722,-2.2866,-2.2866,-2.2866,-2.2866,-2.2866,-2.2179,-2.1628,-2.0937,-2.0098,-1.9267,-1.8573,-1.8568,-1.8848,-1.8854,-1.8848,-1.8703,-1.8406,-1.9401,-1.9831,-1.9401,-1.9965,-2.0943,-2.1352,-2.1628,-2.2042,-2.2454,-2.2722,-2.2866,-2.2866,-2.2866,-2.2866,-2.2879,-2.2966,-2.2979,-2.2906,-2.2979,-2.2966,-2.2913,-2.2866,-2.2866,-2.2866,-2.2866,-2.2866,-2.2866,-2.2866,-2.3133,-2.3536,-2.3672,-2.3802,-2.4188,-2.618,-2.7105,-2.7214,-2.7611,-2.79,-2.8172,-2.8452,-2.8846,-2.913,-2.8444,-2.7587,-2.6996,-2.565,-2.3594,-2.3417,-2.3255,-2.3075,-2.2821,-2.3318,-2.3235,-1.8577,-1.7888,-1.8173,-1.832,-1.832,-1.8389,-1.8652,-1.9096,-1.8818,-1.9084,-1.9893,-2.0118,-2.0112,-1.9899,-1.9881,-1.9578,-1.9193,-1.9381,-1.9338,-1.9171,-1.958,-1.9858,-2.0078,-2.0798,-2.1308,-2.1596,-2.1766,-2.1628,-2.0937,-1.9686,-1.9407,-1.9965,-1.968,-1.968,-1.9965,-2.011,-2.0116,-2.0255,-2.0527,-2.0804,-2.1214,-2.1477,-2.1891,-2.2304,-2.2722,-2.2866,-2.2866,-2.2866,-2.2866,-2.2859,-2.2448,-2.1897,-2.1207,-2.0092,-1.9401,-1.8848,-1.8714,-1.8988,-1.9128,-1.9128,-1.8832,-1.7975,-1.9256,-1.9825,-1.8692,-1.982,-2.0798,-2.1214,-2.1628,-2.1904,-2.2173,-2.2585,-2.2866,-2.2866,-2.2866,-2.2866,-2.2866,-2.2866,-2.2873,-2.2866,-2.2873,-2.2873,-2.2866,-2.2866,-2.2866,-2.2866,-2.2866,-2.2866,-2.2866,-2.2866,-2.2866,-2.2866,-2.2996,-2.2996,-2.3263,-2.4595,-2.5411,-2.5546,-2.6533,-2.6583,-2.6775,-2.687,-2.7146,-2.713,-2.6691,-2.5973,-2.479,-2.3539,-2.2921,-2.2702,-2.2674,-2.2614,-2.2577,-2.2651,-2.2651,-1.9016,-1.9022,-1.9034,-1.901,-1.9022,-1.896,-1.9203,-1.9442,-1.9727,-1.981,-2.0032,-2.0472,-2.0318,-1.9977,-1.9977,-1.978,-1.977,-1.9885,-1.9505,-1.889,-1.9455,-1.9571,-1.964,-2.034,-2.0906,-2.1207,-2.0527,-2.0388,-2.0665,-1.9686,-1.9547,-2.0388,-1.9959,-1.9982,-2.0678,-2.0429,-2.0284,-2.0593,-2.0738,-2.0835,-2.1214,-2.1339,-2.1596,-2.2166,-2.2585,-2.2859,-2.2866,-2.2859,-2.2866,-2.2866,-2.2859,-2.231,-2.1207,-2.0237,-1.9535,-1.9401,-1.8854,-1.8848,-1.9407,-1.9541,-1.9111,-1.811,-1.9529,-1.968,-1.8266,-1.9396,-2.0521,-2.0792,-2.1352,-2.1766,-2.1904,-2.2454,-2.2866,-2.2859,-2.2859,-2.2866,-2.2866,-2.2866,-2.2866,-2.2866,-2.2866,-2.2866,-2.2866,-2.2866,-2.2866,-2.2866,-2.2866,-2.2866,-2.2866,-2.2866,-2.2866,-2.2866,-2.2866,-2.2866,-2.2866,-2.3023,-2.3218,-2.3532,-2.4875,-2.5659,-2.5864,-2.6089,-2.6335,-2.6418,-2.5651,-2.4911,-2.3978,-2.2815,-2.2372,-2.2117,-2.2102,-2.2043,-2.1924,-2.1804,-2.1948,-1.9138,-1.8974,-1.8577,-1.8705,-1.8998,-1.8977,-1.931,-1.9778,-1.984,-2.003,-2.0424,-2.0658,-2.064,-2.0442,-2.0424,-2.0329,-1.9986,-2.0323,-2.0054,-1.941,-1.956,-1.9594,-1.9669,-2.0388,-2.1081,-2.1352,-2.0527,-2.0388,-2.0659,-1.9959,-1.9825,-2.0527,-2.0527,-2.0623,-2.0913,-2.0802,-2.0874,-2.1191,-2.1181,-2.1084,-2.1053,-2.1004,-2.1189,-2.1484,-2.2173,-2.2448,-2.2441,-2.2722,-2.2859,-2.2866,-2.2866,-2.231,-2.1346,-2.0659,-2.0098,-1.968,-1.9401,-1.9407,-1.9831,-1.9831,-1.8971,-1.7544,-1.8256,-1.77,-1.6004,-1.7695,-1.9111,-1.9529,-2.0509,-2.1352,-2.1484,-2.2035,-2.2448,-2.2448,-2.2722,-2.2866,-2.2866,-2.2866,-2.2866,-2.2866,-2.2866,-2.2866,-2.2866,-2.2866,-2.2866,-2.2866,-2.2866,-2.2866,-2.2866,-2.2866,-2.2866,-2.2866,-2.2866,-2.2866,-2.2873,-2.2973,-2.3193,-2.3447,-2.4275,-2.4922,-2.5044,-2.5193,-2.5456,-2.547,-2.4692,-2.4035,-2.3088,-2.2453,-2.1999,-2.1484,-2.1285,-2.1181,-2.0748,-2.0904,-2.1199,-1.8992,-1.8676,-1.8162,-1.8354,-1.8988,-1.8988,-1.9188,-1.9655,-2.0001,-2.0329,-2.0533,-2.0641,-2.0678,-2.0671,-2.0665,-2.0527,-2.0394,-2.0527,-2.0388,-2.0104,-1.9965,-1.982,-1.9686,-2.0243,-2.0665,-2.0937,-2.0388,-2.0388,-2.0665,-2.0104,-2.011,-2.0665,-2.0665,-2.0738,-2.0919,-2.1016,-2.116,-2.1287,-2.1257,-2.1363,-2.1178,-2.1157,-2.1206,-2.1505,-2.1969,-2.2254,-2.2471,-2.2579,-2.2722,-2.2866,-2.2729,-2.231,-2.149,-2.0943,-2.0521,-2.0104,-1.9825,-1.9825,-2.0249,-2.011,-1.9262,-1.7549,-1.784,-1.7414,-1.5575,-1.6705,-1.7554,-1.8546,-1.9529,-2.0515,-2.1075,-2.1622,-2.2035,-2.2173,-2.2585,-2.2866,-2.2866,-2.2866,-2.2866,-2.2859,-2.2722,-2.2722,-2.2722,-2.2729,-2.2729,-2.2729,-2.2866,-2.2866,-2.2866,-2.2866,-2.2866,-2.2866,-2.2866,-2.2866,-2.2873,-2.3053,-2.33,-2.3601,-2.3901,-2.4384,-2.4623,-2.4684,-2.4843,-2.4836,-2.4454,-2.3745,-2.2921,-2.2238,-2.1739,-2.1187,-2.0592,-2.0441,-2.0296,-2.0296,-2.0597,-1.8589,-1.8016,-1.8033,-1.8447,-1.8816,-1.8806,-1.9067,-1.9452,-2.0197,-2.0437,-2.0436,-2.0467,-2.0557,-2.0671,-2.0665,-2.0527,-2.0665,-2.0665,-2.0665,-2.0665,-2.0527,-2.0243,-1.9965,-2.011,-2.0388,-2.0255,-2.011,-2.0116,-2.0255,-2.0116,-2.0255,-2.0665,-2.0665,-2.069,-2.0792,-2.0955,-2.1088,-2.1185,-2.1503,-2.16,-2.145,-2.1564,-2.1689,-2.1845,-2.2055,-2.2294,-2.2364,-2.2293,-2.2448,-2.2722,-2.2592,-2.2173,-2.176,-2.1075,-2.0665,-2.0527,-1.9965,-2.011,-2.0394,-2.0394,-1.9547,-1.8406,-1.8266,-1.77,-1.6136,-1.5995,-1.6705,-1.7559,-1.8396,-1.9245,-2.0237,-2.1069,-2.1484,-2.1904,-2.2454,-2.2866,-2.2866,-2.2866,-2.2722,-2.2722,-2.2585,-2.2304,-2.2304,-2.231,-2.231,-2.231,-2.2585,-2.2722,-2.2866,-2.2859,-2.2866,-2.2866,-2.2866,-2.2866,-2.2873,-2.2906,-2.316,-2.3487,-2.3698,-2.3984,-2.4362,-2.4469,-2.4523,-2.4382,-2.4094,-2.34,-2.2682,-2.1942,-2.1199,-2.0597,-2.0145,-1.9995,-1.9995,-2.0145,-2.0145,-1.7496,-1.7334,-1.8348,-1.8646,-1.8588,-1.8696,-1.8907,-1.9232,-1.9842,-2.0092,-2.0027,-1.9935,-2.0116,-2.0665,-2.0388,-2.0394,-2.0671,-2.0665,-2.0665,-2.0665,-2.0665,-2.0659,-2.0388,-2.0527,-2.0533,-2.0527,-2.0255,-2.0255,-2.0533,-2.0255,-2.0394,-2.0665,-2.0671,-2.0762,-2.0949,-2.1016,-2.1172,-2.1491,-2.1894,-2.1799,-2.1631,-2.1943,-2.1937,-2.1612,-2.1957,-2.1988,-2.187,-2.1957,-2.231,-2.2859,-2.2585,-2.2179,-2.1766,-2.1075,-2.0665,-2.0665,-2.0249,-2.011,-2.0527,-2.0527,-1.9825,-1.8552,-1.8412,-1.7273,-1.4729,-1.5571,-1.5712,-1.5717,-1.6136,-1.7409,-1.8686,-1.9524,-2.0364,-2.1622,-2.2448,-2.2866,-2.2859,-2.2585,-2.2448,-2.2448,-2.2179,-2.2035,-2.1897,-2.2035,-2.2035,-2.2035,-2.231,-2.2448,-2.2585,-2.2722,-2.2866,-2.2866,-2.2866,-2.2866,-2.2866,-2.2866,-2.302,-2.3333,-2.3694,-2.4068,-2.4329,-2.4556,-2.4596,-2.4609,-2.3696,-2.298,-2.2091,-2.1349,-2.0597,-1.9995,-1.9995,-1.9844,-1.9844,-1.9995,-1.9995,-1.7109,-1.7474,-1.822,-1.8505,-1.8582,-1.8568,-1.8755,-1.9073,-1.9127,-1.9489,-1.9571,-1.9652,-1.9831,-2.0388,-2.0255,-2.0394,-2.0665,-2.0665,-2.0665,-2.0665,-2.0665,-2.0665,-2.0665,-2.0665,-2.0665,-2.0665,-2.0388,-2.0527,-2.0665,-2.0388,-2.0527,-2.0665,-2.0665,-2.075,-2.0865,-2.1022,-2.1124,-2.1436,-2.1726,-2.1793,-2.1486,-2.1799,-2.1799,-2.1594,-2.1658,-2.1592,-2.1474,-2.1678,-2.1893,-2.2212,-2.2035,-2.176,-2.149,-2.1075,-2.0665,-2.0665,-2.0533,-2.0533,-2.0671,-2.0665,-2.0243,-1.9396,-1.8837,-1.7559,-1.6145,-1.5712,-1.4725,-1.5146,-1.515,-1.5853,-1.7268,-1.8396,-1.9802,-2.1207,-2.2035,-2.2448,-2.2585,-2.231,-2.231,-2.231,-2.2173,-2.1766,-2.1766,-2.1897,-2.176,-2.176,-2.2173,-2.231,-2.2448,-2.2729,-2.2866,-2.2859,-2.2866,-2.2866,-2.2866,-2.2866,-2.2993,-2.3293,-2.334,-2.3731,-2.411,-2.4382,-2.4268,-2.3979,-2.3264,-2.2396,-2.1643,-2.1043,-2.0592,-2.014,-1.9995,-1.9844,-1.9844,-1.9844,-1.9844,-1.7389,-1.7905,-1.7804,-1.8205,-1.8702,-1.8401,-1.8396,-1.853,-1.8191,-1.8288,-1.8628,-1.8776,-1.8843,-1.9831,-1.9541,-2.011,-2.0527,-2.0671,-2.0527,-2.0388,-2.0388,-2.0521,-1.9675,-2.0521,-2.0388,-2.0243,-2.0388,-2.0104,-1.9814,-1.9814,-2.0243,-2.0104,-2.0243,-2.0527,-2.0738,-2.0895,-2.1003,-2.1064,-2.1269,-2.1378,-2.1396,-2.1438,-2.1474,-2.145,-2.1221,-2.1157,-2.1297,-2.1455,-2.162,-2.1634,-2.1352,-2.1346,-2.1214,-2.0943,-2.0665,-2.0665,-2.0671,-2.0671,-2.0665,-2.0665,-2.0665,-2.0382,-1.9396,-1.8546,-1.784,-1.6282,-1.5287,-1.5707,-1.4729,-1.4867,-1.5853,-1.7549,-1.91,-2.0364,-2.1063,-2.1615,-2.2035,-2.1897,-2.2035,-2.2585,-2.2042,-2.1766,-2.1766,-2.1904,-2.1904,-2.1352,-2.176,-2.2035,-2.2173,-2.231,-2.2585,-2.2722,-2.2722,-2.2866,-2.2866,-2.2866,-2.3046,-2.3121,-2.3054,-2.3209,-2.3806,-2.4057,-2.3849,-2.3465,-2.2955,-2.2241,-2.1337,-2.0887,-2.0436,-2.0291,-1.9995,-1.9844,-1.9844,-1.9844,-1.9844,-1.7087,-1.7243,-1.7927,-1.8346,-1.8565,-1.8628,-1.8184,-1.7286,-1.6817,-1.6654,-1.6336,-1.5543,-1.6409,-1.8261,-1.8401,-1.8971,-1.997,-2.0243,-2.0104,-1.9117,-2.0243,-1.9105,-1.8256,-1.9384,-1.9959,-1.9256,-1.8971,-1.8401,-1.7689,-1.797,-1.783,-1.8971,-1.9396,-1.9541,-2.0551,-2.0732,-2.0756,-2.0798,-2.0862,-2.0982,-2.1185,-2.1019,-2.1108,-2.1402,-2.1178,-2.104,-2.1138,-2.1169,-2.1065,-2.1016,-2.1075,-2.1075,-2.1075,-2.0804,-2.0671,-2.0665,-2.0665,-2.0665,-2.0665,-2.0665,-2.0665,-2.0665,-2.0243,-1.968,-1.8412,-1.784,-1.6841,-1.6272,-1.4867,-1.4303,-1.4725,-1.5849,-1.7404,-1.8675,-1.91,-1.9802,-2.1069,-2.1352,-2.149,-2.1484,-2.1352,-2.0943,-2.0949,-2.1352,-2.1352,-2.0943,-2.1352,-2.176,-2.1897,-2.2035,-2.231,-2.2585,-2.2448,-2.2454,-2.2592,-2.2611,-2.2757,-2.2743,-2.2529,-2.2723,-2.3321,-2.3536,-2.3304,-2.305,-2.2825,-2.1942,-2.0887,-2.0441,-2.014,-1.9995,-1.9844,-1.9844,-1.9844,-1.9844,-1.9844,-1.7345,-1.749,-1.7893,-1.8377,-1.8658,-1.8775,-1.8161,-1.6772,-1.5559,-1.5149,-1.5013,-1.4231,-1.4982,-1.6705,-1.6846,-1.7414,-1.8115,-1.8396,-1.8115,-1.7549,-1.8115,-1.7544,-1.6695,-1.7689,-1.8261,-1.8266,-1.8412,-1.8121,-1.8256,-1.8115,-1.8966,-1.939,-1.9396,-1.9959,-2.0527,-2.0665,-2.0678,-2.069,-2.0641,-2.0718,-2.0901,-2.0844,-2.0781,-2.1082,-2.0955,-2.0877,-2.0859,-2.0871,-2.0798,-2.0702,-2.0665,-2.0804,-2.0937,-2.0798,-2.0665,-2.0665,-2.0665,-2.0665,-2.0665,-2.0665,-2.0665,-2.0665,-2.0665,-2.0243,-1.9396,-1.8971,-1.8121,-1.7127,-1.5995,-1.5004,-1.4867,-1.4725,-1.5853,-1.6841,-1.7268,-1.8115,-1.9529,-2.0515,-2.1081,-2.1352,-2.1214,-2.1075,-2.1075,-2.1214,-2.1081,-2.0943,-2.1628,-2.2035,-2.1897,-2.2035,-2.2173,-2.231,-2.2173,-2.2179,-2.2317,-2.2362,-2.2322,-2.2248,-2.1982,-2.2371,-2.2872,-2.2838,-2.2601,-2.241,-2.222,-2.1481,-2.0592,-2.014,-1.9978,-1.9844,-1.9844,-1.9844,-1.9844,-1.9844,-1.9844,-1.763,-1.8168,-1.7876,-1.8273,-1.8986,-1.8652,-1.7714,-1.6338,-1.4574,-1.3938,-1.406,-1.3778,-1.4006,-1.5008,-1.5296,-1.5575,-1.6131,-1.6272,-1.6413,-1.5853,-1.6413,-1.5849,-1.5429,-1.5712,-1.6423,-1.77,-1.7419,-1.784,-1.8261,-1.9256,-1.7835,-1.9251,-1.9396,-1.9105,-1.9669,-2.0243,-2.0104,-2.011,-2.0545,-2.0702,-2.0696,-2.072,-2.0732,-2.0732,-2.0726,-2.0708,-2.0726,-2.075,-2.0726,-2.0678,-2.0151,-2.0145,-2.0249,-2.0527,-2.0527,-2.0527,-2.0527,-2.0527,-2.0388,-2.0388,-2.0243,-2.0527,-2.0388,-2.0527,-2.0243,-1.9675,-1.9111,-1.8256,-1.7263,-1.5707,-1.5707,-1.4303,-1.4445,-1.5287,-1.5707,-1.6559,-1.7835,-1.9251,-1.9947,-2.1352,-2.1214,-2.0937,-2.1075,-2.1214,-2.1081,-2.1081,-2.1766,-2.2035,-2.1897,-2.1904,-2.1897,-2.2035,-2.2042,-2.1904,-2.2042,-2.2048,-2.2013,-2.1748,-2.1609,-2.1791,-2.2216,-2.1858,-2.1808,-2.1801,-2.1437,-2.0831,-2.0325,-2.0164,-2.0031,-1.9951,-1.9844,-1.9844,-1.9844,-1.9844,-1.9844,-1.7147,-1.8841,-1.8466,-1.8571,-1.8857,-1.7826,-1.6629,-1.5362,-1.3959,-1.2774,-1.2093,-1.1966,-1.2749,-1.3607,-1.4022,-1.4867,-1.5571,-1.5571,-1.515,-1.4583,-1.5004,-1.4867,-1.3317,-1.3876,-1.4445,-1.4587,-1.4733,-1.4591,-1.4022,-1.3174,-1.515,-1.5155,-1.5575,-1.5995,-1.7404,-1.7975,-1.8826,-1.9117,-1.997,-2.0684,-2.0527,-2.0665,-2.0665,-2.0665,-2.0665,-2.0665,-2.072,-2.0859,-2.0895,-2.0581,-1.96,-1.8991,-1.8881,-1.9396,-1.9535,-1.9535,-1.968,-1.982,-1.9686,-1.9256,-1.9535,-1.9959,-1.9535,-1.9535,-2.0098,-2.0237,-1.9529,-1.8966,-1.7409,-1.5571,-1.4303,-1.3178,-1.2892,-1.3741,-1.4303,-1.4867,-1.6136,-1.6982,-1.811,-1.9947,-2.0376,-2.0659,-2.0653,-2.0792,-2.0937,-2.0937,-2.1352,-2.149,-2.1352,-2.1352,-2.149,-2.1766,-2.1766,-2.1766,-2.1904,-2.1766,-2.1666,-2.1395,-2.1257,-2.1257,-2.1334,-2.1016,-2.09,-2.1228,-2.1275,-2.0979,-2.0479,-2.012,-1.9938,-2.0009,-1.9919,-1.9978,-1.9844,-1.9844,-1.9844,-1.6806,-1.8924,-1.7325,-1.7023,-1.7309,-1.6353,-1.5086,-1.4033,-1.3497,-1.2574,-1.1741,-1.1504,-1.1907,-1.233,-1.2613,-1.3174,-1.3595,-1.3737,-1.3313,-1.3031,-1.3317,-1.317,-1.1619,-1.2466,-1.2606,-1.2749,-1.2753,-1.3317,-1.3876,-1.416,-1.416,-1.4867,-1.5004,-1.5425,-1.599,-1.6836,-1.7122,-1.7695,-1.9296,-2.0157,-1.9686,-2.0104,-2.0665,-2.0665,-2.0665,-2.0665,-2.0696,-2.0477,-2.0519,-2.0151,-1.8801,-1.808,-1.7741,-1.7424,-1.7414,-1.7689,-1.797,-1.8115,-1.7981,-1.7409,-1.7549,-1.797,-1.7549,-1.7549,-1.811,-1.8115,-1.8535,-1.783,-1.67,-1.4725,-1.4022,-1.247,-1.2187,-1.2466,-1.2749,-1.3456,-1.4445,-1.4862,-1.6277,-1.8121,-1.8826,-1.9111,-1.9535,-1.9953,-2.0659,-2.0937,-2.0937,-2.0937,-2.0798,-2.1075,-2.1352,-2.1352,-2.149,-2.1352,-2.1352,-2.1352,-2.1358,-2.1075,-2.0937,-2.0937,-2.0967,-2.0695,-2.0742,-2.0973,-2.0876,-2.0832,-2.0526,-2.0191,-2.0053,-2.0043,-2.0081,-1.9981,-1.994,-1.9844,-1.9844,-1.5352,-1.7179,-1.5052,-1.4633,-1.5468,-1.4796,-1.3862,-1.3013,-1.2748,-1.2224,-1.1341,-1.1436,-1.1582,-1.1609,-1.1616,-1.176,-1.1616,-1.176,-1.176,-1.176,-1.1903,-1.1616,-1.1616,-1.1616,-1.176,-1.19,-1.19,-1.2892,-1.4022,-1.4441,-1.5004,-1.4725,-1.5004,-1.5146,-1.5008,-1.5287,-1.5566,-1.6433,-1.7882,-1.8595,-1.8266,-1.896,-1.9814,-1.9814,-1.9808,-1.9669,-1.9396,-1.9703,-1.9424,-1.8837,-1.7856,-1.6866,-1.6437,-1.5168,-1.4595,-1.515,-1.5566,-1.599,-1.599,-1.5707,-1.5853,-1.6554,-1.5995,-1.5849,-1.6272,-1.6554,-1.6413,-1.5849,-1.4867,-1.4022,-1.3741,-1.247,-1.176,-1.1616,-1.176,-1.2043,-1.2892,-1.3456,-1.388,-1.5296,-1.671,-1.7554,-1.7835,-1.8256,-1.8815,-1.9675,-1.9814,-2.0653,-2.0515,-2.1075,-2.1214,-2.1214,-2.1081,-2.0943,-2.0943,-2.0943,-2.0943,-2.0943,-2.0804,-2.0804,-2.0804,-2.0702,-2.0732,-2.0786,-2.0644,-2.0591,-2.0422,-2.0393,-2.0229,-2.0202,-2.0167,-2.0131,-1.9943,-1.993,-1.9844,-1.1436,-1.1702,-1.1381,-1.2165,-1.3683,-1.3329,-1.2943,-1.2584,-1.1712,-1.1183,-1.1172,-1.1345,-1.1501,-1.1596,-1.1616,-1.1616,-1.1616,-1.1616,-1.1616,-1.1616,-1.1616,-1.1616,-1.1616,-1.1616,-1.1616,-1.1616,-1.1616,-1.176,-1.261,-1.2606,-1.2323,-1.2466,-1.2606,-1.2327,-1.2892,-1.3741,-1.4164,-1.4298,-1.4973,-1.537,-1.5507,-1.6389,-1.6831,-1.6977,-1.6977,-1.7117,-1.7404,-1.7975,-1.7981,-1.6841,-1.6418,-1.5575,-1.4307,-1.2896,-1.2187,-1.2753,-1.4026,-1.558,-1.5301,-1.4587,-1.4583,-1.5004,-1.4725,-1.5004,-1.5287,-1.5566,-1.5566,-1.599,-1.4725,-1.3741,-1.3456,-1.2466,-1.19,-1.1616,-1.1616,-1.1616,-1.2043,-1.2466,-1.2749,-1.3035,-1.4453,-1.5296,-1.5995,-1.6418,-1.6982,-1.7975,-1.8832,-1.9529,-2.0237,-2.0653,-2.1075,-2.1075,-2.0943,-2.0804,-2.0804,-2.0665,-2.0665,-2.0665,-2.0665,-2.0665,-2.0665,-2.0665,-2.0665,-2.0738,-2.0572,-2.0644,-2.048,-2.0449,-2.0399,-2.0382,-2.0235,-2.0241,-2.0097,-2.0087,-1.9892,-1.0683,-1.068,-1.0656,-1.1187,-1.1871,-1.163,-1.1637,-1.1541,-1.1149,-1.1029,-1.1172,-1.1324,-1.1477,-1.1596,-1.1616,-1.1616,-1.1616,-1.1616,-1.1616,-1.1616,-1.1616,-1.1616,-1.1616,-1.1616,-1.1616,-1.1616,-1.1616,-1.1616,-1.1616,-1.1616,-1.1616,-1.1616,-1.1616,-1.176,-1.1616,-1.2187,-1.2466,-1.2885,-1.3575,-1.439,-1.4801,-1.5534,-1.6131,-1.6131,-1.599,-1.599,-1.6131,-1.6423,-1.6569,-1.5717,-1.515,-1.4307,-1.346,-1.247,-1.1616,-1.1763,-1.261,-1.3178,-1.3178,-1.2892,-1.3174,-1.3317,-1.3031,-1.2888,-1.3452,-1.3737,-1.3595,-1.3456,-1.388,-1.3456,-1.3031,-1.2892,-1.2327,-1.2047,-1.1616,-1.1616,-1.1616,-1.1616,-1.19,-1.2043,-1.2187,-1.3317,-1.4303,-1.5146,-1.5849,-1.6559,-1.7414,-1.7975,-1.9105,-2.0237,-2.0659,-2.0937,-2.0804,-2.0804,-2.0804,-2.0665,-2.0665,-2.0665,-2.0665,-2.0665,-2.0665,-2.0665,-2.0665,-2.0665,-2.0732,-2.0659,-2.0572,-2.062,-2.0562,-2.0431,-2.0307,-2.03,-2.0286,-2.0196,-2.0167,-1.0721,-1.0721,-1.0721,-1.0721,-1.0721,-1.0721,-1.0717,-1.0734,-1.0836,-1.0972,-1.1131,-1.1304,-1.1477,-1.1592,-1.1616,-1.1616,-1.1616,-1.1616,-1.1616,-1.1616,-1.1616,-1.1616,-1.1616,-1.1616,-1.1616,-1.1616,-1.1616,-1.1616,-1.1616,-1.1616,-1.1616,-1.1616,-1.1616,-1.1616,-1.1616,-1.176,-1.176,-1.19,-1.2745,-1.329,-1.3693,-1.4419,-1.4716,-1.4862,-1.5008,-1.5004,-1.5004,-1.5292,-1.5155,-1.4307,-1.4169,-1.346,-1.2757,-1.2043,-1.1616,-1.1619,-1.2043,-1.19,-1.2043,-1.19,-1.1616,-1.1616,-1.1616,-1.19,-1.1756,-1.1616,-1.1616,-1.2043,-1.261,-1.247,-1.2187,-1.2606,-1.2327,-1.1903,-1.1616,-1.1616,-1.1616,-1.1616,-1.1616,-1.176,-1.1903,-1.176,-1.2892,-1.3876,-1.4725,-1.5287,-1.5853,-1.6418,-1.7549,-1.8966,-1.9105,-1.9239,-1.9814,-1.9814,-1.9959,-2.0098,-2.0243,-2.0527,-2.0527,-2.0665,-2.0527,-2.0665,-2.0665,-2.0665,-2.0665,-2.0696,-2.0623,-2.0738,-2.0726,-2.0626,-2.0509,-2.0472,-2.0434,-2.0353,-2.0206,-1.0721,-1.0721,-1.0721,-1.0721,-1.0721,-1.0721,-1.0721,-1.0721,-1.0734,-1.0836,-1.1016,-1.1403,-1.1619,-1.1579,-1.1609,-1.1616,-1.1616,-1.1616,-1.1616,-1.1616,-1.1616,-1.1616,-1.1616,-1.1616,-1.1616,-1.1616,-1.1616,-1.1616,-1.1616,-1.1616,-1.1616,-1.1616,-1.1616,-1.1616,-1.1616,-1.1616,-1.1616,-1.1616,-1.2043,-1.2043,-1.2173,-1.2323,-1.2323,-1.2183,-1.204,-1.19,-1.2043,-1.3317,-1.3599,-1.2466,-1.3035,-1.3035,-1.2187,-1.176,-1.1616,-1.1616,-1.1616,-1.1616,-1.1616,-1.1616,-1.1616,-1.1616,-1.1616,-1.1616,-1.1616,-1.1616,-1.1616,-1.1616,-1.2327,-1.2043,-1.176,-1.1763,-1.2187,-1.176,-1.1616,-1.1616,-1.1616,-1.1616,-1.1616,-1.1616,-1.1616,-1.1616,-1.1616,-1.2749,-1.3313,-1.388,-1.4725,-1.515,-1.5849,-1.6982,-1.6982,-1.7122,-1.8115,-1.8401,-1.8686,-1.8826,-1.9105,-1.9529,-1.9675,-2.0098,-2.0382,-2.0521,-2.0665,-2.0388,-2.0249,-2.0527,-2.0665,-2.0539,-2.0563,-2.0605,-2.056,-2.055,-2.0396,-2.0364,-2.0249,-1.0721,-1.0721,-1.0721,-1.0721,-1.0721,-1.0721,-1.0721,-1.0721,-1.0721,-1.0806,-1.0968,-1.1392,-1.1568,-1.1487,-1.1589,-1.1616,-1.1616,-1.1616,-1.1616,-1.1616,-1.1616,-1.1616,-1.1616,-1.1616,-1.1616,-1.1616,-1.1616,-1.1616,-1.1616,-1.1616,-1.1616,-1.1616,-1.1616,-1.1616,-1.1616,-1.1616,-1.1616,-1.1616,-1.1616,-1.1616,-1.1616,-1.1616,-1.1616,-1.1616,-1.1616,-1.1616,-1.176,-1.2183,-1.2043,-1.19,-1.2327,-1.2043,-1.176,-1.1616,-1.1616,-1.1616,-1.1616,-1.1616,-1.1616,-1.1616,-1.1616,-1.1616,-1.1616,-1.1616,-1.1616,-1.1616,-1.1616,-1.176,-1.2327,-1.2327,-1.1763,-1.2327,-1.2892,-1.2043,-1.1623,-1.1633,-1.1636,-1.1647,-1.1647,-1.166,-1.1636,-1.1616,-1.1616,-1.176,-1.204,-1.2466,-1.3317,-1.4022,-1.4583,-1.5141,-1.5287,-1.5571,-1.6423,-1.6846,-1.7127,-1.7549,-1.7975,-1.8412,-1.8854,-1.915,-1.9452,-2.0527,-2.0527,-2.0249,-1.982,-1.9675,-1.9814,-2.0243,-2.0539,-2.0569,-2.0593,-2.0635,-2.0638,-2.0497,-2.0358,-1.0721,-1.0721,-1.0721,-1.0721,-1.0721,-1.0721,-1.0721,-1.0721,-1.0721,-1.0806,-1.0962,-1.1179,-1.129,-1.1352,-1.1477,-1.1541,-1.1555,-1.1586,-1.1613,-1.1616,-1.1616,-1.1616,-1.1616,-1.1616,-1.1616,-1.1616,-1.1616,-1.1616,-1.1616,-1.1616,-1.1616,-1.1616,-1.1616,-1.1616,-1.1616,-1.1616,-1.1616,-1.1616,-1.1616,-1.1616,-1.1616,-1.1616,-1.1616,-1.1616,-1.1616,-1.1616,-1.1616,-1.176,-1.176,-1.1616,-1.176,-1.1616,-1.1616,-1.1616,-1.1616,-1.1616,-1.1616,-1.1616,-1.1616,-1.1616,-1.1616,-1.1616,-1.1616,-1.1616,-1.1616,-1.1616,-1.1616,-1.1619,-1.2466,-1.2749,-1.1619,-1.233,-1.261,-1.1619,-1.1701,-1.1718,-1.1714,-1.1721,-1.1711,-1.1711,-1.1667,-1.1616,-1.1616,-1.1616,-1.176,-1.19,-1.2327,-1.2892,-1.3035,-1.3599,-1.4022,-1.4303,-1.4867,-1.5292,-1.5429,-1.6349,-1.6989,-1.7293,-1.7582,-1.7703,-1.8259,-1.9184,-1.9396,-1.8401,-1.8115,-1.8541,-1.8541,-1.8396,-1.939,-2.0527,-2.0551,-2.0714,-2.0599,-2.059,-2.0503,-1.0721,-1.0721,-1.0721,-1.0721,-1.0721,-1.0721,-1.0721,-1.0721,-1.0721,-1.0799,-1.0917,-1.0846,-1.0923,-1.1182,-1.1471,-1.1406,-1.1457,-1.1545,-1.1606,-1.1613,-1.1616,-1.1616,-1.1616,-1.1616,-1.1616,-1.1616,-1.1616,-1.1616,-1.1616,-1.1616,-1.1616,-1.1616,-1.1616,-1.1616,-1.1616,-1.1616,-1.1616,-1.1616,-1.1616,-1.1616,-1.1616,-1.1616,-1.1616,-1.1616,-1.1616,-1.1616,-1.1616,-1.1616,-1.1616,-1.1616,-1.1616,-1.1616,-1.1616,-1.1616,-1.1616,-1.1616,-1.1616,-1.1616,-1.1616,-1.1616,-1.1616,-1.1616,-1.1616,-1.1616,-1.1616,-1.1616,-1.1616,-1.1619,-1.19,-1.19,-1.1619,-1.1619,-1.1763,-1.1784,-1.1714,-1.1769,-1.1762,-1.1728,-1.1708,-1.1728,-1.1674,-1.1616,-1.1616,-1.1616,-1.1616,-1.1616,-1.1616,-1.176,-1.2047,-1.2327,-1.2892,-1.3031,-1.3599,-1.3737,-1.4189,-1.5332,-1.5983,-1.6146,-1.6271,-1.6377,-1.6453,-1.7081,-1.6885,-1.6287,-1.6559,-1.7263,-1.6841,-1.6277,-1.7689,-1.9105,-2.0382,-2.0678,-2.0678,-2.072,-2.0689,-1.0721,-1.0721,-1.0721,-1.0721,-1.0721,-1.0721,-1.0721,-1.0721,-1.0724,-1.0751,-1.0812,-1.0756,-1.0826,-1.1056,-1.1168,-1.1287,-1.1385,-1.1416,-1.1494,-1.1609,-1.1606,-1.1616,-1.1616,-1.1616,-1.1616,-1.1616,-1.1616,-1.1616,-1.1616,-1.1616,-1.1616,-1.1616,-1.1616,-1.1616,-1.1616,-1.1616,-1.1616,-1.1616,-1.1616,-1.1616,-1.1616,-1.1616,-1.1616,-1.1616,-1.1616,-1.1616,-1.1616,-1.1616,-1.1616,-1.1616,-1.1616,-1.1616,-1.1616,-1.1616,-1.1616,-1.1616,-1.1616,-1.1616,-1.1616,-1.1616,-1.1616,-1.1616,-1.1616,-1.1616,-1.1616,-1.1616,-1.1616,-1.1616,-1.1616,-1.1616,-1.1619,-1.1619,-1.1619,-1.1619,-1.1677,-1.1742,-1.1745,-1.1694,-1.167,-1.1725,-1.1711,-1.1647,-1.1623,-1.1619,-1.1616,-1.1616,-1.1616,-1.1616,-1.176,-1.176,-1.2043,-1.2043,-1.2183,-1.2327,-1.2801,-1.3853,-1.4229,-1.4087,-1.4479,-1.4852,-1.5067,-1.5292,-1.5199,-1.4875,-1.5434,-1.5849,-1.5287,-1.515,-1.6277,-1.7549,-1.8821,-1.9849,-2.0023,-2.0361,-2.0889,-1.0721,-1.0721,-1.0721,-1.0721,-1.0721,-1.0721,-1.0721,-1.0721,-1.0721,-1.0721,-1.0744,-1.0692,-1.0732,-1.0776,-1.0883,-1.098,-1.1243,-1.1297,-1.1396,-1.1525,-1.1538,-1.1565,-1.1599,-1.1613,-1.1616,-1.1616,-1.1616,-1.1616,-1.1616,-1.1616,-1.1616,-1.1616,-1.1616,-1.1616,-1.1616,-1.1616,-1.1616,-1.1616,-1.1616,-1.1616,-1.1616,-1.1616,-1.1616,-1.1616,-1.1616,-1.1616,-1.1616,-1.1616,-1.1616,-1.1616,-1.1616,-1.1616,-1.1616,-1.1616,-1.1616,-1.1616,-1.1616,-1.1616,-1.1616,-1.1616,-1.1616,-1.1616,-1.1616,-1.1616,-1.1616,-1.1616,-1.1616,-1.1616,-1.1616,-1.1616,-1.1616,-1.1616,-1.1619,-1.1619,-1.1681,-1.1745,-1.1847,-1.1803,-1.1799,-1.184,-1.1779,-1.1711,-1.1626,-1.1623,-1.1616,-1.1616,-1.1616,-1.1616,-1.1616,-1.1616,-1.1643,-1.1674,-1.1701,-1.1877,-1.2108,-1.2406,-1.2455,-1.2144,-1.2694,-1.3533,-1.3463,-1.3712,-1.3586,-1.3468,-1.3745,-1.388,-1.3737,-1.4022,-1.5008,-1.5995,-1.7268,-1.8158,-1.9071,-1.9442,-1.9809,-1.0721,-1.0721,-1.0721,-1.0721,-1.0721,-1.0721,-1.0721,-1.0721,-1.0721,-1.0721,-1.0724,-1.0731,-1.0748,-1.0761,-1.0745,-1.0823,-1.1009,-1.1111,-1.1243,-1.1348,-1.1382,-1.1463,-1.1531,-1.1572,-1.1565,-1.1592,-1.1613,-1.1616,-1.1616,-1.1616,-1.1616,-1.1616,-1.1616,-1.1616,-1.1616,-1.1616,-1.1616,-1.1616,-1.1616,-1.1616,-1.1616,-1.1616,-1.1616,-1.1616,-1.1616,-1.1616,-1.1616,-1.1616,-1.1616,-1.1616,-1.1616,-1.1616,-1.1616,-1.1616,-1.1616,-1.1616,-1.1616,-1.1616,-1.1616,-1.1616,-1.1616,-1.1616,-1.1616,-1.1616,-1.1616,-1.1616,-1.1616,-1.1616,-1.1616,-1.1616,-1.1616,-1.1616,-1.1616,-1.1664,-1.1721,-1.1837,-1.1982,-1.201,-1.2013,-1.1979,-1.1877,-1.1782,-1.165,-1.1616,-1.1616,-1.1616,-1.1616,-1.1616,-1.1616,-1.1616,-1.1664,-1.1775,-1.1813,-1.1874,-1.1976,-1.2064,-1.2094,-1.2064,-1.2111,-1.2682,-1.2466,-1.235,-1.2485,-1.2377,-1.1917,-1.1903,-1.2466,-1.3035,-1.3599,-1.4587,-1.5292,-1.6452,-1.7213,-1.7496,-1.7576,-1.0721,-1.0721,-1.0721,-1.0721,-1.0721,-1.0721,-1.0721,-1.0721,-1.0721,-1.0721,-1.0721,-1.0721,-1.0721,-1.0727,-1.0768,-1.0715,-1.0924,-1.1002,-1.1101,-1.1179,-1.1229,-1.126,-1.1324,-1.1406,-1.1443,-1.1494,-1.1538,-1.1579,-1.1603,-1.1606,-1.1609,-1.1616,-1.1616,-1.1616,-1.1616,-1.1616,-1.1616,-1.1616,-1.1616,-1.1616,-1.1616,-1.1616,-1.1616,-1.1616,-1.1616,-1.1616,-1.1616,-1.1616,-1.1616,-1.1616,-1.1616,-1.1616,-1.1616,-1.1616,-1.1616,-1.1616,-1.1616,-1.1616,-1.1616,-1.1616,-1.1616,-1.1616,-1.1616,-1.1616,-1.1616,-1.1616,-1.1616,-1.1616,-1.1616,-1.1616,-1.1616,-1.1616,-1.1616,-1.165,-1.1708,-1.1799,-1.1935,-1.201,-1.2023,-1.2104,-1.2003,-1.1789,-1.1664,-1.1616,-1.1616,-1.1616,-1.1616,-1.1616,-1.1616,-1.1616,-1.1681,-1.1796,-1.1887,-1.1935,-1.2006,-1.2091,-1.2121,-1.2145,-1.2199,-1.2213,-1.2268,-1.2134,-1.1806,-1.1701,-1.1653,-1.163,-1.176,-1.2183,-1.2749,-1.2327,-1.2892,-1.4332,-1.5368,-1.5489,-1.5696,-1.0721,-1.0721,-1.0721,-1.0721,-1.0721,-1.0588,-1.0588,-1.0721,-1.0721,-1.0721,-1.0721,-1.0721,-1.0721,-1.0721,-1.0731,-1.0772,-1.0846,-1.086,-1.0938,-1.105,-1.1077,-1.1134,-1.1189,-1.1243,-1.1287,-1.1345,-1.1375,-1.1402,-1.146,-1.1521,-1.1538,-1.1616,-1.1616,-1.1616,-1.1616,-1.1616,-1.1616,-1.1616,-1.1616,-1.1616,-1.1616,-1.1616,-1.1616,-1.1616,-1.1616,-1.1616,-1.1616,-1.1616,-1.1616,-1.1616,-1.1616,-1.1616,-1.1616,-1.1616,-1.1616,-1.1616,-1.1616,-1.1616,-1.1616,-1.1616,-1.1616,-1.1616,-1.1616,-1.1616,-1.1616,-1.1616,-1.1616,-1.1616,-1.1616,-1.1616,-1.1616,-1.1616,-1.1616,-1.1619,-1.1674,-1.1728,-1.1826,-1.1925,-1.204,-1.2172,-1.205,-1.1816,-1.1694,-1.1647,-1.1616,-1.1616,-1.1616,-1.1616,-1.1616,-1.1616,-1.1694,-1.1803,-1.1901,-1.1982,-1.2057,-1.2152,-1.2237,-1.2288,-1.2328,-1.2311,-1.2213,-1.2077,-1.1911,-1.1775,-1.1664,-1.164,-1.1616,-1.1616,-1.19,-1.1616,-1.1616,-1.2621,-1.3519,-1.3617,-1.3926,-1.0721,-1.0717,-1.0588,-1.0319,-1.0319,-0.9921,-0.9921,-1.0455,-1.0459,-1.0724,-1.0721,-1.0721,-1.0721,-1.0588,-1.0588,-1.0591,-1.0492,-1.0498,-1.0548,-1.0796,-1.0796,-1.0839,-1.105,-1.1141,-1.1148,-1.1148,-1.1185,-1.126,-1.1233,-1.1307,-1.1443,-1.1589,-1.1582,-1.1582,-1.1613,-1.1616,-1.1616,-1.1616,-1.1616,-1.1616,-1.1616,-1.1616,-1.1616,-1.1616,-1.1616,-1.1616,-1.1616,-1.1616,-1.1616,-1.1616,-1.1616,-1.1616,-1.1616,-1.1616,-1.1616,-1.1616,-1.1616,-1.1616,-1.1616,-1.1616,-1.1616,-1.1616,-1.1616,-1.1616,-1.1616,-1.1616,-1.1616,-1.1616,-1.1616,-1.1616,-1.1616,-1.1616,-1.1616,-1.1616,-1.1647,-1.1721,-1.182,-1.1948,-1.2108,-1.2189,-1.2108,-1.1881,-1.1711,-1.1667,-1.166,-1.164,-1.1616,-1.1616,-1.1616,-1.1616,-1.1694,-1.1803,-1.1928,-1.2033,-1.2145,-1.225,-1.2386,-1.2447,-1.243,-1.2362,-1.2223,-1.2118,-1.1871,-1.183,-1.1643,-1.1633,-1.1616,-1.1616,-1.1616,-1.1616,-1.1616,-1.1616,-1.1952,-1.2304,-1.2449,-1.0721,-1.0585,-0.9785,-0.8848,-0.791,-0.7777,-0.7641,-0.7638,-0.9816,-1.0615,-1.0727,-1.0588,-1.0455,-1.0187,-1.0319,-1.019,-1.006,-1.0193,-1.0212,-1.0381,-1.0528,-1.0695,-1.0863,-1.0962,-1.0992,-1.104,-1.1087,-1.1131,-1.1013,-1.1209,-1.129,-1.1426,-1.1305,-1.1338,-1.1429,-1.1435,-1.1592,-1.1446,-1.1616,-1.1616,-1.1616,-1.1616,-1.1616,-1.1616,-1.1616,-1.1616,-1.1616,-1.1616,-1.1616,-1.1616,-1.1616,-1.1616,-1.1616,-1.1616,-1.1616,-1.1616,-1.1616,-1.1616,-1.1616,-1.1616,-1.1616,-1.1616,-1.1616,-1.1616,-1.1616,-1.1616,-1.1616,-1.1616,-1.1616,-1.1616,-1.1616,-1.1616,-1.1616,-1.1616,-1.1623,-1.1718,-1.1813,-1.1979,-1.2155,-1.2159,-1.2115,-1.1972,-1.1789,-1.1711,-1.1701,-1.1674,-1.1633,-1.1616,-1.1616,-1.1623,-1.1677,-1.1789,-1.1959,-1.2081,-1.2189,-1.2318,-1.2437,-1.2416,-1.2366,-1.2298,-1.2223,-1.2067,-1.1911,-1.1759,-1.1619,-1.1616,-1.1616,-1.1616,-1.1616,-1.1616,-1.1616,-1.1616,-1.1616,-1.1952,-1.1808,-1.0465,-0.9918,-0.9123,-0.8456,-0.765,-0.6978,-0.6573,-0.6842,-0.8745,-0.9413,-0.912,-0.9927,-1.0326,-0.9788,-1.0054,-1.0057,-1.006,-1.019,-1.0329,-1.0459,-1.019,-1.0605,-1.0642,-1.0414,-1.0568,-1.0621,-1.0522,-1.0564,-1.0643,-1.0665,-1.0583,-1.0845,-1.0878,-1.0917,-1.1015,-1.119,-1.1233,-1.1229,-1.1425,-1.1456,-1.1459,-1.1613,-1.1616,-1.1616,-1.1616,-1.1616,-1.1616,-1.1616,-1.1616,-1.1616,-1.1616,-1.1616,-1.1616,-1.1616,-1.1616,-1.1616,-1.1616,-1.1616,-1.1616,-1.1616,-1.1616,-1.1616,-1.1616,-1.1616,-1.1616,-1.1616,-1.1616,-1.1616,-1.1616,-1.1616,-1.1616,-1.1616,-1.1616,-1.1616,-1.1633,-1.1691,-1.1782,-1.1904,-1.2091,-1.223,-1.2162,-1.205,-1.1894,-1.1803,-1.1772,-1.1657,-1.1623,-1.1616,-1.1616,-1.1616,-1.1674,-1.1759,-1.1918,-1.2037,-1.2115,-1.2277,-1.2461,-1.2406,-1.2322,-1.223,-1.2145,-1.1965,-1.1796,-1.1697,-1.1633,-1.1616,-1.1616,-1.1616,-1.1616,-1.1616,-1.1616,-1.1616,-1.1616,-1.1616,-1.1626,-0.9816,-0.8584,-0.8464,-0.8064,-0.7658,-0.6445,-0.5638,-0.5908,-0.7125,-0.6989,-0.604,-0.8187,-0.8853,-0.9253,-0.9652,-1.0054,-0.9788,-0.8981,-0.9516,-0.9788,-0.9649,-0.9383,-0.9389,-0.967,-0.9422,-0.9564,-0.9719,-0.9909,-0.9974,-0.9983,-1.0029,-1.0003,-1.0037,-1.0187,-1.0231,-1.0299,-1.0514,-1.0542,-1.0735,-1.095,-1.1276,-1.1606,-1.1613,-1.1616,-1.1616,-1.1616,-1.1616,-1.1616,-1.1616,-1.1616,-1.1616,-1.1616,-1.1616,-1.1616,-1.1616,-1.1616,-1.1616,-1.1616,-1.1616,-1.1616,-1.1616,-1.1616,-1.1616,-1.1616,-1.1616,-1.1616,-1.1616,-1.1616,-1.1616,-1.1616,-1.1616,-1.1616,-1.1616,-1.1619,-1.164,-1.1674,-1.1762,-1.1843,-1.2023,-1.2223,-1.2186,-1.2084,-1.2006,-1.1911,-1.1816,-1.1697,-1.1626,-1.1619,-1.1616,-1.1616,-1.1643,-1.1725,-1.1843,-1.1948,-1.202,-1.2227,-1.243,-1.2433,-1.2345,-1.2213,-1.2077,-1.1935,-1.1813,-1.1718,-1.1664,-1.1633,-1.1619,-1.1616,-1.1616,-1.1616,-1.1616,-1.1616,-1.1616,-1.1616,-1.1616,-0.848,-0.5372,-0.6998,-0.6191,-0.3767,-0.3095,-0.269,-0.2286,-0.3094,-0.2959,-0.2822,-0.3356,-0.4964,-0.793,-0.82,-0.8328,-0.7917,-0.7379,-0.7381,-0.7653,-0.7779,-0.7374,-0.7376,-0.7648,-0.7786,-0.8061,-0.8742,-0.9445,-0.8666,-0.8923,-0.9367,-0.949,-0.976,-0.9948,-1.0203,-0.9959,-0.8976,-0.9282,-0.9299,-0.92,-1.0386,-1.0741,-1.1459,-1.1616,-1.1616,-1.1616,-1.1616,-1.1616,-1.1616,-1.1616,-1.1472,-1.1329,-1.1181,-1.1181,-1.1181,-1.1181,-1.1325,-1.1472,-1.1472,-1.1616,-1.1616,-1.1616,-1.1616,-1.1616,-1.1616,-1.1616,-1.1616,-1.1616,-1.1616,-1.1616,-1.1616,-1.1616,-1.1616,-1.1616,-1.163,-1.1694,-1.1769,-1.183,-1.1932,-1.2091,-1.2176,-1.1955,-1.1904,-1.1831,-1.178,-1.166,-1.1533,-1.1516,-1.1619,-1.1616,-1.1616,-1.1694,-1.1782,-1.1823,-1.1887,-1.2162,-1.2349,-1.2376,-1.2389,-1.2294,-1.2155,-1.1955,-1.1837,-1.1762,-1.1687,-1.1643,-1.1633,-1.1616,-1.1616,-1.1616,-1.1616,-1.1616,-1.1616,-1.1616,-1.1616]}]]